<?xml version="1.0" encoding="UTF-8" standalone="no" ?>
<gpx xmlns="http://www.topografix.com/GPX/1/1" xmlns:xsi="http://www.w3.org/2001/XMLSchema-instance" xsi:schemaLocation="http://www.topografix.com/GPX/1/1 http://www.topografix.com/GPX/1/1/gpx.xsd" version="1.1" creator="VisuGPX - https://www.visugpx.com">
  <metadata>
    <name>-Verdaches - Méolans 6éme étape</name>
    <desc><![CDATA[10.08.2018. Suberbe descente entre le 34 et le 27. très belles traces dans l'ensemble sur le raid. ]]></desc>
  </metadata>
  <trk>
    <name><![CDATA[9058459-Verdaches - Méolans 6éme étape]]></name>
    <extensions>
      <line xmlns="http://www.topografix.com/GPX/gpx_style/0/2">
        <color>0000FF</color>
        <width>4</width>
      </line>
    </extensions>
    <trkseg>
      <trkpt lat="44.26536" lon="6.3419">
        <ele>1133</ele>
        <time>2022-06-08T20:37:28Z</time>
      </trkpt>
      <trkpt lat="44.26533" lon="6.34198">
        <ele>1132</ele>
        <time>2022-06-08T20:37:30Z</time>
      </trkpt>
      <trkpt lat="44.26536" lon="6.34197">
        <ele>1133</ele>
        <time>2022-06-08T20:37:30Z</time>
      </trkpt>
      <trkpt lat="44.26537" lon="6.3421">
        <ele>1132</ele>
        <time>2022-06-08T20:37:32Z</time>
      </trkpt>
      <trkpt lat="44.26566" lon="6.3423">
        <ele>1133</ele>
        <time>2022-06-08T20:37:40Z</time>
      </trkpt>
      <trkpt lat="44.26605" lon="6.34274">
        <ele>1135</ele>
        <time>2022-06-08T20:37:52Z</time>
      </trkpt>
      <trkpt lat="44.26652" lon="6.34343">
        <ele>1139</ele>
        <time>2022-06-08T20:38:08Z</time>
      </trkpt>
      <trkpt lat="44.26693" lon="6.34379">
        <ele>1143</ele>
        <time>2022-06-08T20:38:19Z</time>
      </trkpt>
      <trkpt lat="44.26782" lon="6.34481">
        <ele>1145</ele>
        <time>2022-06-08T20:38:46Z</time>
      </trkpt>
      <trkpt lat="44.26824" lon="6.34521">
        <ele>1143</ele>
        <time>2022-06-08T20:38:58Z</time>
      </trkpt>
      <trkpt lat="44.26878" lon="6.34544">
        <ele>1146</ele>
        <time>2022-06-08T20:39:11Z</time>
      </trkpt>
      <trkpt lat="44.26976" lon="6.34595">
        <ele>1146</ele>
        <time>2022-06-08T20:39:35Z</time>
      </trkpt>
      <trkpt lat="44.27025" lon="6.34637">
        <ele>1149</ele>
        <time>2022-06-08T20:39:49Z</time>
      </trkpt>
      <trkpt lat="44.27081" lon="6.34673">
        <ele>1150</ele>
        <time>2022-06-08T20:40:03Z</time>
      </trkpt>
      <trkpt lat="44.27135" lon="6.34686">
        <ele>1158</ele>
        <time>2022-06-08T20:40:16Z</time>
      </trkpt>
      <trkpt lat="44.27178" lon="6.34712">
        <ele>1161</ele>
        <time>2022-06-08T20:40:27Z</time>
      </trkpt>
      <trkpt lat="44.27218" lon="6.34751">
        <ele>1157</ele>
        <time>2022-06-08T20:40:38Z</time>
      </trkpt>
      <trkpt lat="44.27242" lon="6.34808">
        <ele>1158</ele>
        <time>2022-06-08T20:40:49Z</time>
      </trkpt>
      <trkpt lat="44.27286" lon="6.34894">
        <ele>1163</ele>
        <time>2022-06-08T20:41:07Z</time>
      </trkpt>
      <trkpt lat="44.27318" lon="6.34937">
        <ele>1162</ele>
        <time>2022-06-08T20:41:17Z</time>
      </trkpt>
      <trkpt lat="44.27347" lon="6.34961">
        <ele>1161</ele>
        <time>2022-06-08T20:41:25Z</time>
      </trkpt>
      <trkpt lat="44.27366" lon="6.34988">
        <ele>1161</ele>
        <time>2022-06-08T20:41:32Z</time>
      </trkpt>
      <trkpt lat="44.27405" lon="6.35076">
        <ele>1162</ele>
        <time>2022-06-08T20:41:49Z</time>
      </trkpt>
      <trkpt lat="44.27423" lon="6.35103">
        <ele>1164</ele>
        <time>2022-06-08T20:41:55Z</time>
      </trkpt>
      <trkpt lat="44.27453" lon="6.3518">
        <ele>1171</ele>
        <time>2022-06-08T20:42:10Z</time>
      </trkpt>
      <trkpt lat="44.27483" lon="6.35211">
        <ele>1171</ele>
        <time>2022-06-08T20:42:18Z</time>
      </trkpt>
      <trkpt lat="44.27516" lon="6.35234">
        <ele>1171</ele>
        <time>2022-06-08T20:42:27Z</time>
      </trkpt>
      <trkpt lat="44.27585" lon="6.3529">
        <ele>1174</ele>
        <time>2022-06-08T20:42:46Z</time>
      </trkpt>
      <trkpt lat="44.27616" lon="6.353">
        <ele>1176</ele>
        <time>2022-06-08T20:42:53Z</time>
      </trkpt>
      <trkpt lat="44.27644" lon="6.35278">
        <ele>1180</ele>
        <time>2022-06-08T20:43:01Z</time>
      </trkpt>
      <trkpt lat="44.27667" lon="6.35284">
        <ele>1182</ele>
        <time>2022-06-08T20:43:06Z</time>
      </trkpt>
      <trkpt lat="44.27768" lon="6.35369">
        <ele>1187</ele>
        <time>2022-06-08T20:43:34Z</time>
      </trkpt>
      <trkpt lat="44.27906" lon="6.35417">
        <ele>1185</ele>
        <time>2022-06-08T20:44:07Z</time>
      </trkpt>
      <trkpt lat="44.27942" lon="6.35443">
        <ele>1190</ele>
        <time>2022-06-08T20:44:16Z</time>
      </trkpt>
      <trkpt lat="44.27953" lon="6.35453">
        <ele>1191</ele>
        <time>2022-06-08T20:44:19Z</time>
      </trkpt>
      <trkpt lat="44.27968" lon="6.35476">
        <ele>1191</ele>
        <time>2022-06-08T20:44:25Z</time>
      </trkpt>
      <trkpt lat="44.28022" lon="6.3552">
        <ele>1195</ele>
        <time>2022-06-08T20:44:39Z</time>
      </trkpt>
      <trkpt lat="44.28047" lon="6.3556">
        <ele>1197</ele>
        <time>2022-06-08T20:44:48Z</time>
      </trkpt>
      <trkpt lat="44.2807" lon="6.35591">
        <ele>1195</ele>
        <time>2022-06-08T20:44:55Z</time>
      </trkpt>
      <trkpt lat="44.28103" lon="6.35655">
        <ele>1201</ele>
        <time>2022-06-08T20:45:09Z</time>
      </trkpt>
      <trkpt lat="44.28104" lon="6.35661">
        <ele>1201</ele>
        <time>2022-06-08T20:45:10Z</time>
      </trkpt>
      <trkpt lat="44.28111" lon="6.3565">
        <ele>1202</ele>
        <time>2022-06-08T20:45:12Z</time>
      </trkpt>
      <trkpt lat="44.2811" lon="6.35656">
        <ele>1202</ele>
        <time>2022-06-08T20:45:13Z</time>
      </trkpt>
      <trkpt lat="44.28142" lon="6.35708">
        <ele>1207</ele>
        <time>2022-06-08T20:45:25Z</time>
      </trkpt>
      <trkpt lat="44.282" lon="6.35738">
        <ele>1212</ele>
        <time>2022-06-08T20:45:39Z</time>
      </trkpt>
      <trkpt lat="44.28218" lon="6.35744">
        <ele>1212</ele>
        <time>2022-06-08T20:45:43Z</time>
      </trkpt>
      <trkpt lat="44.28242" lon="6.35767">
        <ele>1215</ele>
        <time>2022-06-08T20:45:50Z</time>
      </trkpt>
      <trkpt lat="44.28293" lon="6.35804">
        <ele>1221</ele>
        <time>2022-06-08T20:46:04Z</time>
      </trkpt>
      <trkpt lat="44.28298" lon="6.35813">
        <ele>1220</ele>
        <time>2022-06-08T20:46:06Z</time>
      </trkpt>
      <trkpt lat="44.28319" lon="6.35836">
        <ele>1216</ele>
        <time>2022-06-08T20:46:12Z</time>
      </trkpt>
      <trkpt lat="44.28356" lon="6.35835">
        <ele>1218</ele>
        <time>2022-06-08T20:46:20Z</time>
      </trkpt>
      <trkpt lat="44.28375" lon="6.35862">
        <ele>1227</ele>
        <time>2022-06-08T20:46:27Z</time>
      </trkpt>
      <trkpt lat="44.28432" lon="6.35868">
        <ele>1234</ele>
        <time>2022-06-08T20:46:40Z</time>
      </trkpt>
      <trkpt lat="44.28484" lon="6.35903">
        <ele>1238</ele>
        <time>2022-06-08T20:46:54Z</time>
      </trkpt>
      <trkpt lat="44.28487" lon="6.35907">
        <ele>1237</ele>
        <time>2022-06-08T20:46:55Z</time>
      </trkpt>
      <trkpt lat="44.28501" lon="6.35977">
        <ele>1242</ele>
        <time>2022-06-08T20:47:07Z</time>
      </trkpt>
      <trkpt lat="44.28518" lon="6.36009">
        <ele>1249</ele>
        <time>2022-06-08T20:47:13Z</time>
      </trkpt>
      <trkpt lat="44.28538" lon="6.36032">
        <ele>1257</ele>
        <time>2022-06-08T20:47:19Z</time>
      </trkpt>
      <trkpt lat="44.2861" lon="6.36043">
        <ele>1256</ele>
        <time>2022-06-08T20:47:36Z</time>
      </trkpt>
      <trkpt lat="44.28626" lon="6.36031">
        <ele>1254</ele>
        <time>2022-06-08T20:47:41Z</time>
      </trkpt>
      <trkpt lat="44.28635" lon="6.36002">
        <ele>1248</ele>
        <time>2022-06-08T20:47:46Z</time>
      </trkpt>
      <trkpt lat="44.28639" lon="6.36007">
        <ele>1250</ele>
        <time>2022-06-08T20:47:47Z</time>
      </trkpt>
      <trkpt lat="44.2867" lon="6.35997">
        <ele>1252</ele>
        <time>2022-06-08T20:47:55Z</time>
      </trkpt>
      <trkpt lat="44.28698" lon="6.35998">
        <ele>1253</ele>
        <time>2022-06-08T20:48:01Z</time>
      </trkpt>
      <trkpt lat="44.28717" lon="6.35993">
        <ele>1256</ele>
        <time>2022-06-08T20:48:06Z</time>
      </trkpt>
      <trkpt lat="44.28743" lon="6.3599">
        <ele>1258</ele>
        <time>2022-06-08T20:48:12Z</time>
      </trkpt>
      <trkpt lat="44.28753" lon="6.36013">
        <ele>1257</ele>
        <time>2022-06-08T20:48:16Z</time>
      </trkpt>
      <trkpt lat="44.28761" lon="6.36041">
        <ele>1261</ele>
        <time>2022-06-08T20:48:21Z</time>
      </trkpt>
      <trkpt lat="44.2879" lon="6.36068">
        <ele>1261</ele>
        <time>2022-06-08T20:48:29Z</time>
      </trkpt>
      <trkpt lat="44.28816" lon="6.36073">
        <ele>1258</ele>
        <time>2022-06-08T20:48:35Z</time>
      </trkpt>
      <trkpt lat="44.28827" lon="6.36088">
        <ele>1255</ele>
        <time>2022-06-08T20:48:39Z</time>
      </trkpt>
      <trkpt lat="44.28881" lon="6.36142">
        <ele>1263</ele>
        <time>2022-06-08T20:48:55Z</time>
      </trkpt>
      <trkpt lat="44.28902" lon="6.36154">
        <ele>1260</ele>
        <time>2022-06-08T20:49:00Z</time>
      </trkpt>
      <trkpt lat="44.28931" lon="6.36166">
        <ele>1257</ele>
        <time>2022-06-08T20:49:07Z</time>
      </trkpt>
      <trkpt lat="44.28953" lon="6.36201">
        <ele>1265</ele>
        <time>2022-06-08T20:49:15Z</time>
      </trkpt>
      <trkpt lat="44.28983" lon="6.36299">
        <ele>1275</ele>
        <time>2022-06-08T20:49:33Z</time>
      </trkpt>
      <trkpt lat="44.28999" lon="6.36332">
        <ele>1271</ele>
        <time>2022-06-08T20:49:39Z</time>
      </trkpt>
      <trkpt lat="44.29017" lon="6.36362">
        <ele>1276</ele>
        <time>2022-06-08T20:49:46Z</time>
      </trkpt>
      <trkpt lat="44.29048" lon="6.36382">
        <ele>1277</ele>
        <time>2022-06-08T20:49:54Z</time>
      </trkpt>
      <trkpt lat="44.29085" lon="6.36387">
        <ele>1277</ele>
        <time>2022-06-08T20:50:02Z</time>
      </trkpt>
      <trkpt lat="44.29113" lon="6.36424">
        <ele>1276</ele>
        <time>2022-06-08T20:50:11Z</time>
      </trkpt>
      <trkpt lat="44.29163" lon="6.36546">
        <ele>1274</ele>
        <time>2022-06-08T20:50:35Z</time>
      </trkpt>
      <trkpt lat="44.29184" lon="6.36632">
        <ele>1280</ele>
        <time>2022-06-08T20:50:50Z</time>
      </trkpt>
      <trkpt lat="44.29202" lon="6.3667">
        <ele>1283</ele>
        <time>2022-06-08T20:50:58Z</time>
      </trkpt>
      <trkpt lat="44.29217" lon="6.36688">
        <ele>1287</ele>
        <time>2022-06-08T20:51:02Z</time>
      </trkpt>
      <trkpt lat="44.29235" lon="6.36699">
        <ele>1288</ele>
        <time>2022-06-08T20:51:07Z</time>
      </trkpt>
      <trkpt lat="44.29278" lon="6.36708">
        <ele>1293</ele>
        <time>2022-06-08T20:51:17Z</time>
      </trkpt>
      <trkpt lat="44.29323" lon="6.36773">
        <ele>1284</ele>
        <time>2022-06-08T20:51:32Z</time>
      </trkpt>
      <trkpt lat="44.29414" lon="6.36776">
        <ele>1291</ele>
        <time>2022-06-08T20:51:53Z</time>
      </trkpt>
      <trkpt lat="44.29442" lon="6.36765">
        <ele>1295</ele>
        <time>2022-06-08T20:52:00Z</time>
      </trkpt>
      <trkpt lat="44.29462" lon="6.36766">
        <ele>1296</ele>
        <time>2022-06-08T20:52:05Z</time>
      </trkpt>
      <trkpt lat="44.29489" lon="6.36763">
        <ele>1299</ele>
        <time>2022-06-08T20:52:11Z</time>
      </trkpt>
      <trkpt lat="44.29509" lon="6.3674">
        <ele>1299</ele>
        <time>2022-06-08T20:52:17Z</time>
      </trkpt>
      <trkpt lat="44.29521" lon="6.3673">
        <ele>1300</ele>
        <time>2022-06-08T20:52:21Z</time>
      </trkpt>
      <trkpt lat="44.29526" lon="6.36723">
        <ele>1300</ele>
        <time>2022-06-08T20:52:22Z</time>
      </trkpt>
      <trkpt lat="44.29527" lon="6.36711">
        <ele>1301</ele>
        <time>2022-06-08T20:52:24Z</time>
      </trkpt>
      <trkpt lat="44.29533" lon="6.36705">
        <ele>1301</ele>
        <time>2022-06-08T20:52:26Z</time>
      </trkpt>
      <trkpt lat="44.29541" lon="6.36702">
        <ele>1300</ele>
        <time>2022-06-08T20:52:28Z</time>
      </trkpt>
      <trkpt lat="44.29554" lon="6.36686">
        <ele>1298</ele>
        <time>2022-06-08T20:52:32Z</time>
      </trkpt>
      <trkpt lat="44.29579" lon="6.36689">
        <ele>1293</ele>
        <time>2022-06-08T20:52:38Z</time>
      </trkpt>
      <trkpt lat="44.29582" lon="6.36693">
        <ele>1293</ele>
        <time>2022-06-08T20:52:39Z</time>
      </trkpt>
      <trkpt lat="44.29587" lon="6.3669">
        <ele>1292</ele>
        <time>2022-06-08T20:52:40Z</time>
      </trkpt>
      <trkpt lat="44.2959" lon="6.36684">
        <ele>1292</ele>
        <time>2022-06-08T20:52:41Z</time>
      </trkpt>
      <trkpt lat="44.29636" lon="6.3665">
        <ele>1298</ele>
        <time>2022-06-08T20:52:53Z</time>
      </trkpt>
      <trkpt lat="44.2965" lon="6.36635">
        <ele>1302</ele>
        <time>2022-06-08T20:52:57Z</time>
      </trkpt>
      <trkpt lat="44.29661" lon="6.36638">
        <ele>1301</ele>
        <time>2022-06-08T20:53:00Z</time>
      </trkpt>
      <trkpt lat="44.2967" lon="6.36636">
        <ele>1301</ele>
        <time>2022-06-08T20:53:02Z</time>
      </trkpt>
      <trkpt lat="44.29689" lon="6.36641">
        <ele>1301</ele>
        <time>2022-06-08T20:53:07Z</time>
      </trkpt>
      <trkpt lat="44.29698" lon="6.36647">
        <ele>1300</ele>
        <time>2022-06-08T20:53:09Z</time>
      </trkpt>
      <trkpt lat="44.29716" lon="6.36653">
        <ele>1300</ele>
        <time>2022-06-08T20:53:13Z</time>
      </trkpt>
      <trkpt lat="44.29736" lon="6.36654">
        <ele>1301</ele>
        <time>2022-06-08T20:53:18Z</time>
      </trkpt>
      <trkpt lat="44.29741" lon="6.36658">
        <ele>1301</ele>
        <time>2022-06-08T20:53:19Z</time>
      </trkpt>
      <trkpt lat="44.29776" lon="6.36665">
        <ele>1305</ele>
        <time>2022-06-08T20:53:28Z</time>
      </trkpt>
      <trkpt lat="44.29788" lon="6.36652">
        <ele>1306</ele>
        <time>2022-06-08T20:53:31Z</time>
      </trkpt>
      <trkpt lat="44.29806" lon="6.36653">
        <ele>1308</ele>
        <time>2022-06-08T20:53:35Z</time>
      </trkpt>
      <trkpt lat="44.29817" lon="6.3665">
        <ele>1309</ele>
        <time>2022-06-08T20:53:38Z</time>
      </trkpt>
      <trkpt lat="44.29855" lon="6.36652">
        <ele>1316</ele>
        <time>2022-06-08T20:53:47Z</time>
      </trkpt>
      <trkpt lat="44.29887" lon="6.36638">
        <ele>1320</ele>
        <time>2022-06-08T20:53:55Z</time>
      </trkpt>
      <trkpt lat="44.29927" lon="6.36628">
        <ele>1325</ele>
        <time>2022-06-08T20:54:04Z</time>
      </trkpt>
      <trkpt lat="44.29968" lon="6.36588">
        <ele>1322</ele>
        <time>2022-06-08T20:54:16Z</time>
      </trkpt>
      <trkpt lat="44.29991" lon="6.36557">
        <ele>1319</ele>
        <time>2022-06-08T20:54:23Z</time>
      </trkpt>
      <trkpt lat="44.30039" lon="6.36531">
        <ele>1319</ele>
        <time>2022-06-08T20:54:35Z</time>
      </trkpt>
      <trkpt lat="44.30053" lon="6.36513">
        <ele>1317</ele>
        <time>2022-06-08T20:54:40Z</time>
      </trkpt>
      <trkpt lat="44.30058" lon="6.36512">
        <ele>1317</ele>
        <time>2022-06-08T20:54:41Z</time>
      </trkpt>
      <trkpt lat="44.30072" lon="6.365">
        <ele>1317</ele>
        <time>2022-06-08T20:54:45Z</time>
      </trkpt>
      <trkpt lat="44.30081" lon="6.36489">
        <ele>1318</ele>
        <time>2022-06-08T20:54:48Z</time>
      </trkpt>
      <trkpt lat="44.30088" lon="6.36466">
        <ele>1319</ele>
        <time>2022-06-08T20:54:52Z</time>
      </trkpt>
      <trkpt lat="44.30088" lon="6.36453">
        <ele>1319</ele>
        <time>2022-06-08T20:54:54Z</time>
      </trkpt>
      <trkpt lat="44.30093" lon="6.36444">
        <ele>1320</ele>
        <time>2022-06-08T20:54:56Z</time>
      </trkpt>
      <trkpt lat="44.30098" lon="6.36443">
        <ele>1321</ele>
        <time>2022-06-08T20:54:57Z</time>
      </trkpt>
      <trkpt lat="44.30116" lon="6.36428">
        <ele>1324</ele>
        <time>2022-06-08T20:55:02Z</time>
      </trkpt>
      <trkpt lat="44.3013" lon="6.36423">
        <ele>1326</ele>
        <time>2022-06-08T20:55:05Z</time>
      </trkpt>
      <trkpt lat="44.30151" lon="6.36421">
        <ele>1330</ele>
        <time>2022-06-08T20:55:10Z</time>
      </trkpt>
      <trkpt lat="44.30196" lon="6.36381">
        <ele>1335</ele>
        <time>2022-06-08T20:55:23Z</time>
      </trkpt>
      <trkpt lat="44.30208" lon="6.36376">
        <ele>1336</ele>
        <time>2022-06-08T20:55:26Z</time>
      </trkpt>
      <trkpt lat="44.30227" lon="6.36361">
        <ele>1336</ele>
        <time>2022-06-08T20:55:31Z</time>
      </trkpt>
      <trkpt lat="44.30238" lon="6.3636">
        <ele>1337</ele>
        <time>2022-06-08T20:55:33Z</time>
      </trkpt>
      <trkpt lat="44.30281" lon="6.36329">
        <ele>1335</ele>
        <time>2022-06-08T20:55:45Z</time>
      </trkpt>
      <trkpt lat="44.30304" lon="6.36316">
        <ele>1338</ele>
        <time>2022-06-08T20:55:50Z</time>
      </trkpt>
      <trkpt lat="44.30327" lon="6.36309">
        <ele>1339</ele>
        <time>2022-06-08T20:55:56Z</time>
      </trkpt>
      <trkpt lat="44.30357" lon="6.36308">
        <ele>1340</ele>
        <time>2022-06-08T20:56:03Z</time>
      </trkpt>
      <trkpt lat="44.30375" lon="6.36313">
        <ele>1340</ele>
        <time>2022-06-08T20:56:07Z</time>
      </trkpt>
      <trkpt lat="44.30406" lon="6.36306">
        <ele>1342</ele>
        <time>2022-06-08T20:56:15Z</time>
      </trkpt>
      <trkpt lat="44.30409" lon="6.36309">
        <ele>1342</ele>
        <time>2022-06-08T20:56:15Z</time>
      </trkpt>
      <trkpt lat="44.30416" lon="6.3631">
        <ele>1342</ele>
        <time>2022-06-08T20:56:17Z</time>
      </trkpt>
      <trkpt lat="44.30422" lon="6.36308">
        <ele>1342</ele>
        <time>2022-06-08T20:56:18Z</time>
      </trkpt>
      <trkpt lat="44.30451" lon="6.3632">
        <ele>1342</ele>
        <time>2022-06-08T20:56:26Z</time>
      </trkpt>
      <trkpt lat="44.30463" lon="6.36321">
        <ele>1343</ele>
        <time>2022-06-08T20:56:28Z</time>
      </trkpt>
      <trkpt lat="44.30473" lon="6.36305">
        <ele>1344</ele>
        <time>2022-06-08T20:56:32Z</time>
      </trkpt>
      <trkpt lat="44.30478" lon="6.3629">
        <ele>1345</ele>
        <time>2022-06-08T20:56:35Z</time>
      </trkpt>
      <trkpt lat="44.30488" lon="6.3628">
        <ele>1345</ele>
        <time>2022-06-08T20:56:38Z</time>
      </trkpt>
      <trkpt lat="44.30506" lon="6.36269">
        <ele>1346</ele>
        <time>2022-06-08T20:56:42Z</time>
      </trkpt>
      <trkpt lat="44.30561" lon="6.36287">
        <ele>1352</ele>
        <time>2022-06-08T20:56:55Z</time>
      </trkpt>
      <trkpt lat="44.30575" lon="6.36295">
        <ele>1354</ele>
        <time>2022-06-08T20:56:59Z</time>
      </trkpt>
      <trkpt lat="44.30617" lon="6.36296">
        <ele>1359</ele>
        <time>2022-06-08T20:57:09Z</time>
      </trkpt>
      <trkpt lat="44.30653" lon="6.36277">
        <ele>1362</ele>
        <time>2022-06-08T20:57:18Z</time>
      </trkpt>
      <trkpt lat="44.30668" lon="6.36275">
        <ele>1363</ele>
        <time>2022-06-08T20:57:21Z</time>
      </trkpt>
      <trkpt lat="44.30677" lon="6.36268">
        <ele>1363</ele>
        <time>2022-06-08T20:57:24Z</time>
      </trkpt>
      <trkpt lat="44.30697" lon="6.36241">
        <ele>1364</ele>
        <time>2022-06-08T20:57:30Z</time>
      </trkpt>
      <trkpt lat="44.30716" lon="6.36227">
        <ele>1366</ele>
        <time>2022-06-08T20:57:35Z</time>
      </trkpt>
      <trkpt lat="44.3072" lon="6.3622">
        <ele>1367</ele>
        <time>2022-06-08T20:57:37Z</time>
      </trkpt>
      <trkpt lat="44.30731" lon="6.36211">
        <ele>1367</ele>
        <time>2022-06-08T20:57:40Z</time>
      </trkpt>
      <trkpt lat="44.30733" lon="6.36203">
        <ele>1368</ele>
        <time>2022-06-08T20:57:41Z</time>
      </trkpt>
      <trkpt lat="44.30759" lon="6.36207">
        <ele>1369</ele>
        <time>2022-06-08T20:57:47Z</time>
      </trkpt>
      <trkpt lat="44.30765" lon="6.36206">
        <ele>1370</ele>
        <time>2022-06-08T20:57:49Z</time>
      </trkpt>
      <trkpt lat="44.30771" lon="6.3621">
        <ele>1371</ele>
        <time>2022-06-08T20:57:50Z</time>
      </trkpt>
      <trkpt lat="44.30782" lon="6.36198">
        <ele>1372</ele>
        <time>2022-06-08T20:57:53Z</time>
      </trkpt>
      <trkpt lat="44.30786" lon="6.36187">
        <ele>1372</ele>
        <time>2022-06-08T20:57:55Z</time>
      </trkpt>
      <trkpt lat="44.30805" lon="6.36181">
        <ele>1374</ele>
        <time>2022-06-08T20:58:00Z</time>
      </trkpt>
      <trkpt lat="44.30816" lon="6.36184">
        <ele>1375</ele>
        <time>2022-06-08T20:58:03Z</time>
      </trkpt>
      <trkpt lat="44.30829" lon="6.36183">
        <ele>1376</ele>
        <time>2022-06-08T20:58:06Z</time>
      </trkpt>
      <trkpt lat="44.30843" lon="6.36175">
        <ele>1378</ele>
        <time>2022-06-08T20:58:09Z</time>
      </trkpt>
      <trkpt lat="44.30854" lon="6.36161">
        <ele>1379</ele>
        <time>2022-06-08T20:58:13Z</time>
      </trkpt>
      <trkpt lat="44.30882" lon="6.36168">
        <ele>1380</ele>
        <time>2022-06-08T20:58:19Z</time>
      </trkpt>
      <trkpt lat="44.30903" lon="6.36168">
        <ele>1382</ele>
        <time>2022-06-08T20:58:24Z</time>
      </trkpt>
      <trkpt lat="44.30937" lon="6.3618">
        <ele>1383</ele>
        <time>2022-06-08T20:58:32Z</time>
      </trkpt>
      <trkpt lat="44.30965" lon="6.36175">
        <ele>1385</ele>
        <time>2022-06-08T20:58:39Z</time>
      </trkpt>
      <trkpt lat="44.31029" lon="6.36174">
        <ele>1387</ele>
        <time>2022-06-08T20:58:54Z</time>
      </trkpt>
      <trkpt lat="44.31051" lon="6.36179">
        <ele>1388</ele>
        <time>2022-06-08T20:58:59Z</time>
      </trkpt>
      <trkpt lat="44.31071" lon="6.36188">
        <ele>1388</ele>
        <time>2022-06-08T20:59:04Z</time>
      </trkpt>
      <trkpt lat="44.31074" lon="6.36185">
        <ele>1388</ele>
        <time>2022-06-08T20:59:05Z</time>
      </trkpt>
      <trkpt lat="44.31168" lon="6.36193">
        <ele>1396</ele>
        <time>2022-06-08T20:59:27Z</time>
      </trkpt>
      <trkpt lat="44.31189" lon="6.36192">
        <ele>1397</ele>
        <time>2022-06-08T20:59:32Z</time>
      </trkpt>
      <trkpt lat="44.31212" lon="6.36179">
        <ele>1399</ele>
        <time>2022-06-08T20:59:38Z</time>
      </trkpt>
      <trkpt lat="44.31225" lon="6.36168">
        <ele>1400</ele>
        <time>2022-06-08T20:59:41Z</time>
      </trkpt>
      <trkpt lat="44.31241" lon="6.36148">
        <ele>1402</ele>
        <time>2022-06-08T20:59:46Z</time>
      </trkpt>
      <trkpt lat="44.31261" lon="6.36145">
        <ele>1403</ele>
        <time>2022-06-08T20:59:51Z</time>
      </trkpt>
      <trkpt lat="44.31285" lon="6.36146">
        <ele>1404</ele>
        <time>2022-06-08T20:59:56Z</time>
      </trkpt>
      <trkpt lat="44.31303" lon="6.36155">
        <ele>1404</ele>
        <time>2022-06-08T21:00:01Z</time>
      </trkpt>
      <trkpt lat="44.31309" lon="6.36161">
        <ele>1405</ele>
        <time>2022-06-08T21:00:03Z</time>
      </trkpt>
      <trkpt lat="44.31326" lon="6.36187">
        <ele>1407</ele>
        <time>2022-06-08T21:00:08Z</time>
      </trkpt>
      <trkpt lat="44.31337" lon="6.36198">
        <ele>1408</ele>
        <time>2022-06-08T21:00:12Z</time>
      </trkpt>
      <trkpt lat="44.31351" lon="6.36206">
        <ele>1409</ele>
        <time>2022-06-08T21:00:15Z</time>
      </trkpt>
      <trkpt lat="44.31399" lon="6.36243">
        <ele>1416</ele>
        <time>2022-06-08T21:00:28Z</time>
      </trkpt>
      <trkpt lat="44.31426" lon="6.36246">
        <ele>1417</ele>
        <time>2022-06-08T21:00:34Z</time>
      </trkpt>
      <trkpt lat="44.31459" lon="6.36244">
        <ele>1415</ele>
        <time>2022-06-08T21:00:42Z</time>
      </trkpt>
      <trkpt lat="44.31471" lon="6.36249">
        <ele>1415</ele>
        <time>2022-06-08T21:00:45Z</time>
      </trkpt>
      <trkpt lat="44.31475" lon="6.36248">
        <ele>1414</ele>
        <time>2022-06-08T21:00:46Z</time>
      </trkpt>
      <trkpt lat="44.31479" lon="6.36237">
        <ele>1414</ele>
        <time>2022-06-08T21:00:48Z</time>
      </trkpt>
      <trkpt lat="44.31478" lon="6.36206">
        <ele>1414</ele>
        <time>2022-06-08T21:00:53Z</time>
      </trkpt>
      <trkpt lat="44.31489" lon="6.36192">
        <ele>1414</ele>
        <time>2022-06-08T21:00:57Z</time>
      </trkpt>
      <trkpt lat="44.31503" lon="6.36186">
        <ele>1414</ele>
        <time>2022-06-08T21:01:00Z</time>
      </trkpt>
      <trkpt lat="44.31533" lon="6.36185">
        <ele>1410</ele>
        <time>2022-06-08T21:01:07Z</time>
      </trkpt>
      <trkpt lat="44.31574" lon="6.36178">
        <ele>1404</ele>
        <time>2022-06-08T21:01:17Z</time>
      </trkpt>
      <trkpt lat="44.31579" lon="6.36175">
        <ele>1404</ele>
        <time>2022-06-08T21:01:18Z</time>
      </trkpt>
      <trkpt lat="44.31592" lon="6.36159">
        <ele>1404</ele>
        <time>2022-06-08T21:01:22Z</time>
      </trkpt>
      <trkpt lat="44.31604" lon="6.36119">
        <ele>1406</ele>
        <time>2022-06-08T21:01:29Z</time>
      </trkpt>
      <trkpt lat="44.31608" lon="6.36111">
        <ele>1406</ele>
        <time>2022-06-08T21:01:31Z</time>
      </trkpt>
      <trkpt lat="44.31613" lon="6.36107">
        <ele>1406</ele>
        <time>2022-06-08T21:01:32Z</time>
      </trkpt>
      <trkpt lat="44.31632" lon="6.36104">
        <ele>1403</ele>
        <time>2022-06-08T21:01:37Z</time>
      </trkpt>
      <trkpt lat="44.31645" lon="6.36105">
        <ele>1401</ele>
        <time>2022-06-08T21:01:40Z</time>
      </trkpt>
      <trkpt lat="44.31681" lon="6.36115">
        <ele>1395</ele>
        <time>2022-06-08T21:01:48Z</time>
      </trkpt>
      <trkpt lat="44.3174" lon="6.36114">
        <ele>1388</ele>
        <time>2022-06-08T21:02:02Z</time>
      </trkpt>
      <trkpt lat="44.31762" lon="6.36108">
        <ele>1386</ele>
        <time>2022-06-08T21:02:07Z</time>
      </trkpt>
      <trkpt lat="44.31767" lon="6.36102">
        <ele>1386</ele>
        <time>2022-06-08T21:02:09Z</time>
      </trkpt>
      <trkpt lat="44.31787" lon="6.36089">
        <ele>1384</ele>
        <time>2022-06-08T21:02:14Z</time>
      </trkpt>
      <trkpt lat="44.31791" lon="6.36091">
        <ele>1383</ele>
        <time>2022-06-08T21:02:15Z</time>
      </trkpt>
      <trkpt lat="44.31794" lon="6.36102">
        <ele>1381</ele>
        <time>2022-06-08T21:02:17Z</time>
      </trkpt>
      <trkpt lat="44.31765" lon="6.36179">
        <ele>1378</ele>
        <time>2022-06-08T21:02:31Z</time>
      </trkpt>
      <trkpt lat="44.31763" lon="6.36197">
        <ele>1376</ele>
        <time>2022-06-08T21:02:35Z</time>
      </trkpt>
      <trkpt lat="44.31767" lon="6.36211">
        <ele>1374</ele>
        <time>2022-06-08T21:02:37Z</time>
      </trkpt>
      <trkpt lat="44.31775" lon="6.36215">
        <ele>1373</ele>
        <time>2022-06-08T21:02:39Z</time>
      </trkpt>
      <trkpt lat="44.31787" lon="6.36211">
        <ele>1372</ele>
        <time>2022-06-08T21:02:42Z</time>
      </trkpt>
      <trkpt lat="44.31808" lon="6.36198">
        <ele>1371</ele>
        <time>2022-06-08T21:02:47Z</time>
      </trkpt>
      <trkpt lat="44.31825" lon="6.36198">
        <ele>1368</ele>
        <time>2022-06-08T21:02:51Z</time>
      </trkpt>
      <trkpt lat="44.31849" lon="6.36192">
        <ele>1365</ele>
        <time>2022-06-08T21:02:57Z</time>
      </trkpt>
      <trkpt lat="44.31892" lon="6.36161">
        <ele>1359</ele>
        <time>2022-06-08T21:03:08Z</time>
      </trkpt>
      <trkpt lat="44.3189" lon="6.3619">
        <ele>1359</ele>
        <time>2022-06-08T21:03:13Z</time>
      </trkpt>
      <trkpt lat="44.3186" lon="6.3622">
        <ele>1362</ele>
        <time>2022-06-08T21:03:22Z</time>
      </trkpt>
      <trkpt lat="44.3184" lon="6.3625">
        <ele>1362</ele>
        <time>2022-06-08T21:03:29Z</time>
      </trkpt>
      <trkpt lat="44.31824" lon="6.36261">
        <ele>1365</ele>
        <time>2022-06-08T21:03:33Z</time>
      </trkpt>
      <trkpt lat="44.31825" lon="6.36281">
        <ele>1366</ele>
        <time>2022-06-08T21:03:36Z</time>
      </trkpt>
      <trkpt lat="44.31829" lon="6.36285">
        <ele>1366</ele>
        <time>2022-06-08T21:03:37Z</time>
      </trkpt>
      <trkpt lat="44.31836" lon="6.36285">
        <ele>1366</ele>
        <time>2022-06-08T21:03:39Z</time>
      </trkpt>
      <trkpt lat="44.31846" lon="6.36298">
        <ele>1367</ele>
        <time>2022-06-08T21:03:42Z</time>
      </trkpt>
      <trkpt lat="44.31853" lon="6.36315">
        <ele>1368</ele>
        <time>2022-06-08T21:03:45Z</time>
      </trkpt>
      <trkpt lat="44.31856" lon="6.36317">
        <ele>1368</ele>
        <time>2022-06-08T21:03:46Z</time>
      </trkpt>
      <trkpt lat="44.31865" lon="6.36312">
        <ele>1367</ele>
        <time>2022-06-08T21:03:48Z</time>
      </trkpt>
      <trkpt lat="44.31866" lon="6.36307">
        <ele>1367</ele>
        <time>2022-06-08T21:03:49Z</time>
      </trkpt>
      <trkpt lat="44.3189" lon="6.36302">
        <ele>1365</ele>
        <time>2022-06-08T21:03:55Z</time>
      </trkpt>
      <trkpt lat="44.31909" lon="6.36301">
        <ele>1364</ele>
        <time>2022-06-08T21:03:59Z</time>
      </trkpt>
      <trkpt lat="44.31917" lon="6.36305">
        <ele>1365</ele>
        <time>2022-06-08T21:04:01Z</time>
      </trkpt>
      <trkpt lat="44.31932" lon="6.36322">
        <ele>1368</ele>
        <time>2022-06-08T21:04:06Z</time>
      </trkpt>
      <trkpt lat="44.31938" lon="6.36322">
        <ele>1368</ele>
        <time>2022-06-08T21:04:07Z</time>
      </trkpt>
      <trkpt lat="44.31948" lon="6.36317">
        <ele>1367</ele>
        <time>2022-06-08T21:04:10Z</time>
      </trkpt>
      <trkpt lat="44.31966" lon="6.36316">
        <ele>1367</ele>
        <time>2022-06-08T21:04:14Z</time>
      </trkpt>
      <trkpt lat="44.3197" lon="6.36322">
        <ele>1369</ele>
        <time>2022-06-08T21:04:15Z</time>
      </trkpt>
      <trkpt lat="44.3197" lon="6.36328">
        <ele>1370</ele>
        <time>2022-06-08T21:04:16Z</time>
      </trkpt>
      <trkpt lat="44.31966" lon="6.36333">
        <ele>1371</ele>
        <time>2022-06-08T21:04:18Z</time>
      </trkpt>
      <trkpt lat="44.31942" lon="6.36344">
        <ele>1372</ele>
        <time>2022-06-08T21:04:23Z</time>
      </trkpt>
      <trkpt lat="44.31935" lon="6.36345">
        <ele>1372</ele>
        <time>2022-06-08T21:04:25Z</time>
      </trkpt>
      <trkpt lat="44.31923" lon="6.36339">
        <ele>1371</ele>
        <time>2022-06-08T21:04:28Z</time>
      </trkpt>
      <trkpt lat="44.31913" lon="6.36339">
        <ele>1371</ele>
        <time>2022-06-08T21:04:30Z</time>
      </trkpt>
      <trkpt lat="44.31891" lon="6.36353">
        <ele>1373</ele>
        <time>2022-06-08T21:04:36Z</time>
      </trkpt>
      <trkpt lat="44.31883" lon="6.36392">
        <ele>1379</ele>
        <time>2022-06-08T21:04:43Z</time>
      </trkpt>
      <trkpt lat="44.31887" lon="6.364">
        <ele>1380</ele>
        <time>2022-06-08T21:04:44Z</time>
      </trkpt>
      <trkpt lat="44.31892" lon="6.364">
        <ele>1380</ele>
        <time>2022-06-08T21:04:46Z</time>
      </trkpt>
      <trkpt lat="44.31896" lon="6.36394">
        <ele>1379</ele>
        <time>2022-06-08T21:04:47Z</time>
      </trkpt>
      <trkpt lat="44.319" lon="6.36393">
        <ele>1379</ele>
        <time>2022-06-08T21:04:48Z</time>
      </trkpt>
      <trkpt lat="44.31908" lon="6.36396">
        <ele>1380</ele>
        <time>2022-06-08T21:04:50Z</time>
      </trkpt>
      <trkpt lat="44.31919" lon="6.36414">
        <ele>1383</ele>
        <time>2022-06-08T21:04:54Z</time>
      </trkpt>
      <trkpt lat="44.31916" lon="6.36425">
        <ele>1384</ele>
        <time>2022-06-08T21:04:56Z</time>
      </trkpt>
      <trkpt lat="44.31911" lon="6.36432">
        <ele>1385</ele>
        <time>2022-06-08T21:04:57Z</time>
      </trkpt>
      <trkpt lat="44.31898" lon="6.36471">
        <ele>1390</ele>
        <time>2022-06-08T21:05:05Z</time>
      </trkpt>
      <trkpt lat="44.31885" lon="6.36484">
        <ele>1392</ele>
        <time>2022-06-08T21:05:08Z</time>
      </trkpt>
      <trkpt lat="44.31883" lon="6.36491">
        <ele>1393</ele>
        <time>2022-06-08T21:05:10Z</time>
      </trkpt>
      <trkpt lat="44.31869" lon="6.3651">
        <ele>1396</ele>
        <time>2022-06-08T21:05:14Z</time>
      </trkpt>
      <trkpt lat="44.31863" lon="6.36511">
        <ele>1396</ele>
        <time>2022-06-08T21:05:16Z</time>
      </trkpt>
      <trkpt lat="44.3185" lon="6.36504">
        <ele>1395</ele>
        <time>2022-06-08T21:05:19Z</time>
      </trkpt>
      <trkpt lat="44.3184" lon="6.36511">
        <ele>1396</ele>
        <time>2022-06-08T21:05:21Z</time>
      </trkpt>
      <trkpt lat="44.31831" lon="6.36529">
        <ele>1398</ele>
        <time>2022-06-08T21:05:25Z</time>
      </trkpt>
      <trkpt lat="44.31823" lon="6.36581">
        <ele>1403</ele>
        <time>2022-06-08T21:05:34Z</time>
      </trkpt>
      <trkpt lat="44.31827" lon="6.36582">
        <ele>1403</ele>
        <time>2022-06-08T21:05:35Z</time>
      </trkpt>
      <trkpt lat="44.31835" lon="6.36571">
        <ele>1402</ele>
        <time>2022-06-08T21:05:38Z</time>
      </trkpt>
      <trkpt lat="44.3184" lon="6.36575">
        <ele>1403</ele>
        <time>2022-06-08T21:05:39Z</time>
      </trkpt>
      <trkpt lat="44.31845" lon="6.36575">
        <ele>1403</ele>
        <time>2022-06-08T21:05:40Z</time>
      </trkpt>
      <trkpt lat="44.31871" lon="6.36559">
        <ele>1403</ele>
        <time>2022-06-08T21:05:47Z</time>
      </trkpt>
      <trkpt lat="44.31893" lon="6.36569">
        <ele>1406</ele>
        <time>2022-06-08T21:05:52Z</time>
      </trkpt>
      <trkpt lat="44.31914" lon="6.36571">
        <ele>1407</ele>
        <time>2022-06-08T21:05:57Z</time>
      </trkpt>
      <trkpt lat="44.3193" lon="6.36556">
        <ele>1406</ele>
        <time>2022-06-08T21:06:02Z</time>
      </trkpt>
      <trkpt lat="44.31933" lon="6.3655">
        <ele>1405</ele>
        <time>2022-06-08T21:06:03Z</time>
      </trkpt>
      <trkpt lat="44.31953" lon="6.36537">
        <ele>1405</ele>
        <time>2022-06-08T21:06:08Z</time>
      </trkpt>
      <trkpt lat="44.31979" lon="6.36529">
        <ele>1407</ele>
        <time>2022-06-08T21:06:14Z</time>
      </trkpt>
      <trkpt lat="44.31998" lon="6.36519">
        <ele>1408</ele>
        <time>2022-06-08T21:06:19Z</time>
      </trkpt>
      <trkpt lat="44.32016" lon="6.36501">
        <ele>1402</ele>
        <time>2022-06-08T21:06:24Z</time>
      </trkpt>
      <trkpt lat="44.32021" lon="6.36501">
        <ele>1402</ele>
        <time>2022-06-08T21:06:25Z</time>
      </trkpt>
      <trkpt lat="44.32027" lon="6.36505">
        <ele>1401</ele>
        <time>2022-06-08T21:06:27Z</time>
      </trkpt>
      <trkpt lat="44.32032" lon="6.36531">
        <ele>1405</ele>
        <time>2022-06-08T21:06:31Z</time>
      </trkpt>
      <trkpt lat="44.32029" lon="6.36549">
        <ele>1409</ele>
        <time>2022-06-08T21:06:34Z</time>
      </trkpt>
      <trkpt lat="44.32037" lon="6.3658">
        <ele>1414</ele>
        <time>2022-06-08T21:06:40Z</time>
      </trkpt>
      <trkpt lat="44.32037" lon="6.36614">
        <ele>1421</ele>
        <time>2022-06-08T21:06:46Z</time>
      </trkpt>
      <trkpt lat="44.32041" lon="6.36634">
        <ele>1425</ele>
        <time>2022-06-08T21:06:49Z</time>
      </trkpt>
      <trkpt lat="44.32059" lon="6.36655">
        <ele>1429</ele>
        <time>2022-06-08T21:06:55Z</time>
      </trkpt>
      <trkpt lat="44.32087" lon="6.36654">
        <ele>1428</ele>
        <time>2022-06-08T21:07:01Z</time>
      </trkpt>
      <trkpt lat="44.32099" lon="6.36663">
        <ele>1430</ele>
        <time>2022-06-08T21:07:04Z</time>
      </trkpt>
      <trkpt lat="44.32099" lon="6.36666">
        <ele>1431</ele>
        <time>2022-06-08T21:07:05Z</time>
      </trkpt>
      <trkpt lat="44.32109" lon="6.36673">
        <ele>1432</ele>
        <time>2022-06-08T21:07:07Z</time>
      </trkpt>
      <trkpt lat="44.32117" lon="6.36702">
        <ele>1440</ele>
        <time>2022-06-08T21:07:13Z</time>
      </trkpt>
      <trkpt lat="44.32123" lon="6.36712">
        <ele>1443</ele>
        <time>2022-06-08T21:07:15Z</time>
      </trkpt>
      <trkpt lat="44.32132" lon="6.36712">
        <ele>1442</ele>
        <time>2022-06-08T21:07:17Z</time>
      </trkpt>
      <trkpt lat="44.32139" lon="6.36702">
        <ele>1439</ele>
        <time>2022-06-08T21:07:19Z</time>
      </trkpt>
      <trkpt lat="44.32167" lon="6.36687">
        <ele>1433</ele>
        <time>2022-06-08T21:07:26Z</time>
      </trkpt>
      <trkpt lat="44.32186" lon="6.36671">
        <ele>1430</ele>
        <time>2022-06-08T21:07:31Z</time>
      </trkpt>
      <trkpt lat="44.32214" lon="6.36663">
        <ele>1432</ele>
        <time>2022-06-08T21:07:38Z</time>
      </trkpt>
      <trkpt lat="44.32244" lon="6.3667">
        <ele>1438</ele>
        <time>2022-06-08T21:07:45Z</time>
      </trkpt>
      <trkpt lat="44.32299" lon="6.36674">
        <ele>1441</ele>
        <time>2022-06-08T21:07:58Z</time>
      </trkpt>
      <trkpt lat="44.3234" lon="6.36702">
        <ele>1451</ele>
        <time>2022-06-08T21:08:09Z</time>
      </trkpt>
      <trkpt lat="44.32365" lon="6.36677">
        <ele>1444</ele>
        <time>2022-06-08T21:08:16Z</time>
      </trkpt>
      <trkpt lat="44.32402" lon="6.3668">
        <ele>1446</ele>
        <time>2022-06-08T21:08:24Z</time>
      </trkpt>
      <trkpt lat="44.32432" lon="6.36693">
        <ele>1449</ele>
        <time>2022-06-08T21:08:32Z</time>
      </trkpt>
      <trkpt lat="44.32451" lon="6.36717">
        <ele>1453</ele>
        <time>2022-06-08T21:08:38Z</time>
      </trkpt>
      <trkpt lat="44.32447" lon="6.36707">
        <ele>1451</ele>
        <time>2022-06-08T21:08:40Z</time>
      </trkpt>
      <trkpt lat="44.32437" lon="6.36696">
        <ele>1449</ele>
        <time>2022-06-08T21:08:43Z</time>
      </trkpt>
      <trkpt lat="44.32413" lon="6.36685">
        <ele>1448</ele>
        <time>2022-06-08T21:08:49Z</time>
      </trkpt>
      <trkpt lat="44.32368" lon="6.36678">
        <ele>1444</ele>
        <time>2022-06-08T21:08:59Z</time>
      </trkpt>
      <trkpt lat="44.32363" lon="6.36679">
        <ele>1444</ele>
        <time>2022-06-08T21:09:00Z</time>
      </trkpt>
      <trkpt lat="44.32348" lon="6.36699">
        <ele>1450</ele>
        <time>2022-06-08T21:09:05Z</time>
      </trkpt>
      <trkpt lat="44.32342" lon="6.36705">
        <ele>1452</ele>
        <time>2022-06-08T21:09:07Z</time>
      </trkpt>
      <trkpt lat="44.32338" lon="6.36705">
        <ele>1452</ele>
        <time>2022-06-08T21:09:08Z</time>
      </trkpt>
      <trkpt lat="44.32324" lon="6.36691">
        <ele>1447</ele>
        <time>2022-06-08T21:09:12Z</time>
      </trkpt>
      <trkpt lat="44.32295" lon="6.36675">
        <ele>1441</ele>
        <time>2022-06-08T21:09:19Z</time>
      </trkpt>
      <trkpt lat="44.32276" lon="6.36673">
        <ele>1440</ele>
        <time>2022-06-08T21:09:24Z</time>
      </trkpt>
      <trkpt lat="44.32278" lon="6.3667">
        <ele>1439</ele>
        <time>2022-06-08T21:09:24Z</time>
      </trkpt>
      <trkpt lat="44.32276" lon="6.36676">
        <ele>1441</ele>
        <time>2022-06-08T21:09:25Z</time>
      </trkpt>
      <trkpt lat="44.32278" lon="6.36676">
        <ele>1441</ele>
        <time>2022-06-08T21:09:26Z</time>
      </trkpt>
      <trkpt lat="44.32283" lon="6.36663">
        <ele>1438</ele>
        <time>2022-06-08T21:09:28Z</time>
      </trkpt>
      <trkpt lat="44.32289" lon="6.36634">
        <ele>1431</ele>
        <time>2022-06-08T21:09:33Z</time>
      </trkpt>
      <trkpt lat="44.32313" lon="6.36568">
        <ele>1417</ele>
        <time>2022-06-08T21:09:46Z</time>
      </trkpt>
      <trkpt lat="44.32363" lon="6.36453">
        <ele>1397</ele>
        <time>2022-06-08T21:10:08Z</time>
      </trkpt>
      <trkpt lat="44.32363" lon="6.36439">
        <ele>1395</ele>
        <time>2022-06-08T21:10:11Z</time>
      </trkpt>
      <trkpt lat="44.32371" lon="6.36433">
        <ele>1394</ele>
        <time>2022-06-08T21:10:13Z</time>
      </trkpt>
      <trkpt lat="44.32379" lon="6.36422">
        <ele>1392</ele>
        <time>2022-06-08T21:10:15Z</time>
      </trkpt>
      <trkpt lat="44.32403" lon="6.36402">
        <ele>1389</ele>
        <time>2022-06-08T21:10:22Z</time>
      </trkpt>
      <trkpt lat="44.32446" lon="6.36341">
        <ele>1387</ele>
        <time>2022-06-08T21:10:36Z</time>
      </trkpt>
      <trkpt lat="44.32473" lon="6.36273">
        <ele>1383</ele>
        <time>2022-06-08T21:10:49Z</time>
      </trkpt>
      <trkpt lat="44.32512" lon="6.3622">
        <ele>1377</ele>
        <time>2022-06-08T21:11:02Z</time>
      </trkpt>
      <trkpt lat="44.32514" lon="6.36211">
        <ele>1376</ele>
        <time>2022-06-08T21:11:03Z</time>
      </trkpt>
      <trkpt lat="44.32529" lon="6.36181">
        <ele>1371</ele>
        <time>2022-06-08T21:11:09Z</time>
      </trkpt>
      <trkpt lat="44.32569" lon="6.36142">
        <ele>1365</ele>
        <time>2022-06-08T21:11:21Z</time>
      </trkpt>
      <trkpt lat="44.32581" lon="6.36091">
        <ele>1359</ele>
        <time>2022-06-08T21:11:30Z</time>
      </trkpt>
      <trkpt lat="44.32589" lon="6.36079">
        <ele>1355</ele>
        <time>2022-06-08T21:11:33Z</time>
      </trkpt>
      <trkpt lat="44.32596" lon="6.36073">
        <ele>1352</ele>
        <time>2022-06-08T21:11:35Z</time>
      </trkpt>
      <trkpt lat="44.32604" lon="6.36071">
        <ele>1350</ele>
        <time>2022-06-08T21:11:36Z</time>
      </trkpt>
      <trkpt lat="44.326" lon="6.36062">
        <ele>1348</ele>
        <time>2022-06-08T21:11:38Z</time>
      </trkpt>
      <trkpt lat="44.32601" lon="6.36059">
        <ele>1347</ele>
        <time>2022-06-08T21:11:39Z</time>
      </trkpt>
      <trkpt lat="44.32643" lon="6.36012">
        <ele>1334</ele>
        <time>2022-06-08T21:11:51Z</time>
      </trkpt>
      <trkpt lat="44.32657" lon="6.3601">
        <ele>1335</ele>
        <time>2022-06-08T21:11:55Z</time>
      </trkpt>
      <trkpt lat="44.32667" lon="6.35998">
        <ele>1333</ele>
        <time>2022-06-08T21:11:58Z</time>
      </trkpt>
      <trkpt lat="44.32669" lon="6.35991">
        <ele>1331</ele>
        <time>2022-06-08T21:11:59Z</time>
      </trkpt>
      <trkpt lat="44.32678" lon="6.35984">
        <ele>1327</ele>
        <time>2022-06-08T21:12:01Z</time>
      </trkpt>
      <trkpt lat="44.32688" lon="6.35981">
        <ele>1324</ele>
        <time>2022-06-08T21:12:04Z</time>
      </trkpt>
      <trkpt lat="44.32691" lon="6.35977">
        <ele>1322</ele>
        <time>2022-06-08T21:12:05Z</time>
      </trkpt>
      <trkpt lat="44.32698" lon="6.35979">
        <ele>1322</ele>
        <time>2022-06-08T21:12:06Z</time>
      </trkpt>
      <trkpt lat="44.32709" lon="6.35975">
        <ele>1319</ele>
        <time>2022-06-08T21:12:09Z</time>
      </trkpt>
      <trkpt lat="44.32739" lon="6.35947">
        <ele>1312</ele>
        <time>2022-06-08T21:12:17Z</time>
      </trkpt>
      <trkpt lat="44.32759" lon="6.35938">
        <ele>1309</ele>
        <time>2022-06-08T21:12:22Z</time>
      </trkpt>
      <trkpt lat="44.32773" lon="6.35928">
        <ele>1306</ele>
        <time>2022-06-08T21:12:26Z</time>
      </trkpt>
      <trkpt lat="44.328" lon="6.35921">
        <ele>1300</ele>
        <time>2022-06-08T21:12:32Z</time>
      </trkpt>
      <trkpt lat="44.3281" lon="6.35915">
        <ele>1298</ele>
        <time>2022-06-08T21:12:35Z</time>
      </trkpt>
      <trkpt lat="44.32822" lon="6.35899">
        <ele>1294</ele>
        <time>2022-06-08T21:12:39Z</time>
      </trkpt>
      <trkpt lat="44.32829" lon="6.35882">
        <ele>1290</ele>
        <time>2022-06-08T21:12:42Z</time>
      </trkpt>
      <trkpt lat="44.32833" lon="6.35863">
        <ele>1287</ele>
        <time>2022-06-08T21:12:45Z</time>
      </trkpt>
      <trkpt lat="44.32847" lon="6.35842">
        <ele>1280</ele>
        <time>2022-06-08T21:12:50Z</time>
      </trkpt>
      <trkpt lat="44.32879" lon="6.35812">
        <ele>1265</ele>
        <time>2022-06-08T21:12:59Z</time>
      </trkpt>
      <trkpt lat="44.32888" lon="6.35811">
        <ele>1263</ele>
        <time>2022-06-08T21:13:01Z</time>
      </trkpt>
      <trkpt lat="44.32889" lon="6.35775">
        <ele>1256</ele>
        <time>2022-06-08T21:13:07Z</time>
      </trkpt>
      <trkpt lat="44.32894" lon="6.35753">
        <ele>1251</ele>
        <time>2022-06-08T21:13:11Z</time>
      </trkpt>
      <trkpt lat="44.32901" lon="6.35743">
        <ele>1249</ele>
        <time>2022-06-08T21:13:14Z</time>
      </trkpt>
      <trkpt lat="44.329" lon="6.35714">
        <ele>1242</ele>
        <time>2022-06-08T21:13:18Z</time>
      </trkpt>
      <trkpt lat="44.32912" lon="6.35675">
        <ele>1232</ele>
        <time>2022-06-08T21:13:25Z</time>
      </trkpt>
      <trkpt lat="44.3292" lon="6.35679">
        <ele>1233</ele>
        <time>2022-06-08T21:13:27Z</time>
      </trkpt>
      <trkpt lat="44.32982" lon="6.35677">
        <ele>1228</ele>
        <time>2022-06-08T21:13:42Z</time>
      </trkpt>
      <trkpt lat="44.33015" lon="6.35668">
        <ele>1224</ele>
        <time>2022-06-08T21:13:50Z</time>
      </trkpt>
      <trkpt lat="44.33064" lon="6.35643">
        <ele>1216</ele>
        <time>2022-06-08T21:14:02Z</time>
      </trkpt>
      <trkpt lat="44.33076" lon="6.35643">
        <ele>1215</ele>
        <time>2022-06-08T21:14:05Z</time>
      </trkpt>
      <trkpt lat="44.33105" lon="6.35649">
        <ele>1210</ele>
        <time>2022-06-08T21:14:12Z</time>
      </trkpt>
      <trkpt lat="44.33136" lon="6.35659">
        <ele>1204</ele>
        <time>2022-06-08T21:14:19Z</time>
      </trkpt>
      <trkpt lat="44.33169" lon="6.35652">
        <ele>1199</ele>
        <time>2022-06-08T21:14:27Z</time>
      </trkpt>
      <trkpt lat="44.33191" lon="6.35644">
        <ele>1196</ele>
        <time>2022-06-08T21:14:32Z</time>
      </trkpt>
      <trkpt lat="44.33215" lon="6.35625">
        <ele>1194</ele>
        <time>2022-06-08T21:14:39Z</time>
      </trkpt>
      <trkpt lat="44.33229" lon="6.3562">
        <ele>1192</ele>
        <time>2022-06-08T21:14:42Z</time>
      </trkpt>
      <trkpt lat="44.33262" lon="6.35633">
        <ele>1187</ele>
        <time>2022-06-08T21:14:50Z</time>
      </trkpt>
      <trkpt lat="44.33355" lon="6.35643">
        <ele>1176</ele>
        <time>2022-06-08T21:15:12Z</time>
      </trkpt>
      <trkpt lat="44.33381" lon="6.3565">
        <ele>1175</ele>
        <time>2022-06-08T21:15:18Z</time>
      </trkpt>
      <trkpt lat="44.33396" lon="6.35663">
        <ele>1174</ele>
        <time>2022-06-08T21:15:22Z</time>
      </trkpt>
      <trkpt lat="44.33404" lon="6.35675">
        <ele>1174</ele>
        <time>2022-06-08T21:15:25Z</time>
      </trkpt>
      <trkpt lat="44.3341" lon="6.35692">
        <ele>1174</ele>
        <time>2022-06-08T21:15:28Z</time>
      </trkpt>
      <trkpt lat="44.3345" lon="6.35744">
        <ele>1171</ele>
        <time>2022-06-08T21:15:41Z</time>
      </trkpt>
      <trkpt lat="44.33546" lon="6.3576">
        <ele>1167</ele>
        <time>2022-06-08T21:16:03Z</time>
      </trkpt>
      <trkpt lat="44.33593" lon="6.35772">
        <ele>1165</ele>
        <time>2022-06-08T21:16:14Z</time>
      </trkpt>
      <trkpt lat="44.33614" lon="6.35782">
        <ele>1165</ele>
        <time>2022-06-08T21:16:20Z</time>
      </trkpt>
      <trkpt lat="44.33631" lon="6.35787">
        <ele>1164</ele>
        <time>2022-06-08T21:16:24Z</time>
      </trkpt>
      <trkpt lat="44.33658" lon="6.35789">
        <ele>1163</ele>
        <time>2022-06-08T21:16:30Z</time>
      </trkpt>
      <trkpt lat="44.3368" lon="6.35795">
        <ele>1162</ele>
        <time>2022-06-08T21:16:35Z</time>
      </trkpt>
      <trkpt lat="44.33681" lon="6.35791">
        <ele>1162</ele>
        <time>2022-06-08T21:16:36Z</time>
      </trkpt>
      <trkpt lat="44.3368" lon="6.35795">
        <ele>1162</ele>
        <time>2022-06-08T21:16:37Z</time>
      </trkpt>
      <trkpt lat="44.3368" lon="6.35793">
        <ele>1162</ele>
        <time>2022-06-08T21:16:37Z</time>
      </trkpt>
      <trkpt lat="44.33711" lon="6.35803">
        <ele>1162</ele>
        <time>2022-06-08T21:16:44Z</time>
      </trkpt>
      <trkpt lat="44.33743" lon="6.35808">
        <ele>1162</ele>
        <time>2022-06-08T21:16:52Z</time>
      </trkpt>
      <trkpt lat="44.33777" lon="6.3581">
        <ele>1161</ele>
        <time>2022-06-08T21:17:00Z</time>
      </trkpt>
      <trkpt lat="44.33879" lon="6.35827">
        <ele>1157</ele>
        <time>2022-06-08T21:17:24Z</time>
      </trkpt>
      <trkpt lat="44.33956" lon="6.35847">
        <ele>1156</ele>
        <time>2022-06-08T21:17:42Z</time>
      </trkpt>
      <trkpt lat="44.33967" lon="6.35855">
        <ele>1156</ele>
        <time>2022-06-08T21:17:45Z</time>
      </trkpt>
      <trkpt lat="44.33989" lon="6.35889">
        <ele>1158</ele>
        <time>2022-06-08T21:17:53Z</time>
      </trkpt>
      <trkpt lat="44.3401" lon="6.35912">
        <ele>1159</ele>
        <time>2022-06-08T21:17:59Z</time>
      </trkpt>
      <trkpt lat="44.34043" lon="6.35918">
        <ele>1161</ele>
        <time>2022-06-08T21:18:07Z</time>
      </trkpt>
      <trkpt lat="44.34081" lon="6.35913">
        <ele>1162</ele>
        <time>2022-06-08T21:18:16Z</time>
      </trkpt>
      <trkpt lat="44.34118" lon="6.35903">
        <ele>1162</ele>
        <time>2022-06-08T21:18:24Z</time>
      </trkpt>
      <trkpt lat="44.34181" lon="6.35913">
        <ele>1164</ele>
        <time>2022-06-08T21:18:39Z</time>
      </trkpt>
      <trkpt lat="44.34218" lon="6.35922">
        <ele>1162</ele>
        <time>2022-06-08T21:18:48Z</time>
      </trkpt>
      <trkpt lat="44.34252" lon="6.3594">
        <ele>1159</ele>
        <time>2022-06-08T21:18:57Z</time>
      </trkpt>
      <trkpt lat="44.34298" lon="6.35952">
        <ele>1158</ele>
        <time>2022-06-08T21:19:07Z</time>
      </trkpt>
      <trkpt lat="44.3433" lon="6.35956">
        <ele>1157</ele>
        <time>2022-06-08T21:19:15Z</time>
      </trkpt>
      <trkpt lat="44.3436" lon="6.35974">
        <ele>1157</ele>
        <time>2022-06-08T21:19:23Z</time>
      </trkpt>
      <trkpt lat="44.34364" lon="6.35974">
        <ele>1157</ele>
        <time>2022-06-08T21:19:23Z</time>
      </trkpt>
      <trkpt lat="44.34372" lon="6.35967">
        <ele>1157</ele>
        <time>2022-06-08T21:19:26Z</time>
      </trkpt>
      <trkpt lat="44.34378" lon="6.35957">
        <ele>1158</ele>
        <time>2022-06-08T21:19:28Z</time>
      </trkpt>
      <trkpt lat="44.34404" lon="6.35883">
        <ele>1158</ele>
        <time>2022-06-08T21:19:42Z</time>
      </trkpt>
      <trkpt lat="44.34407" lon="6.35882">
        <ele>1158</ele>
        <time>2022-06-08T21:19:42Z</time>
      </trkpt>
      <trkpt lat="44.34436" lon="6.35898">
        <ele>1158</ele>
        <time>2022-06-08T21:19:50Z</time>
      </trkpt>
      <trkpt lat="44.34438" lon="6.35896">
        <ele>1158</ele>
        <time>2022-06-08T21:19:50Z</time>
      </trkpt>
      <trkpt lat="44.34504" lon="6.35893">
        <ele>1156</ele>
        <time>2022-06-08T21:20:06Z</time>
      </trkpt>
      <trkpt lat="44.34557" lon="6.35885">
        <ele>1156</ele>
        <time>2022-06-08T21:20:18Z</time>
      </trkpt>
      <trkpt lat="44.34597" lon="6.35885">
        <ele>1156</ele>
        <time>2022-06-08T21:20:27Z</time>
      </trkpt>
      <trkpt lat="44.34708" lon="6.35927">
        <ele>1156</ele>
        <time>2022-06-08T21:20:54Z</time>
      </trkpt>
      <trkpt lat="44.34755" lon="6.35924">
        <ele>1156</ele>
        <time>2022-06-08T21:21:05Z</time>
      </trkpt>
      <trkpt lat="44.34798" lon="6.35914">
        <ele>1159</ele>
        <time>2022-06-08T21:21:15Z</time>
      </trkpt>
      <trkpt lat="44.34834" lon="6.35917">
        <ele>1162</ele>
        <time>2022-06-08T21:21:24Z</time>
      </trkpt>
      <trkpt lat="44.34851" lon="6.35923">
        <ele>1163</ele>
        <time>2022-06-08T21:21:28Z</time>
      </trkpt>
      <trkpt lat="44.34887" lon="6.35929">
        <ele>1165</ele>
        <time>2022-06-08T21:21:36Z</time>
      </trkpt>
      <trkpt lat="44.34915" lon="6.35905">
        <ele>1165</ele>
        <time>2022-06-08T21:21:44Z</time>
      </trkpt>
      <trkpt lat="44.34968" lon="6.35784">
        <ele>1170</ele>
        <time>2022-06-08T21:22:08Z</time>
      </trkpt>
      <trkpt lat="44.34982" lon="6.35729">
        <ele>1176</ele>
        <time>2022-06-08T21:22:18Z</time>
      </trkpt>
      <trkpt lat="44.34996" lon="6.35694">
        <ele>1184</ele>
        <time>2022-06-08T21:22:24Z</time>
      </trkpt>
      <trkpt lat="44.3499" lon="6.35671">
        <ele>1186</ele>
        <time>2022-06-08T21:22:28Z</time>
      </trkpt>
      <trkpt lat="44.34984" lon="6.35658">
        <ele>1185</ele>
        <time>2022-06-08T21:22:31Z</time>
      </trkpt>
      <trkpt lat="44.34993" lon="6.3566">
        <ele>1188</ele>
        <time>2022-06-08T21:22:33Z</time>
      </trkpt>
      <trkpt lat="44.35018" lon="6.35689">
        <ele>1187</ele>
        <time>2022-06-08T21:22:41Z</time>
      </trkpt>
      <trkpt lat="44.35028" lon="6.35689">
        <ele>1189</ele>
        <time>2022-06-08T21:22:43Z</time>
      </trkpt>
      <trkpt lat="44.35126" lon="6.3564">
        <ele>1201</ele>
        <time>2022-06-08T21:23:07Z</time>
      </trkpt>
      <trkpt lat="44.35129" lon="6.35641">
        <ele>1201</ele>
        <time>2022-06-08T21:23:08Z</time>
      </trkpt>
      <trkpt lat="44.35131" lon="6.35629">
        <ele>1203</ele>
        <time>2022-06-08T21:23:10Z</time>
      </trkpt>
      <trkpt lat="44.35149" lon="6.35589">
        <ele>1208</ele>
        <time>2022-06-08T21:23:18Z</time>
      </trkpt>
      <trkpt lat="44.35142" lon="6.35591">
        <ele>1208</ele>
        <time>2022-06-08T21:23:20Z</time>
      </trkpt>
      <trkpt lat="44.3514" lon="6.35589">
        <ele>1208</ele>
        <time>2022-06-08T21:23:20Z</time>
      </trkpt>
      <trkpt lat="44.35154" lon="6.35593">
        <ele>1208</ele>
        <time>2022-06-08T21:23:24Z</time>
      </trkpt>
      <trkpt lat="44.35146" lon="6.35586">
        <ele>1209</ele>
        <time>2022-06-08T21:23:26Z</time>
      </trkpt>
      <trkpt lat="44.35148" lon="6.35585">
        <ele>1209</ele>
        <time>2022-06-08T21:23:26Z</time>
      </trkpt>
      <trkpt lat="44.35148" lon="6.35591">
        <ele>1208</ele>
        <time>2022-06-08T21:23:27Z</time>
      </trkpt>
      <trkpt lat="44.35152" lon="6.35589">
        <ele>1208</ele>
        <time>2022-06-08T21:23:28Z</time>
      </trkpt>
      <trkpt lat="44.35139" lon="6.35591">
        <ele>1208</ele>
        <time>2022-06-08T21:23:31Z</time>
      </trkpt>
      <trkpt lat="44.35136" lon="6.35584">
        <ele>1209</ele>
        <time>2022-06-08T21:23:33Z</time>
      </trkpt>
      <trkpt lat="44.35137" lon="6.35589">
        <ele>1208</ele>
        <time>2022-06-08T21:23:34Z</time>
      </trkpt>
      <trkpt lat="44.35151" lon="6.35596">
        <ele>1207</ele>
        <time>2022-06-08T21:23:37Z</time>
      </trkpt>
      <trkpt lat="44.35189" lon="6.35607">
        <ele>1207</ele>
        <time>2022-06-08T21:23:46Z</time>
      </trkpt>
      <trkpt lat="44.35191" lon="6.35613">
        <ele>1206</ele>
        <time>2022-06-08T21:23:47Z</time>
      </trkpt>
      <trkpt lat="44.35201" lon="6.35615">
        <ele>1206</ele>
        <time>2022-06-08T21:23:50Z</time>
      </trkpt>
      <trkpt lat="44.35215" lon="6.35633">
        <ele>1205</ele>
        <time>2022-06-08T21:23:54Z</time>
      </trkpt>
      <trkpt lat="44.35215" lon="6.3564">
        <ele>1204</ele>
        <time>2022-06-08T21:23:55Z</time>
      </trkpt>
      <trkpt lat="44.35212" lon="6.35646">
        <ele>1203</ele>
        <time>2022-06-08T21:23:56Z</time>
      </trkpt>
      <trkpt lat="44.35214" lon="6.35634">
        <ele>1205</ele>
        <time>2022-06-08T21:23:58Z</time>
      </trkpt>
      <trkpt lat="44.3521" lon="6.35631">
        <ele>1205</ele>
        <time>2022-06-08T21:23:59Z</time>
      </trkpt>
      <trkpt lat="44.35214" lon="6.35628">
        <ele>1205</ele>
        <time>2022-06-08T21:24:01Z</time>
      </trkpt>
      <trkpt lat="44.35214" lon="6.35639">
        <ele>1204</ele>
        <time>2022-06-08T21:24:02Z</time>
      </trkpt>
      <trkpt lat="44.35222" lon="6.35643">
        <ele>1204</ele>
        <time>2022-06-08T21:24:04Z</time>
      </trkpt>
      <trkpt lat="44.3522" lon="6.35645">
        <ele>1204</ele>
        <time>2022-06-08T21:24:05Z</time>
      </trkpt>
      <trkpt lat="44.35221" lon="6.35632">
        <ele>1205</ele>
        <time>2022-06-08T21:24:07Z</time>
      </trkpt>
      <trkpt lat="44.35225" lon="6.35638">
        <ele>1205</ele>
        <time>2022-06-08T21:24:08Z</time>
      </trkpt>
      <trkpt lat="44.35221" lon="6.3564">
        <ele>1204</ele>
        <time>2022-06-08T21:24:09Z</time>
      </trkpt>
      <trkpt lat="44.35217" lon="6.35635">
        <ele>1205</ele>
        <time>2022-06-08T21:24:11Z</time>
      </trkpt>
      <trkpt lat="44.35219" lon="6.35642">
        <ele>1204</ele>
        <time>2022-06-08T21:24:12Z</time>
      </trkpt>
      <trkpt lat="44.35216" lon="6.3564">
        <ele>1204</ele>
        <time>2022-06-08T21:24:13Z</time>
      </trkpt>
      <trkpt lat="44.35217" lon="6.35637">
        <ele>1204</ele>
        <time>2022-06-08T21:24:13Z</time>
      </trkpt>
      <trkpt lat="44.35217" lon="6.35639">
        <ele>1204</ele>
        <time>2022-06-08T21:24:14Z</time>
      </trkpt>
      <trkpt lat="44.35219" lon="6.35637">
        <ele>1205</ele>
        <time>2022-06-08T21:24:14Z</time>
      </trkpt>
      <trkpt lat="44.35217" lon="6.35643">
        <ele>1204</ele>
        <time>2022-06-08T21:24:15Z</time>
      </trkpt>
      <trkpt lat="44.35215" lon="6.35637">
        <ele>1204</ele>
        <time>2022-06-08T21:24:16Z</time>
      </trkpt>
      <trkpt lat="44.35215" lon="6.3564">
        <ele>1204</ele>
        <time>2022-06-08T21:24:17Z</time>
      </trkpt>
      <trkpt lat="44.35216" lon="6.35635">
        <ele>1205</ele>
        <time>2022-06-08T21:24:18Z</time>
      </trkpt>
      <trkpt lat="44.35215" lon="6.35637">
        <ele>1204</ele>
        <time>2022-06-08T21:24:18Z</time>
      </trkpt>
      <trkpt lat="44.3521" lon="6.35637">
        <ele>1204</ele>
        <time>2022-06-08T21:24:19Z</time>
      </trkpt>
      <trkpt lat="44.35215" lon="6.35639">
        <ele>1204</ele>
        <time>2022-06-08T21:24:21Z</time>
      </trkpt>
      <trkpt lat="44.35213" lon="6.35634">
        <ele>1205</ele>
        <time>2022-06-08T21:24:22Z</time>
      </trkpt>
      <trkpt lat="44.35212" lon="6.35639">
        <ele>1204</ele>
        <time>2022-06-08T21:24:22Z</time>
      </trkpt>
      <trkpt lat="44.35216" lon="6.35637">
        <ele>1204</ele>
        <time>2022-06-08T21:24:23Z</time>
      </trkpt>
      <trkpt lat="44.35217" lon="6.3564">
        <ele>1204</ele>
        <time>2022-06-08T21:24:24Z</time>
      </trkpt>
      <trkpt lat="44.35217" lon="6.35636">
        <ele>1205</ele>
        <time>2022-06-08T21:24:25Z</time>
      </trkpt>
      <trkpt lat="44.35216" lon="6.35639">
        <ele>1204</ele>
        <time>2022-06-08T21:24:25Z</time>
      </trkpt>
      <trkpt lat="44.35223" lon="6.35643">
        <ele>1204</ele>
        <time>2022-06-08T21:24:27Z</time>
      </trkpt>
      <trkpt lat="44.35238" lon="6.35671">
        <ele>1203</ele>
        <time>2022-06-08T21:24:33Z</time>
      </trkpt>
      <trkpt lat="44.35238" lon="6.35716">
        <ele>1204</ele>
        <time>2022-06-08T21:24:40Z</time>
      </trkpt>
      <trkpt lat="44.35144" lon="6.35897">
        <ele>1202</ele>
        <time>2022-06-08T21:25:18Z</time>
      </trkpt>
      <trkpt lat="44.35109" lon="6.35981">
        <ele>1200</ele>
        <time>2022-06-08T21:25:34Z</time>
      </trkpt>
      <trkpt lat="44.35111" lon="6.36014">
        <ele>1201</ele>
        <time>2022-06-08T21:25:39Z</time>
      </trkpt>
      <trkpt lat="44.35128" lon="6.36114">
        <ele>1203</ele>
        <time>2022-06-08T21:25:57Z</time>
      </trkpt>
      <trkpt lat="44.35125" lon="6.36133">
        <ele>1203</ele>
        <time>2022-06-08T21:26:00Z</time>
      </trkpt>
      <trkpt lat="44.35092" lon="6.36188">
        <ele>1199</ele>
        <time>2022-06-08T21:26:12Z</time>
      </trkpt>
      <trkpt lat="44.35088" lon="6.36207">
        <ele>1199</ele>
        <time>2022-06-08T21:26:15Z</time>
      </trkpt>
      <trkpt lat="44.35087" lon="6.36226">
        <ele>1199</ele>
        <time>2022-06-08T21:26:18Z</time>
      </trkpt>
      <trkpt lat="44.35101" lon="6.36347">
        <ele>1210</ele>
        <time>2022-06-08T21:26:39Z</time>
      </trkpt>
      <trkpt lat="44.35097" lon="6.36366">
        <ele>1211</ele>
        <time>2022-06-08T21:26:42Z</time>
      </trkpt>
      <trkpt lat="44.35087" lon="6.36381">
        <ele>1211</ele>
        <time>2022-06-08T21:26:46Z</time>
      </trkpt>
      <trkpt lat="44.35079" lon="6.36387">
        <ele>1211</ele>
        <time>2022-06-08T21:26:48Z</time>
      </trkpt>
      <trkpt lat="44.35072" lon="6.36389">
        <ele>1210</ele>
        <time>2022-06-08T21:26:49Z</time>
      </trkpt>
      <trkpt lat="44.35061" lon="6.36388">
        <ele>1209</ele>
        <time>2022-06-08T21:26:52Z</time>
      </trkpt>
      <trkpt lat="44.35059" lon="6.3639">
        <ele>1209</ele>
        <time>2022-06-08T21:26:52Z</time>
      </trkpt>
      <trkpt lat="44.35061" lon="6.36394">
        <ele>1209</ele>
        <time>2022-06-08T21:26:53Z</time>
      </trkpt>
      <trkpt lat="44.35082" lon="6.36397">
        <ele>1212</ele>
        <time>2022-06-08T21:26:58Z</time>
      </trkpt>
      <trkpt lat="44.35097" lon="6.36427">
        <ele>1219</ele>
        <time>2022-06-08T21:27:04Z</time>
      </trkpt>
      <trkpt lat="44.3512" lon="6.36446">
        <ele>1225</ele>
        <time>2022-06-08T21:27:11Z</time>
      </trkpt>
      <trkpt lat="44.3514" lon="6.36468">
        <ele>1229</ele>
        <time>2022-06-08T21:27:16Z</time>
      </trkpt>
      <trkpt lat="44.35149" lon="6.36504">
        <ele>1233</ele>
        <time>2022-06-08T21:27:23Z</time>
      </trkpt>
      <trkpt lat="44.35157" lon="6.36512">
        <ele>1233</ele>
        <time>2022-06-08T21:27:25Z</time>
      </trkpt>
      <trkpt lat="44.35167" lon="6.36517">
        <ele>1233</ele>
        <time>2022-06-08T21:27:28Z</time>
      </trkpt>
      <trkpt lat="44.3517" lon="6.36515">
        <ele>1233</ele>
        <time>2022-06-08T21:27:28Z</time>
      </trkpt>
      <trkpt lat="44.35169" lon="6.36512">
        <ele>1233</ele>
        <time>2022-06-08T21:27:29Z</time>
      </trkpt>
      <trkpt lat="44.35173" lon="6.36512">
        <ele>1233</ele>
        <time>2022-06-08T21:27:30Z</time>
      </trkpt>
      <trkpt lat="44.35173" lon="6.36515">
        <ele>1234</ele>
        <time>2022-06-08T21:27:30Z</time>
      </trkpt>
      <trkpt lat="44.3517" lon="6.36508">
        <ele>1232</ele>
        <time>2022-06-08T21:27:32Z</time>
      </trkpt>
      <trkpt lat="44.35172" lon="6.36505">
        <ele>1232</ele>
        <time>2022-06-08T21:27:32Z</time>
      </trkpt>
      <trkpt lat="44.3517" lon="6.36508">
        <ele>1232</ele>
        <time>2022-06-08T21:27:33Z</time>
      </trkpt>
      <trkpt lat="44.35155" lon="6.36508">
        <ele>1233</ele>
        <time>2022-06-08T21:27:37Z</time>
      </trkpt>
      <trkpt lat="44.35149" lon="6.36497">
        <ele>1232</ele>
        <time>2022-06-08T21:27:39Z</time>
      </trkpt>
      <trkpt lat="44.35138" lon="6.36451">
        <ele>1226</ele>
        <time>2022-06-08T21:27:47Z</time>
      </trkpt>
      <trkpt lat="44.35132" lon="6.36447">
        <ele>1226</ele>
        <time>2022-06-08T21:27:49Z</time>
      </trkpt>
      <trkpt lat="44.35138" lon="6.36453">
        <ele>1227</ele>
        <time>2022-06-08T21:27:50Z</time>
      </trkpt>
      <trkpt lat="44.35139" lon="6.36467">
        <ele>1229</ele>
        <time>2022-06-08T21:27:53Z</time>
      </trkpt>
      <trkpt lat="44.35156" lon="6.36504">
        <ele>1232</ele>
        <time>2022-06-08T21:28:00Z</time>
      </trkpt>
      <trkpt lat="44.35155" lon="6.3651">
        <ele>1233</ele>
        <time>2022-06-08T21:28:01Z</time>
      </trkpt>
      <trkpt lat="44.35158" lon="6.36512">
        <ele>1233</ele>
        <time>2022-06-08T21:28:02Z</time>
      </trkpt>
      <trkpt lat="44.35152" lon="6.36504">
        <ele>1232</ele>
        <time>2022-06-08T21:28:04Z</time>
      </trkpt>
      <trkpt lat="44.35155" lon="6.36498">
        <ele>1231</ele>
        <time>2022-06-08T21:28:05Z</time>
      </trkpt>
      <trkpt lat="44.35165" lon="6.36509">
        <ele>1232</ele>
        <time>2022-06-08T21:28:08Z</time>
      </trkpt>
      <trkpt lat="44.3518" lon="6.36509">
        <ele>1234</ele>
        <time>2022-06-08T21:28:11Z</time>
      </trkpt>
      <trkpt lat="44.35182" lon="6.36507">
        <ele>1234</ele>
        <time>2022-06-08T21:28:12Z</time>
      </trkpt>
      <trkpt lat="44.35182" lon="6.36518">
        <ele>1236</ele>
        <time>2022-06-08T21:28:14Z</time>
      </trkpt>
      <trkpt lat="44.35181" lon="6.36515">
        <ele>1235</ele>
        <time>2022-06-08T21:28:14Z</time>
      </trkpt>
      <trkpt lat="44.35184" lon="6.3651">
        <ele>1235</ele>
        <time>2022-06-08T21:28:15Z</time>
      </trkpt>
      <trkpt lat="44.35177" lon="6.36517">
        <ele>1235</ele>
        <time>2022-06-08T21:28:18Z</time>
      </trkpt>
      <trkpt lat="44.35174" lon="6.36517">
        <ele>1234</ele>
        <time>2022-06-08T21:28:18Z</time>
      </trkpt>
      <trkpt lat="44.35182" lon="6.36489">
        <ele>1233</ele>
        <time>2022-06-08T21:28:23Z</time>
      </trkpt>
      <trkpt lat="44.35183" lon="6.36479">
        <ele>1233</ele>
        <time>2022-06-08T21:28:25Z</time>
      </trkpt>
      <trkpt lat="44.35181" lon="6.36476">
        <ele>1232</ele>
        <time>2022-06-08T21:28:26Z</time>
      </trkpt>
      <trkpt lat="44.35181" lon="6.36491">
        <ele>1233</ele>
        <time>2022-06-08T21:28:28Z</time>
      </trkpt>
      <trkpt lat="44.35178" lon="6.36502">
        <ele>1233</ele>
        <time>2022-06-08T21:28:30Z</time>
      </trkpt>
      <trkpt lat="44.35174" lon="6.36507">
        <ele>1233</ele>
        <time>2022-06-08T21:28:31Z</time>
      </trkpt>
      <trkpt lat="44.35152" lon="6.36504">
        <ele>1232</ele>
        <time>2022-06-08T21:28:36Z</time>
      </trkpt>
      <trkpt lat="44.35147" lon="6.36494">
        <ele>1231</ele>
        <time>2022-06-08T21:28:39Z</time>
      </trkpt>
      <trkpt lat="44.35138" lon="6.3645">
        <ele>1226</ele>
        <time>2022-06-08T21:28:46Z</time>
      </trkpt>
      <trkpt lat="44.35101" lon="6.36428">
        <ele>1220</ele>
        <time>2022-06-08T21:28:56Z</time>
      </trkpt>
      <trkpt lat="44.35089" lon="6.36407">
        <ele>1215</ele>
        <time>2022-06-08T21:29:00Z</time>
      </trkpt>
      <trkpt lat="44.35086" lon="6.36394">
        <ele>1212</ele>
        <time>2022-06-08T21:29:02Z</time>
      </trkpt>
      <trkpt lat="44.35104" lon="6.36365">
        <ele>1213</ele>
        <time>2022-06-08T21:29:09Z</time>
      </trkpt>
      <trkpt lat="44.35106" lon="6.36354">
        <ele>1212</ele>
        <time>2022-06-08T21:29:11Z</time>
      </trkpt>
      <trkpt lat="44.35091" lon="6.36214">
        <ele>1200</ele>
        <time>2022-06-08T21:29:34Z</time>
      </trkpt>
      <trkpt lat="44.35098" lon="6.36187">
        <ele>1200</ele>
        <time>2022-06-08T21:29:39Z</time>
      </trkpt>
      <trkpt lat="44.35124" lon="6.36145">
        <ele>1203</ele>
        <time>2022-06-08T21:29:48Z</time>
      </trkpt>
      <trkpt lat="44.3513" lon="6.36127">
        <ele>1204</ele>
        <time>2022-06-08T21:29:52Z</time>
      </trkpt>
      <trkpt lat="44.35134" lon="6.36101">
        <ele>1204</ele>
        <time>2022-06-08T21:29:56Z</time>
      </trkpt>
      <trkpt lat="44.35143" lon="6.36072">
        <ele>1206</ele>
        <time>2022-06-08T21:30:01Z</time>
      </trkpt>
      <trkpt lat="44.35142" lon="6.3601">
        <ele>1207</ele>
        <time>2022-06-08T21:30:12Z</time>
      </trkpt>
      <trkpt lat="44.35155" lon="6.35968">
        <ele>1208</ele>
        <time>2022-06-08T21:30:19Z</time>
      </trkpt>
      <trkpt lat="44.35179" lon="6.35948">
        <ele>1212</ele>
        <time>2022-06-08T21:30:26Z</time>
      </trkpt>
      <trkpt lat="44.35198" lon="6.35906">
        <ele>1213</ele>
        <time>2022-06-08T21:30:34Z</time>
      </trkpt>
      <trkpt lat="44.35211" lon="6.3583">
        <ele>1206</ele>
        <time>2022-06-08T21:30:47Z</time>
      </trkpt>
      <trkpt lat="44.35211" lon="6.35774">
        <ele>1201</ele>
        <time>2022-06-08T21:30:57Z</time>
      </trkpt>
      <trkpt lat="44.35237" lon="6.35723">
        <ele>1204</ele>
        <time>2022-06-08T21:31:07Z</time>
      </trkpt>
      <trkpt lat="44.35244" lon="6.35697">
        <ele>1204</ele>
        <time>2022-06-08T21:31:12Z</time>
      </trkpt>
      <trkpt lat="44.35248" lon="6.35693">
        <ele>1204</ele>
        <time>2022-06-08T21:31:13Z</time>
      </trkpt>
      <trkpt lat="44.35261" lon="6.35693">
        <ele>1206</ele>
        <time>2022-06-08T21:31:16Z</time>
      </trkpt>
      <trkpt lat="44.35271" lon="6.35719">
        <ele>1208</ele>
        <time>2022-06-08T21:31:21Z</time>
      </trkpt>
      <trkpt lat="44.35257" lon="6.35756">
        <ele>1208</ele>
        <time>2022-06-08T21:31:28Z</time>
      </trkpt>
      <trkpt lat="44.35264" lon="6.35785">
        <ele>1211</ele>
        <time>2022-06-08T21:31:33Z</time>
      </trkpt>
      <trkpt lat="44.35253" lon="6.35855">
        <ele>1217</ele>
        <time>2022-06-08T21:31:45Z</time>
      </trkpt>
      <trkpt lat="44.35253" lon="6.35908">
        <ele>1223</ele>
        <time>2022-06-08T21:31:54Z</time>
      </trkpt>
      <trkpt lat="44.35258" lon="6.35962">
        <ele>1230</ele>
        <time>2022-06-08T21:32:03Z</time>
      </trkpt>
      <trkpt lat="44.35256" lon="6.35988">
        <ele>1232</ele>
        <time>2022-06-08T21:32:07Z</time>
      </trkpt>
      <trkpt lat="44.35257" lon="6.36118">
        <ele>1241</ele>
        <time>2022-06-08T21:32:29Z</time>
      </trkpt>
      <trkpt lat="44.35262" lon="6.36134">
        <ele>1244</ele>
        <time>2022-06-08T21:32:32Z</time>
      </trkpt>
      <trkpt lat="44.35277" lon="6.36155">
        <ele>1251</ele>
        <time>2022-06-08T21:32:37Z</time>
      </trkpt>
      <trkpt lat="44.3528" lon="6.36168">
        <ele>1253</ele>
        <time>2022-06-08T21:32:39Z</time>
      </trkpt>
      <trkpt lat="44.35275" lon="6.3622">
        <ele>1255</ele>
        <time>2022-06-08T21:32:48Z</time>
      </trkpt>
      <trkpt lat="44.35275" lon="6.36266">
        <ele>1257</ele>
        <time>2022-06-08T21:32:56Z</time>
      </trkpt>
      <trkpt lat="44.35283" lon="6.36298">
        <ele>1260</ele>
        <time>2022-06-08T21:33:01Z</time>
      </trkpt>
      <trkpt lat="44.35296" lon="6.36319">
        <ele>1263</ele>
        <time>2022-06-08T21:33:06Z</time>
      </trkpt>
      <trkpt lat="44.35302" lon="6.36347">
        <ele>1265</ele>
        <time>2022-06-08T21:33:11Z</time>
      </trkpt>
      <trkpt lat="44.35297" lon="6.36374">
        <ele>1264</ele>
        <time>2022-06-08T21:33:15Z</time>
      </trkpt>
      <trkpt lat="44.35299" lon="6.36383">
        <ele>1265</ele>
        <time>2022-06-08T21:33:17Z</time>
      </trkpt>
      <trkpt lat="44.35314" lon="6.36409">
        <ele>1270</ele>
        <time>2022-06-08T21:33:22Z</time>
      </trkpt>
      <trkpt lat="44.35321" lon="6.36414">
        <ele>1273</ele>
        <time>2022-06-08T21:33:24Z</time>
      </trkpt>
      <trkpt lat="44.35343" lon="6.3642">
        <ele>1278</ele>
        <time>2022-06-08T21:33:30Z</time>
      </trkpt>
      <trkpt lat="44.35377" lon="6.36412">
        <ele>1283</ele>
        <time>2022-06-08T21:33:38Z</time>
      </trkpt>
      <trkpt lat="44.35391" lon="6.36414">
        <ele>1285</ele>
        <time>2022-06-08T21:33:41Z</time>
      </trkpt>
      <trkpt lat="44.3539" lon="6.36411">
        <ele>1285</ele>
        <time>2022-06-08T21:33:41Z</time>
      </trkpt>
      <trkpt lat="44.35414" lon="6.36418">
        <ele>1288</ele>
        <time>2022-06-08T21:33:47Z</time>
      </trkpt>
      <trkpt lat="44.3543" lon="6.36417">
        <ele>1291</ele>
        <time>2022-06-08T21:33:51Z</time>
      </trkpt>
      <trkpt lat="44.35445" lon="6.3642">
        <ele>1294</ele>
        <time>2022-06-08T21:33:54Z</time>
      </trkpt>
      <trkpt lat="44.35461" lon="6.36427">
        <ele>1296</ele>
        <time>2022-06-08T21:33:58Z</time>
      </trkpt>
      <trkpt lat="44.35477" lon="6.3643">
        <ele>1299</ele>
        <time>2022-06-08T21:34:02Z</time>
      </trkpt>
      <trkpt lat="44.35498" lon="6.36427">
        <ele>1304</ele>
        <time>2022-06-08T21:34:07Z</time>
      </trkpt>
      <trkpt lat="44.35508" lon="6.3642">
        <ele>1305</ele>
        <time>2022-06-08T21:34:10Z</time>
      </trkpt>
      <trkpt lat="44.3553" lon="6.36416">
        <ele>1307</ele>
        <time>2022-06-08T21:34:15Z</time>
      </trkpt>
      <trkpt lat="44.35551" lon="6.36419">
        <ele>1309</ele>
        <time>2022-06-08T21:34:20Z</time>
      </trkpt>
      <trkpt lat="44.35555" lon="6.36423">
        <ele>1309</ele>
        <time>2022-06-08T21:34:21Z</time>
      </trkpt>
      <trkpt lat="44.35568" lon="6.36426">
        <ele>1310</ele>
        <time>2022-06-08T21:34:24Z</time>
      </trkpt>
      <trkpt lat="44.35641" lon="6.36458">
        <ele>1316</ele>
        <time>2022-06-08T21:34:42Z</time>
      </trkpt>
      <trkpt lat="44.35658" lon="6.36479">
        <ele>1318</ele>
        <time>2022-06-08T21:34:47Z</time>
      </trkpt>
      <trkpt lat="44.35651" lon="6.36507">
        <ele>1318</ele>
        <time>2022-06-08T21:34:52Z</time>
      </trkpt>
      <trkpt lat="44.35625" lon="6.36542">
        <ele>1319</ele>
        <time>2022-06-08T21:35:01Z</time>
      </trkpt>
      <trkpt lat="44.35594" lon="6.36565">
        <ele>1318</ele>
        <time>2022-06-08T21:35:09Z</time>
      </trkpt>
      <trkpt lat="44.35567" lon="6.36591">
        <ele>1318</ele>
        <time>2022-06-08T21:35:16Z</time>
      </trkpt>
      <trkpt lat="44.35555" lon="6.36643">
        <ele>1324</ele>
        <time>2022-06-08T21:35:26Z</time>
      </trkpt>
      <trkpt lat="44.3555" lon="6.36686">
        <ele>1328</ele>
        <time>2022-06-08T21:35:33Z</time>
      </trkpt>
      <trkpt lat="44.35532" lon="6.36727">
        <ele>1328</ele>
        <time>2022-06-08T21:35:41Z</time>
      </trkpt>
      <trkpt lat="44.35482" lon="6.36866">
        <ele>1327</ele>
        <time>2022-06-08T21:36:07Z</time>
      </trkpt>
      <trkpt lat="44.35463" lon="6.36954">
        <ele>1328</ele>
        <time>2022-06-08T21:36:22Z</time>
      </trkpt>
      <trkpt lat="44.35457" lon="6.37021">
        <ele>1331</ele>
        <time>2022-06-08T21:36:33Z</time>
      </trkpt>
      <trkpt lat="44.35438" lon="6.37059">
        <ele>1332</ele>
        <time>2022-06-08T21:36:41Z</time>
      </trkpt>
      <trkpt lat="44.35419" lon="6.37116">
        <ele>1334</ele>
        <time>2022-06-08T21:36:52Z</time>
      </trkpt>
      <trkpt lat="44.35351" lon="6.37235">
        <ele>1334</ele>
        <time>2022-06-08T21:37:17Z</time>
      </trkpt>
      <trkpt lat="44.35235" lon="6.37365">
        <ele>1338</ele>
        <time>2022-06-08T21:37:52Z</time>
      </trkpt>
      <trkpt lat="44.35152" lon="6.37478">
        <ele>1342</ele>
        <time>2022-06-08T21:38:19Z</time>
      </trkpt>
      <trkpt lat="44.35143" lon="6.37515">
        <ele>1344</ele>
        <time>2022-06-08T21:38:25Z</time>
      </trkpt>
      <trkpt lat="44.35144" lon="6.3752">
        <ele>1345</ele>
        <time>2022-06-08T21:38:26Z</time>
      </trkpt>
      <trkpt lat="44.35147" lon="6.37522">
        <ele>1345</ele>
        <time>2022-06-08T21:38:27Z</time>
      </trkpt>
      <trkpt lat="44.35149" lon="6.37519">
        <ele>1345</ele>
        <time>2022-06-08T21:38:28Z</time>
      </trkpt>
      <trkpt lat="44.3517" lon="6.37508">
        <ele>1345</ele>
        <time>2022-06-08T21:38:33Z</time>
      </trkpt>
      <trkpt lat="44.3514" lon="6.37522">
        <ele>1345</ele>
        <time>2022-06-08T21:38:40Z</time>
      </trkpt>
      <trkpt lat="44.3512" lon="6.37544">
        <ele>1345</ele>
        <time>2022-06-08T21:38:46Z</time>
      </trkpt>
      <trkpt lat="44.35104" lon="6.37556">
        <ele>1345</ele>
        <time>2022-06-08T21:38:51Z</time>
      </trkpt>
      <trkpt lat="44.35065" lon="6.37598">
        <ele>1346</ele>
        <time>2022-06-08T21:39:02Z</time>
      </trkpt>
      <trkpt lat="44.35054" lon="6.3766">
        <ele>1348</ele>
        <time>2022-06-08T21:39:13Z</time>
      </trkpt>
      <trkpt lat="44.35025" lon="6.37875">
        <ele>1349</ele>
        <time>2022-06-08T21:39:49Z</time>
      </trkpt>
      <trkpt lat="44.35007" lon="6.37965">
        <ele>1353</ele>
        <time>2022-06-08T21:40:05Z</time>
      </trkpt>
      <trkpt lat="44.35006" lon="6.38">
        <ele>1356</ele>
        <time>2022-06-08T21:40:11Z</time>
      </trkpt>
      <trkpt lat="44.35" lon="6.38037">
        <ele>1357</ele>
        <time>2022-06-08T21:40:17Z</time>
      </trkpt>
      <trkpt lat="44.34982" lon="6.3806">
        <ele>1357</ele>
        <time>2022-06-08T21:40:23Z</time>
      </trkpt>
      <trkpt lat="44.34957" lon="6.38113">
        <ele>1356</ele>
        <time>2022-06-08T21:40:33Z</time>
      </trkpt>
      <trkpt lat="44.34933" lon="6.38154">
        <ele>1354</ele>
        <time>2022-06-08T21:40:42Z</time>
      </trkpt>
      <trkpt lat="44.34926" lon="6.38194">
        <ele>1354</ele>
        <time>2022-06-08T21:40:49Z</time>
      </trkpt>
      <trkpt lat="44.34922" lon="6.38255">
        <ele>1354</ele>
        <time>2022-06-08T21:40:59Z</time>
      </trkpt>
      <trkpt lat="44.34916" lon="6.38298">
        <ele>1355</ele>
        <time>2022-06-08T21:41:07Z</time>
      </trkpt>
      <trkpt lat="44.34906" lon="6.38344">
        <ele>1355</ele>
        <time>2022-06-08T21:41:15Z</time>
      </trkpt>
      <trkpt lat="44.34859" lon="6.38451">
        <ele>1357</ele>
        <time>2022-06-08T21:41:36Z</time>
      </trkpt>
      <trkpt lat="44.34858" lon="6.38463">
        <ele>1358</ele>
        <time>2022-06-08T21:41:38Z</time>
      </trkpt>
      <trkpt lat="44.34869" lon="6.38513">
        <ele>1362</ele>
        <time>2022-06-08T21:41:46Z</time>
      </trkpt>
      <trkpt lat="44.34885" lon="6.38548">
        <ele>1365</ele>
        <time>2022-06-08T21:41:53Z</time>
      </trkpt>
      <trkpt lat="44.34894" lon="6.38562">
        <ele>1367</ele>
        <time>2022-06-08T21:41:56Z</time>
      </trkpt>
      <trkpt lat="44.34901" lon="6.38582">
        <ele>1368</ele>
        <time>2022-06-08T21:42:00Z</time>
      </trkpt>
      <trkpt lat="44.34909" lon="6.38591">
        <ele>1369</ele>
        <time>2022-06-08T21:42:03Z</time>
      </trkpt>
      <trkpt lat="44.34953" lon="6.38622">
        <ele>1376</ele>
        <time>2022-06-08T21:42:14Z</time>
      </trkpt>
      <trkpt lat="44.34977" lon="6.38635">
        <ele>1380</ele>
        <time>2022-06-08T21:42:20Z</time>
      </trkpt>
      <trkpt lat="44.35001" lon="6.38655">
        <ele>1384</ele>
        <time>2022-06-08T21:42:27Z</time>
      </trkpt>
      <trkpt lat="44.35017" lon="6.38678">
        <ele>1387</ele>
        <time>2022-06-08T21:42:32Z</time>
      </trkpt>
      <trkpt lat="44.35029" lon="6.38702">
        <ele>1389</ele>
        <time>2022-06-08T21:42:37Z</time>
      </trkpt>
      <trkpt lat="44.35032" lon="6.38722">
        <ele>1390</ele>
        <time>2022-06-08T21:42:40Z</time>
      </trkpt>
      <trkpt lat="44.35035" lon="6.38783">
        <ele>1395</ele>
        <time>2022-06-08T21:42:50Z</time>
      </trkpt>
      <trkpt lat="44.35032" lon="6.38811">
        <ele>1397</ele>
        <time>2022-06-08T21:42:55Z</time>
      </trkpt>
      <trkpt lat="44.35025" lon="6.38839">
        <ele>1398</ele>
        <time>2022-06-08T21:43:00Z</time>
      </trkpt>
      <trkpt lat="44.34989" lon="6.38928">
        <ele>1403</ele>
        <time>2022-06-08T21:43:17Z</time>
      </trkpt>
      <trkpt lat="44.34983" lon="6.3895">
        <ele>1406</ele>
        <time>2022-06-08T21:43:21Z</time>
      </trkpt>
      <trkpt lat="44.34973" lon="6.3897">
        <ele>1408</ele>
        <time>2022-06-08T21:43:25Z</time>
      </trkpt>
      <trkpt lat="44.34964" lon="6.39004">
        <ele>1413</ele>
        <time>2022-06-08T21:43:31Z</time>
      </trkpt>
      <trkpt lat="44.34961" lon="6.39025">
        <ele>1414</ele>
        <time>2022-06-08T21:43:35Z</time>
      </trkpt>
      <trkpt lat="44.34959" lon="6.3902">
        <ele>1413</ele>
        <time>2022-06-08T21:43:36Z</time>
      </trkpt>
      <trkpt lat="44.34961" lon="6.39029">
        <ele>1415</ele>
        <time>2022-06-08T21:43:37Z</time>
      </trkpt>
      <trkpt lat="44.34961" lon="6.39057">
        <ele>1417</ele>
        <time>2022-06-08T21:43:42Z</time>
      </trkpt>
      <trkpt lat="44.34969" lon="6.39078">
        <ele>1422</ele>
        <time>2022-06-08T21:43:46Z</time>
      </trkpt>
      <trkpt lat="44.34973" lon="6.39098">
        <ele>1424</ele>
        <time>2022-06-08T21:43:50Z</time>
      </trkpt>
      <trkpt lat="44.34969" lon="6.3913">
        <ele>1425</ele>
        <time>2022-06-08T21:43:55Z</time>
      </trkpt>
      <trkpt lat="44.34973" lon="6.39152">
        <ele>1428</ele>
        <time>2022-06-08T21:43:59Z</time>
      </trkpt>
      <trkpt lat="44.34984" lon="6.39182">
        <ele>1434</ele>
        <time>2022-06-08T21:44:04Z</time>
      </trkpt>
      <trkpt lat="44.34993" lon="6.39198">
        <ele>1438</ele>
        <time>2022-06-08T21:44:08Z</time>
      </trkpt>
      <trkpt lat="44.35" lon="6.39202">
        <ele>1440</ele>
        <time>2022-06-08T21:44:10Z</time>
      </trkpt>
      <trkpt lat="44.3505" lon="6.39162">
        <ele>1449</ele>
        <time>2022-06-08T21:44:23Z</time>
      </trkpt>
      <trkpt lat="44.35054" lon="6.39162">
        <ele>1449</ele>
        <time>2022-06-08T21:44:24Z</time>
      </trkpt>
      <trkpt lat="44.3504" lon="6.39218">
        <ele>1452</ele>
        <time>2022-06-08T21:44:34Z</time>
      </trkpt>
      <trkpt lat="44.35055" lon="6.39277">
        <ele>1462</ele>
        <time>2022-06-08T21:44:44Z</time>
      </trkpt>
      <trkpt lat="44.35062" lon="6.39337">
        <ele>1470</ele>
        <time>2022-06-08T21:44:54Z</time>
      </trkpt>
      <trkpt lat="44.35065" lon="6.39338">
        <ele>1471</ele>
        <time>2022-06-08T21:44:55Z</time>
      </trkpt>
      <trkpt lat="44.35073" lon="6.39317">
        <ele>1472</ele>
        <time>2022-06-08T21:44:59Z</time>
      </trkpt>
      <trkpt lat="44.35084" lon="6.39274">
        <ele>1471</ele>
        <time>2022-06-08T21:45:07Z</time>
      </trkpt>
      <trkpt lat="44.35096" lon="6.39254">
        <ele>1471</ele>
        <time>2022-06-08T21:45:11Z</time>
      </trkpt>
      <trkpt lat="44.35109" lon="6.39247">
        <ele>1472</ele>
        <time>2022-06-08T21:45:14Z</time>
      </trkpt>
      <trkpt lat="44.351" lon="6.39276">
        <ele>1474</ele>
        <time>2022-06-08T21:45:20Z</time>
      </trkpt>
      <trkpt lat="44.35101" lon="6.39293">
        <ele>1476</ele>
        <time>2022-06-08T21:45:23Z</time>
      </trkpt>
      <trkpt lat="44.35124" lon="6.39389">
        <ele>1492</ele>
        <time>2022-06-08T21:45:39Z</time>
      </trkpt>
      <trkpt lat="44.35129" lon="6.39392">
        <ele>1493</ele>
        <time>2022-06-08T21:45:41Z</time>
      </trkpt>
      <trkpt lat="44.35137" lon="6.39389">
        <ele>1495</ele>
        <time>2022-06-08T21:45:43Z</time>
      </trkpt>
      <trkpt lat="44.35158" lon="6.39392">
        <ele>1502</ele>
        <time>2022-06-08T21:45:48Z</time>
      </trkpt>
      <trkpt lat="44.35172" lon="6.3939">
        <ele>1505</ele>
        <time>2022-06-08T21:45:51Z</time>
      </trkpt>
      <trkpt lat="44.35193" lon="6.39392">
        <ele>1508</ele>
        <time>2022-06-08T21:45:56Z</time>
      </trkpt>
      <trkpt lat="44.35218" lon="6.39401">
        <ele>1513</ele>
        <time>2022-06-08T21:46:02Z</time>
      </trkpt>
      <trkpt lat="44.35225" lon="6.39406">
        <ele>1515</ele>
        <time>2022-06-08T21:46:04Z</time>
      </trkpt>
      <trkpt lat="44.35232" lon="6.39418">
        <ele>1517</ele>
        <time>2022-06-08T21:46:06Z</time>
      </trkpt>
      <trkpt lat="44.35239" lon="6.39424">
        <ele>1519</ele>
        <time>2022-06-08T21:46:08Z</time>
      </trkpt>
      <trkpt lat="44.35258" lon="6.39464">
        <ele>1525</ele>
        <time>2022-06-08T21:46:16Z</time>
      </trkpt>
      <trkpt lat="44.35271" lon="6.39484">
        <ele>1529</ele>
        <time>2022-06-08T21:46:21Z</time>
      </trkpt>
      <trkpt lat="44.35297" lon="6.39493">
        <ele>1536</ele>
        <time>2022-06-08T21:46:27Z</time>
      </trkpt>
      <trkpt lat="44.35313" lon="6.39484">
        <ele>1540</ele>
        <time>2022-06-08T21:46:31Z</time>
      </trkpt>
      <trkpt lat="44.35326" lon="6.39464">
        <ele>1544</ele>
        <time>2022-06-08T21:46:35Z</time>
      </trkpt>
      <trkpt lat="44.35349" lon="6.39438">
        <ele>1550</ele>
        <time>2022-06-08T21:46:42Z</time>
      </trkpt>
      <trkpt lat="44.35355" lon="6.39427">
        <ele>1552</ele>
        <time>2022-06-08T21:46:45Z</time>
      </trkpt>
      <trkpt lat="44.35362" lon="6.39419">
        <ele>1554</ele>
        <time>2022-06-08T21:46:47Z</time>
      </trkpt>
      <trkpt lat="44.35376" lon="6.39409">
        <ele>1558</ele>
        <time>2022-06-08T21:46:50Z</time>
      </trkpt>
      <trkpt lat="44.35379" lon="6.39403">
        <ele>1557</ele>
        <time>2022-06-08T21:46:52Z</time>
      </trkpt>
      <trkpt lat="44.35409" lon="6.39384">
        <ele>1563</ele>
        <time>2022-06-08T21:46:59Z</time>
      </trkpt>
      <trkpt lat="44.35434" lon="6.39354">
        <ele>1563</ele>
        <time>2022-06-08T21:47:07Z</time>
      </trkpt>
      <trkpt lat="44.35467" lon="6.39329">
        <ele>1565</ele>
        <time>2022-06-08T21:47:16Z</time>
      </trkpt>
      <trkpt lat="44.35501" lon="6.39308">
        <ele>1568</ele>
        <time>2022-06-08T21:47:24Z</time>
      </trkpt>
      <trkpt lat="44.35524" lon="6.39264">
        <ele>1563</ele>
        <time>2022-06-08T21:47:34Z</time>
      </trkpt>
      <trkpt lat="44.35566" lon="6.39272">
        <ele>1572</ele>
        <time>2022-06-08T21:47:43Z</time>
      </trkpt>
      <trkpt lat="44.35575" lon="6.39266">
        <ele>1573</ele>
        <time>2022-06-08T21:47:46Z</time>
      </trkpt>
      <trkpt lat="44.35592" lon="6.39186">
        <ele>1565</ele>
        <time>2022-06-08T21:48:00Z</time>
      </trkpt>
      <trkpt lat="44.35633" lon="6.39175">
        <ele>1572</ele>
        <time>2022-06-08T21:48:10Z</time>
      </trkpt>
      <trkpt lat="44.35654" lon="6.39188">
        <ele>1577</ele>
        <time>2022-06-08T21:48:15Z</time>
      </trkpt>
      <trkpt lat="44.35672" lon="6.39207">
        <ele>1583</ele>
        <time>2022-06-08T21:48:20Z</time>
      </trkpt>
      <trkpt lat="44.35681" lon="6.39211">
        <ele>1585</ele>
        <time>2022-06-08T21:48:22Z</time>
      </trkpt>
      <trkpt lat="44.35693" lon="6.39199">
        <ele>1587</ele>
        <time>2022-06-08T21:48:26Z</time>
      </trkpt>
      <trkpt lat="44.35705" lon="6.39177">
        <ele>1587</ele>
        <time>2022-06-08T21:48:30Z</time>
      </trkpt>
      <trkpt lat="44.35721" lon="6.39162">
        <ele>1589</ele>
        <time>2022-06-08T21:48:35Z</time>
      </trkpt>
      <trkpt lat="44.35737" lon="6.39161">
        <ele>1593</ele>
        <time>2022-06-08T21:48:39Z</time>
      </trkpt>
      <trkpt lat="44.35786" lon="6.39168">
        <ele>1601</ele>
        <time>2022-06-08T21:48:50Z</time>
      </trkpt>
      <trkpt lat="44.358" lon="6.39158">
        <ele>1602</ele>
        <time>2022-06-08T21:48:54Z</time>
      </trkpt>
      <trkpt lat="44.35811" lon="6.39138">
        <ele>1601</ele>
        <time>2022-06-08T21:48:58Z</time>
      </trkpt>
      <trkpt lat="44.35827" lon="6.39126">
        <ele>1603</ele>
        <time>2022-06-08T21:49:02Z</time>
      </trkpt>
      <trkpt lat="44.35854" lon="6.39114">
        <ele>1605</ele>
        <time>2022-06-08T21:49:09Z</time>
      </trkpt>
      <trkpt lat="44.35882" lon="6.39106">
        <ele>1608</ele>
        <time>2022-06-08T21:49:16Z</time>
      </trkpt>
      <trkpt lat="44.35902" lon="6.39094">
        <ele>1609</ele>
        <time>2022-06-08T21:49:21Z</time>
      </trkpt>
      <trkpt lat="44.3592" lon="6.39092">
        <ele>1610</ele>
        <time>2022-06-08T21:49:25Z</time>
      </trkpt>
      <trkpt lat="44.35939" lon="6.39096">
        <ele>1613</ele>
        <time>2022-06-08T21:49:29Z</time>
      </trkpt>
      <trkpt lat="44.3595" lon="6.39101">
        <ele>1615</ele>
        <time>2022-06-08T21:49:32Z</time>
      </trkpt>
      <trkpt lat="44.35954" lon="6.39099">
        <ele>1615</ele>
        <time>2022-06-08T21:49:33Z</time>
      </trkpt>
      <trkpt lat="44.35943" lon="6.39094">
        <ele>1613</ele>
        <time>2022-06-08T21:49:36Z</time>
      </trkpt>
      <trkpt lat="44.35915" lon="6.39092">
        <ele>1610</ele>
        <time>2022-06-08T21:49:42Z</time>
      </trkpt>
      <trkpt lat="44.35905" lon="6.39097">
        <ele>1609</ele>
        <time>2022-06-08T21:49:45Z</time>
      </trkpt>
      <trkpt lat="44.35894" lon="6.39111">
        <ele>1610</ele>
        <time>2022-06-08T21:49:48Z</time>
      </trkpt>
      <trkpt lat="44.35888" lon="6.39124">
        <ele>1611</ele>
        <time>2022-06-08T21:49:51Z</time>
      </trkpt>
      <trkpt lat="44.35883" lon="6.39153">
        <ele>1613</ele>
        <time>2022-06-08T21:49:56Z</time>
      </trkpt>
      <trkpt lat="44.35872" lon="6.39163">
        <ele>1613</ele>
        <time>2022-06-08T21:49:59Z</time>
      </trkpt>
      <trkpt lat="44.35862" lon="6.39206">
        <ele>1619</ele>
        <time>2022-06-08T21:50:06Z</time>
      </trkpt>
      <trkpt lat="44.35857" lon="6.39214">
        <ele>1620</ele>
        <time>2022-06-08T21:50:08Z</time>
      </trkpt>
      <trkpt lat="44.35854" lon="6.39228">
        <ele>1622</ele>
        <time>2022-06-08T21:50:11Z</time>
      </trkpt>
      <trkpt lat="44.35857" lon="6.39233">
        <ele>1624</ele>
        <time>2022-06-08T21:50:12Z</time>
      </trkpt>
      <trkpt lat="44.35871" lon="6.39241">
        <ele>1628</ele>
        <time>2022-06-08T21:50:15Z</time>
      </trkpt>
      <trkpt lat="44.3587" lon="6.39259">
        <ele>1631</ele>
        <time>2022-06-08T21:50:18Z</time>
      </trkpt>
      <trkpt lat="44.35865" lon="6.39283">
        <ele>1635</ele>
        <time>2022-06-08T21:50:22Z</time>
      </trkpt>
      <trkpt lat="44.35859" lon="6.39297">
        <ele>1637</ele>
        <time>2022-06-08T21:50:25Z</time>
      </trkpt>
      <trkpt lat="44.35876" lon="6.39299">
        <ele>1640</ele>
        <time>2022-06-08T21:50:29Z</time>
      </trkpt>
      <trkpt lat="44.35888" lon="6.39306">
        <ele>1643</ele>
        <time>2022-06-08T21:50:32Z</time>
      </trkpt>
      <trkpt lat="44.35894" lon="6.39297">
        <ele>1643</ele>
        <time>2022-06-08T21:50:34Z</time>
      </trkpt>
      <trkpt lat="44.35904" lon="6.39317">
        <ele>1648</ele>
        <time>2022-06-08T21:50:38Z</time>
      </trkpt>
      <trkpt lat="44.35905" lon="6.39353">
        <ele>1656</ele>
        <time>2022-06-08T21:50:44Z</time>
      </trkpt>
      <trkpt lat="44.359" lon="6.39377">
        <ele>1659</ele>
        <time>2022-06-08T21:50:49Z</time>
      </trkpt>
      <trkpt lat="44.35878" lon="6.39388">
        <ele>1657</ele>
        <time>2022-06-08T21:50:54Z</time>
      </trkpt>
      <trkpt lat="44.3586" lon="6.39392">
        <ele>1654</ele>
        <time>2022-06-08T21:50:58Z</time>
      </trkpt>
      <trkpt lat="44.35831" lon="6.39405">
        <ele>1650</ele>
        <time>2022-06-08T21:51:05Z</time>
      </trkpt>
      <trkpt lat="44.35822" lon="6.39422">
        <ele>1651</ele>
        <time>2022-06-08T21:51:09Z</time>
      </trkpt>
      <trkpt lat="44.35822" lon="6.39435">
        <ele>1652</ele>
        <time>2022-06-08T21:51:11Z</time>
      </trkpt>
      <trkpt lat="44.35836" lon="6.39438">
        <ele>1656</ele>
        <time>2022-06-08T21:51:14Z</time>
      </trkpt>
      <trkpt lat="44.35846" lon="6.39437">
        <ele>1658</ele>
        <time>2022-06-08T21:51:17Z</time>
      </trkpt>
      <trkpt lat="44.35886" lon="6.39447">
        <ele>1670</ele>
        <time>2022-06-08T21:51:26Z</time>
      </trkpt>
      <trkpt lat="44.35886" lon="6.39451">
        <ele>1670</ele>
        <time>2022-06-08T21:51:27Z</time>
      </trkpt>
      <trkpt lat="44.35877" lon="6.39462">
        <ele>1670</ele>
        <time>2022-06-08T21:51:30Z</time>
      </trkpt>
      <trkpt lat="44.35871" lon="6.39475">
        <ele>1670</ele>
        <time>2022-06-08T21:51:32Z</time>
      </trkpt>
      <trkpt lat="44.3589" lon="6.39479">
        <ele>1677</ele>
        <time>2022-06-08T21:51:37Z</time>
      </trkpt>
      <trkpt lat="44.35926" lon="6.39452">
        <ele>1681</ele>
        <time>2022-06-08T21:51:46Z</time>
      </trkpt>
      <trkpt lat="44.35947" lon="6.39431">
        <ele>1684</ele>
        <time>2022-06-08T21:51:52Z</time>
      </trkpt>
      <trkpt lat="44.35987" lon="6.39371">
        <ele>1686</ele>
        <time>2022-06-08T21:52:06Z</time>
      </trkpt>
      <trkpt lat="44.35995" lon="6.39365">
        <ele>1688</ele>
        <time>2022-06-08T21:52:08Z</time>
      </trkpt>
      <trkpt lat="44.36066" lon="6.39358">
        <ele>1697</ele>
        <time>2022-06-08T21:52:25Z</time>
      </trkpt>
      <trkpt lat="44.36097" lon="6.39345">
        <ele>1699</ele>
        <time>2022-06-08T21:52:32Z</time>
      </trkpt>
      <trkpt lat="44.36104" lon="6.39346">
        <ele>1700</ele>
        <time>2022-06-08T21:52:34Z</time>
      </trkpt>
      <trkpt lat="44.36091" lon="6.39374">
        <ele>1705</ele>
        <time>2022-06-08T21:52:39Z</time>
      </trkpt>
      <trkpt lat="44.36082" lon="6.39398">
        <ele>1709</ele>
        <time>2022-06-08T21:52:44Z</time>
      </trkpt>
      <trkpt lat="44.36079" lon="6.39413">
        <ele>1711</ele>
        <time>2022-06-08T21:52:47Z</time>
      </trkpt>
      <trkpt lat="44.36066" lon="6.39442">
        <ele>1716</ele>
        <time>2022-06-08T21:52:52Z</time>
      </trkpt>
      <trkpt lat="44.36068" lon="6.39448">
        <ele>1717</ele>
        <time>2022-06-08T21:52:53Z</time>
      </trkpt>
      <trkpt lat="44.36072" lon="6.39448">
        <ele>1718</ele>
        <time>2022-06-08T21:52:54Z</time>
      </trkpt>
      <trkpt lat="44.36067" lon="6.39449">
        <ele>1717</ele>
        <time>2022-06-08T21:52:56Z</time>
      </trkpt>
      <trkpt lat="44.36066" lon="6.39443">
        <ele>1716</ele>
        <time>2022-06-08T21:52:57Z</time>
      </trkpt>
      <trkpt lat="44.3607" lon="6.39448">
        <ele>1718</ele>
        <time>2022-06-08T21:52:58Z</time>
      </trkpt>
      <trkpt lat="44.36068" lon="6.39451">
        <ele>1718</ele>
        <time>2022-06-08T21:52:59Z</time>
      </trkpt>
      <trkpt lat="44.36071" lon="6.39453">
        <ele>1719</ele>
        <time>2022-06-08T21:52:59Z</time>
      </trkpt>
      <trkpt lat="44.36069" lon="6.3945">
        <ele>1718</ele>
        <time>2022-06-08T21:53:00Z</time>
      </trkpt>
      <trkpt lat="44.3607" lon="6.39454">
        <ele>1719</ele>
        <time>2022-06-08T21:53:01Z</time>
      </trkpt>
      <trkpt lat="44.36068" lon="6.39454">
        <ele>1719</ele>
        <time>2022-06-08T21:53:01Z</time>
      </trkpt>
      <trkpt lat="44.3607" lon="6.39455">
        <ele>1719</ele>
        <time>2022-06-08T21:53:02Z</time>
      </trkpt>
      <trkpt lat="44.36073" lon="6.3945">
        <ele>1719</ele>
        <time>2022-06-08T21:53:03Z</time>
      </trkpt>
      <trkpt lat="44.36074" lon="6.39454">
        <ele>1720</ele>
        <time>2022-06-08T21:53:03Z</time>
      </trkpt>
      <trkpt lat="44.36069" lon="6.3945">
        <ele>1718</ele>
        <time>2022-06-08T21:53:05Z</time>
      </trkpt>
      <trkpt lat="44.36069" lon="6.39452">
        <ele>1718</ele>
        <time>2022-06-08T21:53:05Z</time>
      </trkpt>
      <trkpt lat="44.3607" lon="6.3945">
        <ele>1718</ele>
        <time>2022-06-08T21:53:06Z</time>
      </trkpt>
      <trkpt lat="44.36071" lon="6.39454">
        <ele>1719</ele>
        <time>2022-06-08T21:53:06Z</time>
      </trkpt>
      <trkpt lat="44.36067" lon="6.39451">
        <ele>1718</ele>
        <time>2022-06-08T21:53:07Z</time>
      </trkpt>
      <trkpt lat="44.36072" lon="6.39453">
        <ele>1719</ele>
        <time>2022-06-08T21:53:09Z</time>
      </trkpt>
      <trkpt lat="44.36069" lon="6.3945">
        <ele>1718</ele>
        <time>2022-06-08T21:53:09Z</time>
      </trkpt>
      <trkpt lat="44.36071" lon="6.39452">
        <ele>1719</ele>
        <time>2022-06-08T21:53:10Z</time>
      </trkpt>
      <trkpt lat="44.36067" lon="6.39455">
        <ele>1719</ele>
        <time>2022-06-08T21:53:11Z</time>
      </trkpt>
      <trkpt lat="44.36058" lon="6.39473">
        <ele>1721</ele>
        <time>2022-06-08T21:53:15Z</time>
      </trkpt>
      <trkpt lat="44.36027" lon="6.39543">
        <ele>1728</ele>
        <time>2022-06-08T21:53:28Z</time>
      </trkpt>
      <trkpt lat="44.36022" lon="6.3956">
        <ele>1730</ele>
        <time>2022-06-08T21:53:31Z</time>
      </trkpt>
      <trkpt lat="44.36" lon="6.39607">
        <ele>1731</ele>
        <time>2022-06-08T21:53:41Z</time>
      </trkpt>
      <trkpt lat="44.35997" lon="6.39622">
        <ele>1731</ele>
        <time>2022-06-08T21:53:43Z</time>
      </trkpt>
      <trkpt lat="44.35994" lon="6.39643">
        <ele>1733</ele>
        <time>2022-06-08T21:53:47Z</time>
      </trkpt>
      <trkpt lat="44.36" lon="6.39678">
        <ele>1738</ele>
        <time>2022-06-08T21:53:53Z</time>
      </trkpt>
      <trkpt lat="44.36008" lon="6.39703">
        <ele>1740</ele>
        <time>2022-06-08T21:53:58Z</time>
      </trkpt>
      <trkpt lat="44.3603" lon="6.39745">
        <ele>1747</ele>
        <time>2022-06-08T21:54:06Z</time>
      </trkpt>
      <trkpt lat="44.36038" lon="6.39755">
        <ele>1750</ele>
        <time>2022-06-08T21:54:09Z</time>
      </trkpt>
      <trkpt lat="44.36052" lon="6.39763">
        <ele>1755</ele>
        <time>2022-06-08T21:54:12Z</time>
      </trkpt>
      <trkpt lat="44.36072" lon="6.39791">
        <ele>1763</ele>
        <time>2022-06-08T21:54:19Z</time>
      </trkpt>
      <trkpt lat="44.36084" lon="6.39784">
        <ele>1769</ele>
        <time>2022-06-08T21:54:22Z</time>
      </trkpt>
      <trkpt lat="44.36087" lon="6.39779">
        <ele>1770</ele>
        <time>2022-06-08T21:54:23Z</time>
      </trkpt>
      <trkpt lat="44.36086" lon="6.39741">
        <ele>1770</ele>
        <time>2022-06-08T21:54:29Z</time>
      </trkpt>
      <trkpt lat="44.36111" lon="6.39678">
        <ele>1778</ele>
        <time>2022-06-08T21:54:41Z</time>
      </trkpt>
      <trkpt lat="44.36122" lon="6.3966">
        <ele>1780</ele>
        <time>2022-06-08T21:54:45Z</time>
      </trkpt>
      <trkpt lat="44.36139" lon="6.39621">
        <ele>1780</ele>
        <time>2022-06-08T21:54:53Z</time>
      </trkpt>
      <trkpt lat="44.36147" lon="6.39596">
        <ele>1779</ele>
        <time>2022-06-08T21:54:58Z</time>
      </trkpt>
      <trkpt lat="44.36161" lon="6.39579">
        <ele>1781</ele>
        <time>2022-06-08T21:55:02Z</time>
      </trkpt>
      <trkpt lat="44.36195" lon="6.39553">
        <ele>1785</ele>
        <time>2022-06-08T21:55:11Z</time>
      </trkpt>
      <trkpt lat="44.36204" lon="6.39549">
        <ele>1786</ele>
        <time>2022-06-08T21:55:13Z</time>
      </trkpt>
      <trkpt lat="44.36211" lon="6.3955">
        <ele>1789</ele>
        <time>2022-06-08T21:55:15Z</time>
      </trkpt>
      <trkpt lat="44.36209" lon="6.3958">
        <ele>1798</ele>
        <time>2022-06-08T21:55:20Z</time>
      </trkpt>
      <trkpt lat="44.36197" lon="6.39617">
        <ele>1802</ele>
        <time>2022-06-08T21:55:27Z</time>
      </trkpt>
      <trkpt lat="44.36196" lon="6.39627">
        <ele>1803</ele>
        <time>2022-06-08T21:55:28Z</time>
      </trkpt>
      <trkpt lat="44.36198" lon="6.39641">
        <ele>1807</ele>
        <time>2022-06-08T21:55:31Z</time>
      </trkpt>
      <trkpt lat="44.36203" lon="6.39639">
        <ele>1808</ele>
        <time>2022-06-08T21:55:32Z</time>
      </trkpt>
      <trkpt lat="44.36211" lon="6.39628">
        <ele>1809</ele>
        <time>2022-06-08T21:55:35Z</time>
      </trkpt>
      <trkpt lat="44.36217" lon="6.39625">
        <ele>1811</ele>
        <time>2022-06-08T21:55:36Z</time>
      </trkpt>
      <trkpt lat="44.36219" lon="6.39647">
        <ele>1817</ele>
        <time>2022-06-08T21:55:40Z</time>
      </trkpt>
      <trkpt lat="44.36214" lon="6.39666">
        <ele>1819</ele>
        <time>2022-06-08T21:55:43Z</time>
      </trkpt>
      <trkpt lat="44.36206" lon="6.3968">
        <ele>1817</ele>
        <time>2022-06-08T21:55:46Z</time>
      </trkpt>
      <trkpt lat="44.36204" lon="6.39689">
        <ele>1818</ele>
        <time>2022-06-08T21:55:48Z</time>
      </trkpt>
      <trkpt lat="44.3621" lon="6.39693">
        <ele>1821</ele>
        <time>2022-06-08T21:55:49Z</time>
      </trkpt>
      <trkpt lat="44.36229" lon="6.3968">
        <ele>1828</ele>
        <time>2022-06-08T21:55:54Z</time>
      </trkpt>
      <trkpt lat="44.36251" lon="6.39658">
        <ele>1833</ele>
        <time>2022-06-08T21:56:01Z</time>
      </trkpt>
      <trkpt lat="44.36273" lon="6.39623">
        <ele>1830</ele>
        <time>2022-06-08T21:56:08Z</time>
      </trkpt>
      <trkpt lat="44.36297" lon="6.39602">
        <ele>1831</ele>
        <time>2022-06-08T21:56:15Z</time>
      </trkpt>
      <trkpt lat="44.36323" lon="6.39591">
        <ele>1834</ele>
        <time>2022-06-08T21:56:21Z</time>
      </trkpt>
      <trkpt lat="44.36337" lon="6.39581">
        <ele>1834</ele>
        <time>2022-06-08T21:56:25Z</time>
      </trkpt>
      <trkpt lat="44.3633" lon="6.39582">
        <ele>1834</ele>
        <time>2022-06-08T21:56:27Z</time>
      </trkpt>
      <trkpt lat="44.36316" lon="6.39591">
        <ele>1833</ele>
        <time>2022-06-08T21:56:30Z</time>
      </trkpt>
      <trkpt lat="44.36313" lon="6.39595">
        <ele>1833</ele>
        <time>2022-06-08T21:56:31Z</time>
      </trkpt>
      <trkpt lat="44.36312" lon="6.3961">
        <ele>1836</ele>
        <time>2022-06-08T21:56:34Z</time>
      </trkpt>
      <trkpt lat="44.36332" lon="6.39705">
        <ele>1861</ele>
        <time>2022-06-08T21:56:50Z</time>
      </trkpt>
      <trkpt lat="44.36344" lon="6.39737">
        <ele>1865</ele>
        <time>2022-06-08T21:56:56Z</time>
      </trkpt>
      <trkpt lat="44.36347" lon="6.39753">
        <ele>1867</ele>
        <time>2022-06-08T21:56:59Z</time>
      </trkpt>
      <trkpt lat="44.36339" lon="6.39788">
        <ele>1875</ele>
        <time>2022-06-08T21:57:05Z</time>
      </trkpt>
      <trkpt lat="44.36331" lon="6.39806">
        <ele>1879</ele>
        <time>2022-06-08T21:57:09Z</time>
      </trkpt>
      <trkpt lat="44.36322" lon="6.39869">
        <ele>1888</ele>
        <time>2022-06-08T21:57:19Z</time>
      </trkpt>
      <trkpt lat="44.36328" lon="6.39888">
        <ele>1892</ele>
        <time>2022-06-08T21:57:23Z</time>
      </trkpt>
      <trkpt lat="44.36337" lon="6.39965">
        <ele>1899</ele>
        <time>2022-06-08T21:57:36Z</time>
      </trkpt>
      <trkpt lat="44.36348" lon="6.40016">
        <ele>1901</ele>
        <time>2022-06-08T21:57:45Z</time>
      </trkpt>
      <trkpt lat="44.36364" lon="6.40031">
        <ele>1903</ele>
        <time>2022-06-08T21:57:49Z</time>
      </trkpt>
      <trkpt lat="44.3638" lon="6.40053">
        <ele>1908</ele>
        <time>2022-06-08T21:57:55Z</time>
      </trkpt>
      <trkpt lat="44.36385" lon="6.40075">
        <ele>1912</ele>
        <time>2022-06-08T21:57:58Z</time>
      </trkpt>
      <trkpt lat="44.36383" lon="6.40118">
        <ele>1921</ele>
        <time>2022-06-08T21:58:06Z</time>
      </trkpt>
      <trkpt lat="44.3638" lon="6.40129">
        <ele>1923</ele>
        <time>2022-06-08T21:58:08Z</time>
      </trkpt>
      <trkpt lat="44.36368" lon="6.40149">
        <ele>1925</ele>
        <time>2022-06-08T21:58:12Z</time>
      </trkpt>
      <trkpt lat="44.36361" lon="6.4017">
        <ele>1927</ele>
        <time>2022-06-08T21:58:16Z</time>
      </trkpt>
      <trkpt lat="44.36366" lon="6.40172">
        <ele>1929</ele>
        <time>2022-06-08T21:58:17Z</time>
      </trkpt>
      <trkpt lat="44.36378" lon="6.40163">
        <ele>1931</ele>
        <time>2022-06-08T21:58:20Z</time>
      </trkpt>
      <trkpt lat="44.3642" lon="6.40148">
        <ele>1940</ele>
        <time>2022-06-08T21:58:30Z</time>
      </trkpt>
      <trkpt lat="44.36457" lon="6.40178">
        <ele>1956</ele>
        <time>2022-06-08T21:58:40Z</time>
      </trkpt>
      <trkpt lat="44.36463" lon="6.4018">
        <ele>1958</ele>
        <time>2022-06-08T21:58:42Z</time>
      </trkpt>
      <trkpt lat="44.36468" lon="6.40167">
        <ele>1954</ele>
        <time>2022-06-08T21:58:44Z</time>
      </trkpt>
      <trkpt lat="44.36478" lon="6.40166">
        <ele>1956</ele>
        <time>2022-06-08T21:58:46Z</time>
      </trkpt>
      <trkpt lat="44.36484" lon="6.40161">
        <ele>1955</ele>
        <time>2022-06-08T21:58:48Z</time>
      </trkpt>
      <trkpt lat="44.36502" lon="6.40158">
        <ele>1957</ele>
        <time>2022-06-08T21:58:52Z</time>
      </trkpt>
      <trkpt lat="44.36517" lon="6.40159">
        <ele>1961</ele>
        <time>2022-06-08T21:58:56Z</time>
      </trkpt>
      <trkpt lat="44.36532" lon="6.4015">
        <ele>1960</ele>
        <time>2022-06-08T21:59:00Z</time>
      </trkpt>
      <trkpt lat="44.36573" lon="6.40147">
        <ele>1967</ele>
        <time>2022-06-08T21:59:09Z</time>
      </trkpt>
      <trkpt lat="44.36586" lon="6.40149">
        <ele>1970</ele>
        <time>2022-06-08T21:59:12Z</time>
      </trkpt>
      <trkpt lat="44.36614" lon="6.40162">
        <ele>1977</ele>
        <time>2022-06-08T21:59:19Z</time>
      </trkpt>
      <trkpt lat="44.36622" lon="6.40176">
        <ele>1983</ele>
        <time>2022-06-08T21:59:22Z</time>
      </trkpt>
      <trkpt lat="44.36626" lon="6.40193">
        <ele>1990</ele>
        <time>2022-06-08T21:59:25Z</time>
      </trkpt>
      <trkpt lat="44.36636" lon="6.40196">
        <ele>1991</ele>
        <time>2022-06-08T21:59:28Z</time>
      </trkpt>
      <trkpt lat="44.36645" lon="6.40189">
        <ele>1989</ele>
        <time>2022-06-08T21:59:30Z</time>
      </trkpt>
      <trkpt lat="44.36665" lon="6.40187">
        <ele>1990</ele>
        <time>2022-06-08T21:59:35Z</time>
      </trkpt>
      <trkpt lat="44.36692" lon="6.4019">
        <ele>1988</ele>
        <time>2022-06-08T21:59:41Z</time>
      </trkpt>
      <trkpt lat="44.36718" lon="6.40198">
        <ele>1988</ele>
        <time>2022-06-08T21:59:47Z</time>
      </trkpt>
      <trkpt lat="44.36727" lon="6.40204">
        <ele>1989</ele>
        <time>2022-06-08T21:59:50Z</time>
      </trkpt>
      <trkpt lat="44.36738" lon="6.40216">
        <ele>1992</ele>
        <time>2022-06-08T21:59:53Z</time>
      </trkpt>
      <trkpt lat="44.3674" lon="6.40225">
        <ele>1995</ele>
        <time>2022-06-08T21:59:54Z</time>
      </trkpt>
      <trkpt lat="44.36738" lon="6.40263">
        <ele>2009</ele>
        <time>2022-06-08T22:00:01Z</time>
      </trkpt>
      <trkpt lat="44.36743" lon="6.40297">
        <ele>2020</ele>
        <time>2022-06-08T22:00:07Z</time>
      </trkpt>
      <trkpt lat="44.36753" lon="6.40314">
        <ele>2023</ele>
        <time>2022-06-08T22:00:10Z</time>
      </trkpt>
      <trkpt lat="44.3677" lon="6.40331">
        <ele>2025</ele>
        <time>2022-06-08T22:00:15Z</time>
      </trkpt>
      <trkpt lat="44.3678" lon="6.4034">
        <ele>2026</ele>
        <time>2022-06-08T22:00:18Z</time>
      </trkpt>
      <trkpt lat="44.3679" lon="6.40345">
        <ele>2026</ele>
        <time>2022-06-08T22:00:20Z</time>
      </trkpt>
      <trkpt lat="44.36814" lon="6.40367">
        <ele>2030</ele>
        <time>2022-06-08T22:00:27Z</time>
      </trkpt>
      <trkpt lat="44.36823" lon="6.40371">
        <ele>2030</ele>
        <time>2022-06-08T22:00:29Z</time>
      </trkpt>
      <trkpt lat="44.36823" lon="6.40373">
        <ele>2031</ele>
        <time>2022-06-08T22:00:30Z</time>
      </trkpt>
      <trkpt lat="44.36824" lon="6.4037">
        <ele>2030</ele>
        <time>2022-06-08T22:00:30Z</time>
      </trkpt>
      <trkpt lat="44.36822" lon="6.4037">
        <ele>2030</ele>
        <time>2022-06-08T22:00:31Z</time>
      </trkpt>
      <trkpt lat="44.36821" lon="6.40376">
        <ele>2033</ele>
        <time>2022-06-08T22:00:32Z</time>
      </trkpt>
      <trkpt lat="44.36823" lon="6.40376">
        <ele>2033</ele>
        <time>2022-06-08T22:00:32Z</time>
      </trkpt>
      <trkpt lat="44.36823" lon="6.40373">
        <ele>2031</ele>
        <time>2022-06-08T22:00:33Z</time>
      </trkpt>
      <trkpt lat="44.36827" lon="6.40374">
        <ele>2031</ele>
        <time>2022-06-08T22:00:34Z</time>
      </trkpt>
      <trkpt lat="44.36835" lon="6.4038">
        <ele>2033</ele>
        <time>2022-06-08T22:00:36Z</time>
      </trkpt>
      <trkpt lat="44.36857" lon="6.40388">
        <ele>2040</ele>
        <time>2022-06-08T22:00:41Z</time>
      </trkpt>
      <trkpt lat="44.36856" lon="6.40383">
        <ele>2038</ele>
        <time>2022-06-08T22:00:42Z</time>
      </trkpt>
      <trkpt lat="44.36875" lon="6.40376">
        <ele>2038</ele>
        <time>2022-06-08T22:00:46Z</time>
      </trkpt>
      <trkpt lat="44.36896" lon="6.40375">
        <ele>2041</ele>
        <time>2022-06-08T22:00:51Z</time>
      </trkpt>
      <trkpt lat="44.36925" lon="6.40379">
        <ele>2049</ele>
        <time>2022-06-08T22:00:58Z</time>
      </trkpt>
      <trkpt lat="44.36958" lon="6.40371">
        <ele>2057</ele>
        <time>2022-06-08T22:01:06Z</time>
      </trkpt>
      <trkpt lat="44.36983" lon="6.40354">
        <ele>2060</ele>
        <time>2022-06-08T22:01:12Z</time>
      </trkpt>
      <trkpt lat="44.37027" lon="6.40309">
        <ele>2070</ele>
        <time>2022-06-08T22:01:25Z</time>
      </trkpt>
      <trkpt lat="44.37032" lon="6.40299">
        <ele>2071</ele>
        <time>2022-06-08T22:01:27Z</time>
      </trkpt>
      <trkpt lat="44.3705" lon="6.40279">
        <ele>2078</ele>
        <time>2022-06-08T22:01:33Z</time>
      </trkpt>
      <trkpt lat="44.37058" lon="6.40258">
        <ele>2078</ele>
        <time>2022-06-08T22:01:37Z</time>
      </trkpt>
      <trkpt lat="44.37071" lon="6.40197">
        <ele>2069</ele>
        <time>2022-06-08T22:01:47Z</time>
      </trkpt>
      <trkpt lat="44.37076" lon="6.4016">
        <ele>2062</ele>
        <time>2022-06-08T22:01:53Z</time>
      </trkpt>
      <trkpt lat="44.37071" lon="6.40135">
        <ele>2052</ele>
        <time>2022-06-08T22:01:58Z</time>
      </trkpt>
      <trkpt lat="44.37071" lon="6.40124">
        <ele>2049</ele>
        <time>2022-06-08T22:02:00Z</time>
      </trkpt>
      <trkpt lat="44.37089" lon="6.40085">
        <ele>2051</ele>
        <time>2022-06-08T22:02:07Z</time>
      </trkpt>
      <trkpt lat="44.37104" lon="6.40059">
        <ele>2048</ele>
        <time>2022-06-08T22:02:13Z</time>
      </trkpt>
      <trkpt lat="44.37119" lon="6.40039">
        <ele>2046</ele>
        <time>2022-06-08T22:02:18Z</time>
      </trkpt>
      <trkpt lat="44.37229" lon="6.39924">
        <ele>2038</ele>
        <time>2022-06-08T22:02:50Z</time>
      </trkpt>
      <trkpt lat="44.37238" lon="6.39912">
        <ele>2036</ele>
        <time>2022-06-08T22:02:53Z</time>
      </trkpt>
      <trkpt lat="44.37277" lon="6.39872">
        <ele>2028</ele>
        <time>2022-06-08T22:03:04Z</time>
      </trkpt>
      <trkpt lat="44.37302" lon="6.3985">
        <ele>2023</ele>
        <time>2022-06-08T22:03:11Z</time>
      </trkpt>
      <trkpt lat="44.37334" lon="6.39842">
        <ele>2027</ele>
        <time>2022-06-08T22:03:19Z</time>
      </trkpt>
      <trkpt lat="44.37344" lon="6.39837">
        <ele>2026</ele>
        <time>2022-06-08T22:03:21Z</time>
      </trkpt>
      <trkpt lat="44.37354" lon="6.39824">
        <ele>2022</ele>
        <time>2022-06-08T22:03:24Z</time>
      </trkpt>
      <trkpt lat="44.37362" lon="6.39821">
        <ele>2023</ele>
        <time>2022-06-08T22:03:26Z</time>
      </trkpt>
      <trkpt lat="44.37385" lon="6.39803">
        <ele>2021</ele>
        <time>2022-06-08T22:03:32Z</time>
      </trkpt>
      <trkpt lat="44.37408" lon="6.39789">
        <ele>2021</ele>
        <time>2022-06-08T22:03:38Z</time>
      </trkpt>
      <trkpt lat="44.37412" lon="6.39779">
        <ele>2019</ele>
        <time>2022-06-08T22:03:40Z</time>
      </trkpt>
      <trkpt lat="44.37463" lon="6.39713">
        <ele>2012</ele>
        <time>2022-06-08T22:03:56Z</time>
      </trkpt>
      <trkpt lat="44.37479" lon="6.39704">
        <ele>2013</ele>
        <time>2022-06-08T22:04:00Z</time>
      </trkpt>
      <trkpt lat="44.37492" lon="6.39705">
        <ele>2017</ele>
        <time>2022-06-08T22:04:03Z</time>
      </trkpt>
      <trkpt lat="44.37521" lon="6.39691">
        <ele>2019</ele>
        <time>2022-06-08T22:04:11Z</time>
      </trkpt>
      <trkpt lat="44.37542" lon="6.3969">
        <ele>2024</ele>
        <time>2022-06-08T22:04:15Z</time>
      </trkpt>
      <trkpt lat="44.37546" lon="6.39692">
        <ele>2025</ele>
        <time>2022-06-08T22:04:16Z</time>
      </trkpt>
      <trkpt lat="44.3755" lon="6.39687">
        <ele>2025</ele>
        <time>2022-06-08T22:04:18Z</time>
      </trkpt>
      <trkpt lat="44.37571" lon="6.39679">
        <ele>2027</ele>
        <time>2022-06-08T22:04:23Z</time>
      </trkpt>
      <trkpt lat="44.37589" lon="6.39676">
        <ele>2029</ele>
        <time>2022-06-08T22:04:27Z</time>
      </trkpt>
      <trkpt lat="44.37625" lon="6.3966">
        <ele>2028</ele>
        <time>2022-06-08T22:04:36Z</time>
      </trkpt>
      <trkpt lat="44.3766" lon="6.39657">
        <ele>2030</ele>
        <time>2022-06-08T22:04:44Z</time>
      </trkpt>
      <trkpt lat="44.37674" lon="6.39661">
        <ele>2033</ele>
        <time>2022-06-08T22:04:47Z</time>
      </trkpt>
      <trkpt lat="44.37687" lon="6.39671">
        <ele>2037</ele>
        <time>2022-06-08T22:04:51Z</time>
      </trkpt>
      <trkpt lat="44.37726" lon="6.3969">
        <ele>2044</ele>
        <time>2022-06-08T22:05:00Z</time>
      </trkpt>
      <trkpt lat="44.37751" lon="6.39696">
        <ele>2048</ele>
        <time>2022-06-08T22:05:06Z</time>
      </trkpt>
      <trkpt lat="44.37758" lon="6.39694">
        <ele>2048</ele>
        <time>2022-06-08T22:05:08Z</time>
      </trkpt>
      <trkpt lat="44.37771" lon="6.39682">
        <ele>2046</ele>
        <time>2022-06-08T22:05:12Z</time>
      </trkpt>
      <trkpt lat="44.37791" lon="6.39644">
        <ele>2035</ele>
        <time>2022-06-08T22:05:20Z</time>
      </trkpt>
      <trkpt lat="44.37798" lon="6.39638">
        <ele>2035</ele>
        <time>2022-06-08T22:05:21Z</time>
      </trkpt>
      <trkpt lat="44.37803" lon="6.39636">
        <ele>2035</ele>
        <time>2022-06-08T22:05:23Z</time>
      </trkpt>
      <trkpt lat="44.37814" lon="6.39642">
        <ele>2039</ele>
        <time>2022-06-08T22:05:25Z</time>
      </trkpt>
      <trkpt lat="44.37827" lon="6.39641">
        <ele>2040</ele>
        <time>2022-06-08T22:05:28Z</time>
      </trkpt>
      <trkpt lat="44.37834" lon="6.39645">
        <ele>2043</ele>
        <time>2022-06-08T22:05:30Z</time>
      </trkpt>
      <trkpt lat="44.37849" lon="6.3967">
        <ele>2050</ele>
        <time>2022-06-08T22:05:36Z</time>
      </trkpt>
      <trkpt lat="44.37881" lon="6.39704">
        <ele>2061</ele>
        <time>2022-06-08T22:05:45Z</time>
      </trkpt>
      <trkpt lat="44.37898" lon="6.39707">
        <ele>2061</ele>
        <time>2022-06-08T22:05:49Z</time>
      </trkpt>
      <trkpt lat="44.37903" lon="6.39712">
        <ele>2063</ele>
        <time>2022-06-08T22:05:51Z</time>
      </trkpt>
      <trkpt lat="44.37943" lon="6.39719">
        <ele>2060</ele>
        <time>2022-06-08T22:06:00Z</time>
      </trkpt>
      <trkpt lat="44.38" lon="6.39769">
        <ele>2076</ele>
        <time>2022-06-08T22:06:16Z</time>
      </trkpt>
      <trkpt lat="44.38033" lon="6.3979">
        <ele>2080</ele>
        <time>2022-06-08T22:06:24Z</time>
      </trkpt>
      <trkpt lat="44.38067" lon="6.39817">
        <ele>2085</ele>
        <time>2022-06-08T22:06:33Z</time>
      </trkpt>
      <trkpt lat="44.38089" lon="6.39829">
        <ele>2085</ele>
        <time>2022-06-08T22:06:39Z</time>
      </trkpt>
      <trkpt lat="44.38121" lon="6.39868">
        <ele>2098</ele>
        <time>2022-06-08T22:06:49Z</time>
      </trkpt>
      <trkpt lat="44.38152" lon="6.39887">
        <ele>2099</ele>
        <time>2022-06-08T22:06:57Z</time>
      </trkpt>
      <trkpt lat="44.38172" lon="6.39911">
        <ele>2103</ele>
        <time>2022-06-08T22:07:03Z</time>
      </trkpt>
      <trkpt lat="44.38201" lon="6.39916">
        <ele>2106</ele>
        <time>2022-06-08T22:07:10Z</time>
      </trkpt>
      <trkpt lat="44.38241" lon="6.39906">
        <ele>2104</ele>
        <time>2022-06-08T22:07:19Z</time>
      </trkpt>
      <trkpt lat="44.38318" lon="6.39899">
        <ele>2107</ele>
        <time>2022-06-08T22:07:37Z</time>
      </trkpt>
      <trkpt lat="44.38341" lon="6.39905">
        <ele>2108</ele>
        <time>2022-06-08T22:07:43Z</time>
      </trkpt>
      <trkpt lat="44.38349" lon="6.39926">
        <ele>2108</ele>
        <time>2022-06-08T22:07:47Z</time>
      </trkpt>
      <trkpt lat="44.3835" lon="6.39923">
        <ele>2108</ele>
        <time>2022-06-08T22:07:47Z</time>
      </trkpt>
      <trkpt lat="44.38348" lon="6.39926">
        <ele>2108</ele>
        <time>2022-06-08T22:07:48Z</time>
      </trkpt>
      <trkpt lat="44.38349" lon="6.39924">
        <ele>2108</ele>
        <time>2022-06-08T22:07:48Z</time>
      </trkpt>
      <trkpt lat="44.38347" lon="6.39923">
        <ele>2107</ele>
        <time>2022-06-08T22:07:49Z</time>
      </trkpt>
      <trkpt lat="44.38349" lon="6.39926">
        <ele>2108</ele>
        <time>2022-06-08T22:07:49Z</time>
      </trkpt>
      <trkpt lat="44.38347" lon="6.39924">
        <ele>2107</ele>
        <time>2022-06-08T22:07:50Z</time>
      </trkpt>
      <trkpt lat="44.38347" lon="6.39926">
        <ele>2108</ele>
        <time>2022-06-08T22:07:50Z</time>
      </trkpt>
      <trkpt lat="44.38349" lon="6.39926">
        <ele>2108</ele>
        <time>2022-06-08T22:07:51Z</time>
      </trkpt>
      <trkpt lat="44.38348" lon="6.39921">
        <ele>2107</ele>
        <time>2022-06-08T22:07:52Z</time>
      </trkpt>
      <trkpt lat="44.3835" lon="6.39925">
        <ele>2108</ele>
        <time>2022-06-08T22:07:52Z</time>
      </trkpt>
      <trkpt lat="44.38351" lon="6.39923">
        <ele>2108</ele>
        <time>2022-06-08T22:07:53Z</time>
      </trkpt>
      <trkpt lat="44.38348" lon="6.39927">
        <ele>2108</ele>
        <time>2022-06-08T22:07:54Z</time>
      </trkpt>
      <trkpt lat="44.38346" lon="6.39924">
        <ele>2107</ele>
        <time>2022-06-08T22:07:54Z</time>
      </trkpt>
      <trkpt lat="44.38347" lon="6.39926">
        <ele>2108</ele>
        <time>2022-06-08T22:07:55Z</time>
      </trkpt>
      <trkpt lat="44.38349" lon="6.39924">
        <ele>2108</ele>
        <time>2022-06-08T22:07:55Z</time>
      </trkpt>
      <trkpt lat="44.3835" lon="6.39927">
        <ele>2108</ele>
        <time>2022-06-08T22:07:56Z</time>
      </trkpt>
      <trkpt lat="44.38349" lon="6.39925">
        <ele>2108</ele>
        <time>2022-06-08T22:07:56Z</time>
      </trkpt>
      <trkpt lat="44.3835" lon="6.39927">
        <ele>2108</ele>
        <time>2022-06-08T22:07:57Z</time>
      </trkpt>
      <trkpt lat="44.38355" lon="6.39911">
        <ele>2108</ele>
        <time>2022-06-08T22:08:00Z</time>
      </trkpt>
      <trkpt lat="44.38359" lon="6.39909">
        <ele>2108</ele>
        <time>2022-06-08T22:08:01Z</time>
      </trkpt>
      <trkpt lat="44.38364" lon="6.3991">
        <ele>2108</ele>
        <time>2022-06-08T22:08:02Z</time>
      </trkpt>
      <trkpt lat="44.38432" lon="6.39953">
        <ele>2111</ele>
        <time>2022-06-08T22:08:19Z</time>
      </trkpt>
      <trkpt lat="44.38478" lon="6.39999">
        <ele>2112</ele>
        <time>2022-06-08T22:08:33Z</time>
      </trkpt>
      <trkpt lat="44.38533" lon="6.4004">
        <ele>2113</ele>
        <time>2022-06-08T22:08:47Z</time>
      </trkpt>
      <trkpt lat="44.38564" lon="6.40093">
        <ele>2111</ele>
        <time>2022-06-08T22:08:58Z</time>
      </trkpt>
      <trkpt lat="44.38576" lon="6.40108">
        <ele>2110</ele>
        <time>2022-06-08T22:09:02Z</time>
      </trkpt>
      <trkpt lat="44.38609" lon="6.40131">
        <ele>2106</ele>
        <time>2022-06-08T22:09:11Z</time>
      </trkpt>
      <trkpt lat="44.38617" lon="6.40133">
        <ele>2105</ele>
        <time>2022-06-08T22:09:13Z</time>
      </trkpt>
      <trkpt lat="44.38615" lon="6.40129">
        <ele>2106</ele>
        <time>2022-06-08T22:09:14Z</time>
      </trkpt>
      <trkpt lat="44.38587" lon="6.40118">
        <ele>2109</ele>
        <time>2022-06-08T22:09:20Z</time>
      </trkpt>
      <trkpt lat="44.38569" lon="6.401">
        <ele>2110</ele>
        <time>2022-06-08T22:09:26Z</time>
      </trkpt>
      <trkpt lat="44.38557" lon="6.40077">
        <ele>2112</ele>
        <time>2022-06-08T22:09:30Z</time>
      </trkpt>
      <trkpt lat="44.38568" lon="6.40058">
        <ele>2114</ele>
        <time>2022-06-08T22:09:34Z</time>
      </trkpt>
      <trkpt lat="44.38574" lon="6.40054">
        <ele>2114</ele>
        <time>2022-06-08T22:09:36Z</time>
      </trkpt>
      <trkpt lat="44.38583" lon="6.40055">
        <ele>2114</ele>
        <time>2022-06-08T22:09:38Z</time>
      </trkpt>
      <trkpt lat="44.38589" lon="6.40056">
        <ele>2114</ele>
        <time>2022-06-08T22:09:39Z</time>
      </trkpt>
      <trkpt lat="44.38601" lon="6.40067">
        <ele>2112</ele>
        <time>2022-06-08T22:09:43Z</time>
      </trkpt>
      <trkpt lat="44.38619" lon="6.40065">
        <ele>2112</ele>
        <time>2022-06-08T22:09:47Z</time>
      </trkpt>
      <trkpt lat="44.38647" lon="6.4003">
        <ele>2115</ele>
        <time>2022-06-08T22:09:56Z</time>
      </trkpt>
      <trkpt lat="44.38699" lon="6.4001">
        <ele>2116</ele>
        <time>2022-06-08T22:10:08Z</time>
      </trkpt>
      <trkpt lat="44.38712" lon="6.40002">
        <ele>2117</ele>
        <time>2022-06-08T22:10:12Z</time>
      </trkpt>
      <trkpt lat="44.38735" lon="6.39993">
        <ele>2119</ele>
        <time>2022-06-08T22:10:17Z</time>
      </trkpt>
      <trkpt lat="44.38761" lon="6.39987">
        <ele>2121</ele>
        <time>2022-06-08T22:10:23Z</time>
      </trkpt>
      <trkpt lat="44.38804" lon="6.39988">
        <ele>2125</ele>
        <time>2022-06-08T22:10:33Z</time>
      </trkpt>
      <trkpt lat="44.38817" lon="6.39977">
        <ele>2128</ele>
        <time>2022-06-08T22:10:37Z</time>
      </trkpt>
      <trkpt lat="44.38867" lon="6.39984">
        <ele>2129</ele>
        <time>2022-06-08T22:10:49Z</time>
      </trkpt>
      <trkpt lat="44.38876" lon="6.39982">
        <ele>2130</ele>
        <time>2022-06-08T22:10:51Z</time>
      </trkpt>
      <trkpt lat="44.38886" lon="6.39983">
        <ele>2130</ele>
        <time>2022-06-08T22:10:53Z</time>
      </trkpt>
      <trkpt lat="44.38904" lon="6.39978">
        <ele>2132</ele>
        <time>2022-06-08T22:10:57Z</time>
      </trkpt>
      <trkpt lat="44.3891" lon="6.39973">
        <ele>2133</ele>
        <time>2022-06-08T22:10:59Z</time>
      </trkpt>
      <trkpt lat="44.38938" lon="6.39996">
        <ele>2131</ele>
        <time>2022-06-08T22:11:07Z</time>
      </trkpt>
      <trkpt lat="44.38944" lon="6.40004">
        <ele>2130</ele>
        <time>2022-06-08T22:11:09Z</time>
      </trkpt>
      <trkpt lat="44.38949" lon="6.40006">
        <ele>2130</ele>
        <time>2022-06-08T22:11:10Z</time>
      </trkpt>
      <trkpt lat="44.38969" lon="6.40034">
        <ele>2127</ele>
        <time>2022-06-08T22:11:16Z</time>
      </trkpt>
      <trkpt lat="44.39012" lon="6.40052">
        <ele>2128</ele>
        <time>2022-06-08T22:11:27Z</time>
      </trkpt>
      <trkpt lat="44.39035" lon="6.40057">
        <ele>2130</ele>
        <time>2022-06-08T22:11:32Z</time>
      </trkpt>
      <trkpt lat="44.39049" lon="6.40073">
        <ele>2128</ele>
        <time>2022-06-08T22:11:37Z</time>
      </trkpt>
      <trkpt lat="44.39073" lon="6.4008">
        <ele>2130</ele>
        <time>2022-06-08T22:11:42Z</time>
      </trkpt>
      <trkpt lat="44.39084" lon="6.4008">
        <ele>2132</ele>
        <time>2022-06-08T22:11:45Z</time>
      </trkpt>
      <trkpt lat="44.39093" lon="6.40075">
        <ele>2132</ele>
        <time>2022-06-08T22:11:47Z</time>
      </trkpt>
      <trkpt lat="44.39106" lon="6.40078">
        <ele>2131</ele>
        <time>2022-06-08T22:11:50Z</time>
      </trkpt>
      <trkpt lat="44.39117" lon="6.40077">
        <ele>2130</ele>
        <time>2022-06-08T22:11:53Z</time>
      </trkpt>
      <trkpt lat="44.39144" lon="6.40069">
        <ele>2130</ele>
        <time>2022-06-08T22:11:59Z</time>
      </trkpt>
      <trkpt lat="44.39162" lon="6.40075">
        <ele>2128</ele>
        <time>2022-06-08T22:12:04Z</time>
      </trkpt>
      <trkpt lat="44.3917" lon="6.40071">
        <ele>2128</ele>
        <time>2022-06-08T22:12:06Z</time>
      </trkpt>
      <trkpt lat="44.39169" lon="6.40032">
        <ele>2129</ele>
        <time>2022-06-08T22:12:12Z</time>
      </trkpt>
      <trkpt lat="44.39171" lon="6.40028">
        <ele>2128</ele>
        <time>2022-06-08T22:12:13Z</time>
      </trkpt>
      <trkpt lat="44.39191" lon="6.40009">
        <ele>2124</ele>
        <time>2022-06-08T22:12:19Z</time>
      </trkpt>
      <trkpt lat="44.39209" lon="6.39983">
        <ele>2120</ele>
        <time>2022-06-08T22:12:25Z</time>
      </trkpt>
      <trkpt lat="44.39213" lon="6.39982">
        <ele>2120</ele>
        <time>2022-06-08T22:12:26Z</time>
      </trkpt>
      <trkpt lat="44.39226" lon="6.39986">
        <ele>2117</ele>
        <time>2022-06-08T22:12:29Z</time>
      </trkpt>
      <trkpt lat="44.39233" lon="6.39983">
        <ele>2115</ele>
        <time>2022-06-08T22:12:30Z</time>
      </trkpt>
      <trkpt lat="44.39258" lon="6.39948">
        <ele>2114</ele>
        <time>2022-06-08T22:12:39Z</time>
      </trkpt>
      <trkpt lat="44.39261" lon="6.39923">
        <ele>2115</ele>
        <time>2022-06-08T22:12:43Z</time>
      </trkpt>
      <trkpt lat="44.39292" lon="6.39838">
        <ele>2122</ele>
        <time>2022-06-08T22:12:59Z</time>
      </trkpt>
      <trkpt lat="44.39291" lon="6.39825">
        <ele>2123</ele>
        <time>2022-06-08T22:13:01Z</time>
      </trkpt>
      <trkpt lat="44.39297" lon="6.39804">
        <ele>2125</ele>
        <time>2022-06-08T22:13:05Z</time>
      </trkpt>
      <trkpt lat="44.39316" lon="6.39781">
        <ele>2127</ele>
        <time>2022-06-08T22:13:11Z</time>
      </trkpt>
      <trkpt lat="44.39323" lon="6.39767">
        <ele>2127</ele>
        <time>2022-06-08T22:13:13Z</time>
      </trkpt>
      <trkpt lat="44.3933" lon="6.39761">
        <ele>2127</ele>
        <time>2022-06-08T22:13:15Z</time>
      </trkpt>
      <trkpt lat="44.3936" lon="6.39749">
        <ele>2128</ele>
        <time>2022-06-08T22:13:23Z</time>
      </trkpt>
      <trkpt lat="44.39376" lon="6.39736">
        <ele>2129</ele>
        <time>2022-06-08T22:13:27Z</time>
      </trkpt>
      <trkpt lat="44.39405" lon="6.39722">
        <ele>2131</ele>
        <time>2022-06-08T22:13:34Z</time>
      </trkpt>
      <trkpt lat="44.39438" lon="6.39712">
        <ele>2135</ele>
        <time>2022-06-08T22:13:42Z</time>
      </trkpt>
      <trkpt lat="44.39458" lon="6.39719">
        <ele>2135</ele>
        <time>2022-06-08T22:13:47Z</time>
      </trkpt>
      <trkpt lat="44.39541" lon="6.39713">
        <ele>2142</ele>
        <time>2022-06-08T22:14:06Z</time>
      </trkpt>
      <trkpt lat="44.39562" lon="6.39719">
        <ele>2142</ele>
        <time>2022-06-08T22:14:11Z</time>
      </trkpt>
      <trkpt lat="44.39576" lon="6.39718">
        <ele>2144</ele>
        <time>2022-06-08T22:14:15Z</time>
      </trkpt>
      <trkpt lat="44.39581" lon="6.39713">
        <ele>2145</ele>
        <time>2022-06-08T22:14:16Z</time>
      </trkpt>
      <trkpt lat="44.39592" lon="6.39711">
        <ele>2146</ele>
        <time>2022-06-08T22:14:19Z</time>
      </trkpt>
      <trkpt lat="44.39616" lon="6.39711">
        <ele>2146</ele>
        <time>2022-06-08T22:14:24Z</time>
      </trkpt>
      <trkpt lat="44.39668" lon="6.39705">
        <ele>2148</ele>
        <time>2022-06-08T22:14:36Z</time>
      </trkpt>
      <trkpt lat="44.39693" lon="6.39693">
        <ele>2149</ele>
        <time>2022-06-08T22:14:42Z</time>
      </trkpt>
      <trkpt lat="44.39722" lon="6.39696">
        <ele>2145</ele>
        <time>2022-06-08T22:14:49Z</time>
      </trkpt>
      <trkpt lat="44.39731" lon="6.39691">
        <ele>2146</ele>
        <time>2022-06-08T22:14:52Z</time>
      </trkpt>
      <trkpt lat="44.39761" lon="6.39661">
        <ele>2148</ele>
        <time>2022-06-08T22:15:00Z</time>
      </trkpt>
      <trkpt lat="44.39771" lon="6.39636">
        <ele>2150</ele>
        <time>2022-06-08T22:15:05Z</time>
      </trkpt>
      <trkpt lat="44.39789" lon="6.39618">
        <ele>2147</ele>
        <time>2022-06-08T22:15:10Z</time>
      </trkpt>
      <trkpt lat="44.3982" lon="6.39573">
        <ele>2144</ele>
        <time>2022-06-08T22:15:21Z</time>
      </trkpt>
      <trkpt lat="44.3984" lon="6.39567">
        <ele>2138</ele>
        <time>2022-06-08T22:15:25Z</time>
      </trkpt>
      <trkpt lat="44.3985" lon="6.39568">
        <ele>2136</ele>
        <time>2022-06-08T22:15:28Z</time>
      </trkpt>
      <trkpt lat="44.39862" lon="6.39575">
        <ele>2132</ele>
        <time>2022-06-08T22:15:31Z</time>
      </trkpt>
      <trkpt lat="44.3987" lon="6.39572">
        <ele>2130</ele>
        <time>2022-06-08T22:15:33Z</time>
      </trkpt>
      <trkpt lat="44.39877" lon="6.39575">
        <ele>2128</ele>
        <time>2022-06-08T22:15:34Z</time>
      </trkpt>
      <trkpt lat="44.39881" lon="6.3957">
        <ele>2128</ele>
        <time>2022-06-08T22:15:36Z</time>
      </trkpt>
      <trkpt lat="44.39896" lon="6.39563">
        <ele>2126</ele>
        <time>2022-06-08T22:15:39Z</time>
      </trkpt>
      <trkpt lat="44.39927" lon="6.39538">
        <ele>2125</ele>
        <time>2022-06-08T22:15:48Z</time>
      </trkpt>
      <trkpt lat="44.39951" lon="6.39513">
        <ele>2128</ele>
        <time>2022-06-08T22:15:55Z</time>
      </trkpt>
      <trkpt lat="44.3997" lon="6.39481">
        <ele>2130</ele>
        <time>2022-06-08T22:16:02Z</time>
      </trkpt>
      <trkpt lat="44.39988" lon="6.39457">
        <ele>2130</ele>
        <time>2022-06-08T22:16:07Z</time>
      </trkpt>
      <trkpt lat="44.40013" lon="6.39435">
        <ele>2130</ele>
        <time>2022-06-08T22:16:14Z</time>
      </trkpt>
      <trkpt lat="44.40056" lon="6.39415">
        <ele>2135</ele>
        <time>2022-06-08T22:16:25Z</time>
      </trkpt>
      <trkpt lat="44.40073" lon="6.39394">
        <ele>2141</ele>
        <time>2022-06-08T22:16:30Z</time>
      </trkpt>
      <trkpt lat="44.40076" lon="6.39394">
        <ele>2141</ele>
        <time>2022-06-08T22:16:31Z</time>
      </trkpt>
      <trkpt lat="44.40073" lon="6.39393">
        <ele>2141</ele>
        <time>2022-06-08T22:16:32Z</time>
      </trkpt>
      <trkpt lat="44.40073" lon="6.39395">
        <ele>2140</ele>
        <time>2022-06-08T22:16:32Z</time>
      </trkpt>
      <trkpt lat="44.40075" lon="6.39393">
        <ele>2141</ele>
        <time>2022-06-08T22:16:32Z</time>
      </trkpt>
      <trkpt lat="44.40072" lon="6.39397">
        <ele>2140</ele>
        <time>2022-06-08T22:16:33Z</time>
      </trkpt>
      <trkpt lat="44.40072" lon="6.39392">
        <ele>2141</ele>
        <time>2022-06-08T22:16:34Z</time>
      </trkpt>
      <trkpt lat="44.40074" lon="6.39396">
        <ele>2140</ele>
        <time>2022-06-08T22:16:35Z</time>
      </trkpt>
      <trkpt lat="44.40072" lon="6.39396">
        <ele>2140</ele>
        <time>2022-06-08T22:16:36Z</time>
      </trkpt>
      <trkpt lat="44.40072" lon="6.39394">
        <ele>2140</ele>
        <time>2022-06-08T22:16:36Z</time>
      </trkpt>
      <trkpt lat="44.40089" lon="6.39416">
        <ele>2139</ele>
        <time>2022-06-08T22:16:41Z</time>
      </trkpt>
      <trkpt lat="44.40106" lon="6.39455">
        <ele>2135</ele>
        <time>2022-06-08T22:16:49Z</time>
      </trkpt>
      <trkpt lat="44.40108" lon="6.39465">
        <ele>2134</ele>
        <time>2022-06-08T22:16:51Z</time>
      </trkpt>
      <trkpt lat="44.40096" lon="6.39527">
        <ele>2122</ele>
        <time>2022-06-08T22:17:01Z</time>
      </trkpt>
      <trkpt lat="44.40099" lon="6.39581">
        <ele>2114</ele>
        <time>2022-06-08T22:17:10Z</time>
      </trkpt>
      <trkpt lat="44.40095" lon="6.39614">
        <ele>2109</ele>
        <time>2022-06-08T22:17:16Z</time>
      </trkpt>
      <trkpt lat="44.40072" lon="6.39657">
        <ele>2102</ele>
        <time>2022-06-08T22:17:25Z</time>
      </trkpt>
      <trkpt lat="44.40062" lon="6.39701">
        <ele>2097</ele>
        <time>2022-06-08T22:17:33Z</time>
      </trkpt>
      <trkpt lat="44.40062" lon="6.39728">
        <ele>2094</ele>
        <time>2022-06-08T22:17:37Z</time>
      </trkpt>
      <trkpt lat="44.40074" lon="6.39751">
        <ele>2090</ele>
        <time>2022-06-08T22:17:42Z</time>
      </trkpt>
      <trkpt lat="44.40074" lon="6.39778">
        <ele>2088</ele>
        <time>2022-06-08T22:17:46Z</time>
      </trkpt>
      <trkpt lat="44.40066" lon="6.39844">
        <ele>2081</ele>
        <time>2022-06-08T22:17:58Z</time>
      </trkpt>
      <trkpt lat="44.40067" lon="6.39885">
        <ele>2075</ele>
        <time>2022-06-08T22:18:04Z</time>
      </trkpt>
      <trkpt lat="44.4007" lon="6.39904">
        <ele>2072</ele>
        <time>2022-06-08T22:18:08Z</time>
      </trkpt>
      <trkpt lat="44.4008" lon="6.39938">
        <ele>2067</ele>
        <time>2022-06-08T22:18:14Z</time>
      </trkpt>
      <trkpt lat="44.40094" lon="6.39964">
        <ele>2066</ele>
        <time>2022-06-08T22:18:19Z</time>
      </trkpt>
      <trkpt lat="44.4011" lon="6.3999">
        <ele>2066</ele>
        <time>2022-06-08T22:18:25Z</time>
      </trkpt>
      <trkpt lat="44.40121" lon="6.39998">
        <ele>2067</ele>
        <time>2022-06-08T22:18:28Z</time>
      </trkpt>
      <trkpt lat="44.40127" lon="6.40013">
        <ele>2067</ele>
        <time>2022-06-08T22:18:31Z</time>
      </trkpt>
      <trkpt lat="44.40138" lon="6.40029">
        <ele>2067</ele>
        <time>2022-06-08T22:18:34Z</time>
      </trkpt>
      <trkpt lat="44.40149" lon="6.40071">
        <ele>2065</ele>
        <time>2022-06-08T22:18:42Z</time>
      </trkpt>
      <trkpt lat="44.40167" lon="6.40107">
        <ele>2063</ele>
        <time>2022-06-08T22:18:49Z</time>
      </trkpt>
      <trkpt lat="44.40173" lon="6.40115">
        <ele>2063</ele>
        <time>2022-06-08T22:18:51Z</time>
      </trkpt>
      <trkpt lat="44.40181" lon="6.40119">
        <ele>2064</ele>
        <time>2022-06-08T22:18:53Z</time>
      </trkpt>
      <trkpt lat="44.40192" lon="6.40113">
        <ele>2065</ele>
        <time>2022-06-08T22:18:56Z</time>
      </trkpt>
      <trkpt lat="44.40211" lon="6.40118">
        <ele>2067</ele>
        <time>2022-06-08T22:19:00Z</time>
      </trkpt>
      <trkpt lat="44.40214" lon="6.40122">
        <ele>2067</ele>
        <time>2022-06-08T22:19:01Z</time>
      </trkpt>
      <trkpt lat="44.40222" lon="6.40156">
        <ele>2064</ele>
        <time>2022-06-08T22:19:07Z</time>
      </trkpt>
      <trkpt lat="44.40231" lon="6.40167">
        <ele>2063</ele>
        <time>2022-06-08T22:19:10Z</time>
      </trkpt>
      <trkpt lat="44.40233" lon="6.40181">
        <ele>2062</ele>
        <time>2022-06-08T22:19:13Z</time>
      </trkpt>
      <trkpt lat="44.40236" lon="6.40184">
        <ele>2062</ele>
        <time>2022-06-08T22:19:13Z</time>
      </trkpt>
      <trkpt lat="44.40234" lon="6.40186">
        <ele>2062</ele>
        <time>2022-06-08T22:19:14Z</time>
      </trkpt>
      <trkpt lat="44.40236" lon="6.40184">
        <ele>2062</ele>
        <time>2022-06-08T22:19:15Z</time>
      </trkpt>
      <trkpt lat="44.40252" lon="6.4021">
        <ele>2061</ele>
        <time>2022-06-08T22:19:20Z</time>
      </trkpt>
      <trkpt lat="44.40254" lon="6.40208">
        <ele>2061</ele>
        <time>2022-06-08T22:19:21Z</time>
      </trkpt>
      <trkpt lat="44.40273" lon="6.40213">
        <ele>2064</ele>
        <time>2022-06-08T22:19:25Z</time>
      </trkpt>
      <trkpt lat="44.4031" lon="6.40239">
        <ele>2068</ele>
        <time>2022-06-08T22:19:35Z</time>
      </trkpt>
      <trkpt lat="44.40323" lon="6.40271">
        <ele>2067</ele>
        <time>2022-06-08T22:19:41Z</time>
      </trkpt>
      <trkpt lat="44.40323" lon="6.40286">
        <ele>2066</ele>
        <time>2022-06-08T22:19:44Z</time>
      </trkpt>
      <trkpt lat="44.40325" lon="6.40289">
        <ele>2067</ele>
        <time>2022-06-08T22:19:44Z</time>
      </trkpt>
      <trkpt lat="44.40326" lon="6.40319">
        <ele>2065</ele>
        <time>2022-06-08T22:19:49Z</time>
      </trkpt>
      <trkpt lat="44.40323" lon="6.40348">
        <ele>2064</ele>
        <time>2022-06-08T22:19:54Z</time>
      </trkpt>
      <trkpt lat="44.40314" lon="6.40376">
        <ele>2062</ele>
        <time>2022-06-08T22:19:59Z</time>
      </trkpt>
      <trkpt lat="44.40289" lon="6.40421">
        <ele>2056</ele>
        <time>2022-06-08T22:20:09Z</time>
      </trkpt>
      <trkpt lat="44.40286" lon="6.40431">
        <ele>2054</ele>
        <time>2022-06-08T22:20:11Z</time>
      </trkpt>
      <trkpt lat="44.40286" lon="6.40446">
        <ele>2052</ele>
        <time>2022-06-08T22:20:13Z</time>
      </trkpt>
      <trkpt lat="44.40287" lon="6.40443">
        <ele>2053</ele>
        <time>2022-06-08T22:20:14Z</time>
      </trkpt>
      <trkpt lat="44.40285" lon="6.40443">
        <ele>2052</ele>
        <time>2022-06-08T22:20:14Z</time>
      </trkpt>
      <trkpt lat="44.40286" lon="6.40446">
        <ele>2052</ele>
        <time>2022-06-08T22:20:15Z</time>
      </trkpt>
      <trkpt lat="44.40284" lon="6.40441">
        <ele>2053</ele>
        <time>2022-06-08T22:20:16Z</time>
      </trkpt>
      <trkpt lat="44.40289" lon="6.40442">
        <ele>2053</ele>
        <time>2022-06-08T22:20:17Z</time>
      </trkpt>
      <trkpt lat="44.40286" lon="6.40442">
        <ele>2053</ele>
        <time>2022-06-08T22:20:18Z</time>
      </trkpt>
      <trkpt lat="44.40288" lon="6.40443">
        <ele>2053</ele>
        <time>2022-06-08T22:20:18Z</time>
      </trkpt>
      <trkpt lat="44.4029" lon="6.4046">
        <ele>2051</ele>
        <time>2022-06-08T22:20:21Z</time>
      </trkpt>
      <trkpt lat="44.40298" lon="6.40475">
        <ele>2051</ele>
        <time>2022-06-08T22:20:24Z</time>
      </trkpt>
      <trkpt lat="44.40299" lon="6.40511">
        <ele>2045</ele>
        <time>2022-06-08T22:20:30Z</time>
      </trkpt>
      <trkpt lat="44.40305" lon="6.40537">
        <ele>2042</ele>
        <time>2022-06-08T22:20:35Z</time>
      </trkpt>
      <trkpt lat="44.40299" lon="6.40568">
        <ele>2034</ele>
        <time>2022-06-08T22:20:40Z</time>
      </trkpt>
      <trkpt lat="44.40295" lon="6.40582">
        <ele>2030</ele>
        <time>2022-06-08T22:20:43Z</time>
      </trkpt>
      <trkpt lat="44.4029" lon="6.40589">
        <ele>2027</ele>
        <time>2022-06-08T22:20:44Z</time>
      </trkpt>
      <trkpt lat="44.40282" lon="6.40575">
        <ele>2026</ele>
        <time>2022-06-08T22:20:47Z</time>
      </trkpt>
      <trkpt lat="44.40269" lon="6.40568">
        <ele>2023</ele>
        <time>2022-06-08T22:20:50Z</time>
      </trkpt>
      <trkpt lat="44.40253" lon="6.40638">
        <ele>2008</ele>
        <time>2022-06-08T22:21:03Z</time>
      </trkpt>
      <trkpt lat="44.40235" lon="6.40692">
        <ele>1999</ele>
        <time>2022-06-08T22:21:13Z</time>
      </trkpt>
      <trkpt lat="44.40221" lon="6.4071">
        <ele>1994</ele>
        <time>2022-06-08T22:21:17Z</time>
      </trkpt>
      <trkpt lat="44.40202" lon="6.40761">
        <ele>1984</ele>
        <time>2022-06-08T22:21:27Z</time>
      </trkpt>
      <trkpt lat="44.40169" lon="6.40806">
        <ele>1972</ele>
        <time>2022-06-08T22:21:37Z</time>
      </trkpt>
      <trkpt lat="44.40169" lon="6.40811">
        <ele>1972</ele>
        <time>2022-06-08T22:21:38Z</time>
      </trkpt>
      <trkpt lat="44.40159" lon="6.40828">
        <ele>1969</ele>
        <time>2022-06-08T22:21:42Z</time>
      </trkpt>
      <trkpt lat="44.40143" lon="6.4087">
        <ele>1966</ele>
        <time>2022-06-08T22:21:50Z</time>
      </trkpt>
      <trkpt lat="44.40149" lon="6.40939">
        <ele>1962</ele>
        <time>2022-06-08T22:22:01Z</time>
      </trkpt>
      <trkpt lat="44.40152" lon="6.40955">
        <ele>1961</ele>
        <time>2022-06-08T22:22:04Z</time>
      </trkpt>
      <trkpt lat="44.40163" lon="6.4096">
        <ele>1962</ele>
        <time>2022-06-08T22:22:07Z</time>
      </trkpt>
      <trkpt lat="44.40166" lon="6.40967">
        <ele>1961</ele>
        <time>2022-06-08T22:22:08Z</time>
      </trkpt>
      <trkpt lat="44.40174" lon="6.41005">
        <ele>1959</ele>
        <time>2022-06-08T22:22:15Z</time>
      </trkpt>
      <trkpt lat="44.40182" lon="6.41023">
        <ele>1959</ele>
        <time>2022-06-08T22:22:18Z</time>
      </trkpt>
      <trkpt lat="44.40192" lon="6.41029">
        <ele>1961</ele>
        <time>2022-06-08T22:22:21Z</time>
      </trkpt>
      <trkpt lat="44.40192" lon="6.41025">
        <ele>1961</ele>
        <time>2022-06-08T22:22:22Z</time>
      </trkpt>
      <trkpt lat="44.40192" lon="6.41031">
        <ele>1960</ele>
        <time>2022-06-08T22:22:23Z</time>
      </trkpt>
      <trkpt lat="44.402" lon="6.41033">
        <ele>1962</ele>
        <time>2022-06-08T22:22:25Z</time>
      </trkpt>
      <trkpt lat="44.40221" lon="6.41031">
        <ele>1967</ele>
        <time>2022-06-08T22:22:29Z</time>
      </trkpt>
      <trkpt lat="44.40231" lon="6.41026">
        <ele>1970</ele>
        <time>2022-06-08T22:22:32Z</time>
      </trkpt>
      <trkpt lat="44.40244" lon="6.41028">
        <ele>1973</ele>
        <time>2022-06-08T22:22:35Z</time>
      </trkpt>
      <trkpt lat="44.40244" lon="6.4105">
        <ele>1971</ele>
        <time>2022-06-08T22:22:39Z</time>
      </trkpt>
      <trkpt lat="44.40251" lon="6.41077">
        <ele>1971</ele>
        <time>2022-06-08T22:22:43Z</time>
      </trkpt>
      <trkpt lat="44.40252" lon="6.41094">
        <ele>1970</ele>
        <time>2022-06-08T22:22:46Z</time>
      </trkpt>
      <trkpt lat="44.40277" lon="6.41158">
        <ele>1977</ele>
        <time>2022-06-08T22:22:58Z</time>
      </trkpt>
      <trkpt lat="44.40284" lon="6.41165">
        <ele>1979</ele>
        <time>2022-06-08T22:23:00Z</time>
      </trkpt>
      <trkpt lat="44.40289" lon="6.41176">
        <ele>1980</ele>
        <time>2022-06-08T22:23:03Z</time>
      </trkpt>
      <trkpt lat="44.40303" lon="6.4123">
        <ele>1978</ele>
        <time>2022-06-08T22:23:12Z</time>
      </trkpt>
      <trkpt lat="44.40323" lon="6.41275">
        <ele>1981</ele>
        <time>2022-06-08T22:23:21Z</time>
      </trkpt>
      <trkpt lat="44.40329" lon="6.41284">
        <ele>1983</ele>
        <time>2022-06-08T22:23:23Z</time>
      </trkpt>
      <trkpt lat="44.40337" lon="6.41305">
        <ele>1985</ele>
        <time>2022-06-08T22:23:27Z</time>
      </trkpt>
      <trkpt lat="44.40338" lon="6.41316">
        <ele>1985</ele>
        <time>2022-06-08T22:23:29Z</time>
      </trkpt>
      <trkpt lat="44.40348" lon="6.41328">
        <ele>1987</ele>
        <time>2022-06-08T22:23:32Z</time>
      </trkpt>
      <trkpt lat="44.40354" lon="6.41354">
        <ele>1988</ele>
        <time>2022-06-08T22:23:37Z</time>
      </trkpt>
      <trkpt lat="44.40362" lon="6.41374">
        <ele>1990</ele>
        <time>2022-06-08T22:23:40Z</time>
      </trkpt>
      <trkpt lat="44.40364" lon="6.41407">
        <ele>1991</ele>
        <time>2022-06-08T22:23:46Z</time>
      </trkpt>
      <trkpt lat="44.40378" lon="6.41463">
        <ele>1991</ele>
        <time>2022-06-08T22:23:56Z</time>
      </trkpt>
      <trkpt lat="44.40397" lon="6.41498">
        <ele>1997</ele>
        <time>2022-06-08T22:24:03Z</time>
      </trkpt>
      <trkpt lat="44.40411" lon="6.41518">
        <ele>1999</ele>
        <time>2022-06-08T22:24:08Z</time>
      </trkpt>
      <trkpt lat="44.40414" lon="6.41529">
        <ele>1998</ele>
        <time>2022-06-08T22:24:10Z</time>
      </trkpt>
      <trkpt lat="44.40442" lon="6.41587">
        <ele>1999</ele>
        <time>2022-06-08T22:24:22Z</time>
      </trkpt>
      <trkpt lat="44.40445" lon="6.416">
        <ele>1997</ele>
        <time>2022-06-08T22:24:24Z</time>
      </trkpt>
      <trkpt lat="44.40456" lon="6.41626">
        <ele>1995</ele>
        <time>2022-06-08T22:24:29Z</time>
      </trkpt>
      <trkpt lat="44.40464" lon="6.41639">
        <ele>1995</ele>
        <time>2022-06-08T22:24:32Z</time>
      </trkpt>
      <trkpt lat="44.40505" lon="6.41655">
        <ele>2005</ele>
        <time>2022-06-08T22:24:42Z</time>
      </trkpt>
      <trkpt lat="44.40522" lon="6.41665">
        <ele>2006</ele>
        <time>2022-06-08T22:24:46Z</time>
      </trkpt>
      <trkpt lat="44.40534" lon="6.41677">
        <ele>2006</ele>
        <time>2022-06-08T22:24:49Z</time>
      </trkpt>
      <trkpt lat="44.40547" lon="6.41693">
        <ele>2004</ele>
        <time>2022-06-08T22:24:53Z</time>
      </trkpt>
      <trkpt lat="44.40553" lon="6.41706">
        <ele>2002</ele>
        <time>2022-06-08T22:24:56Z</time>
      </trkpt>
      <trkpt lat="44.40553" lon="6.41721">
        <ele>1998</ele>
        <time>2022-06-08T22:24:59Z</time>
      </trkpt>
      <trkpt lat="44.40549" lon="6.41731">
        <ele>1994</ele>
        <time>2022-06-08T22:25:00Z</time>
      </trkpt>
      <trkpt lat="44.4056" lon="6.41755">
        <ele>1991</ele>
        <time>2022-06-08T22:25:05Z</time>
      </trkpt>
      <trkpt lat="44.40574" lon="6.41764">
        <ele>1993</ele>
        <time>2022-06-08T22:25:09Z</time>
      </trkpt>
      <trkpt lat="44.40578" lon="6.41764">
        <ele>1994</ele>
        <time>2022-06-08T22:25:10Z</time>
      </trkpt>
      <trkpt lat="44.40587" lon="6.41757">
        <ele>1995</ele>
        <time>2022-06-08T22:25:12Z</time>
      </trkpt>
      <trkpt lat="44.40594" lon="6.41758">
        <ele>1994</ele>
        <time>2022-06-08T22:25:14Z</time>
      </trkpt>
      <trkpt lat="44.40604" lon="6.41769">
        <ele>1990</ele>
        <time>2022-06-08T22:25:17Z</time>
      </trkpt>
      <trkpt lat="44.4061" lon="6.41771">
        <ele>1989</ele>
        <time>2022-06-08T22:25:18Z</time>
      </trkpt>
      <trkpt lat="44.40614" lon="6.41783">
        <ele>1986</ele>
        <time>2022-06-08T22:25:20Z</time>
      </trkpt>
      <trkpt lat="44.40617" lon="6.41781">
        <ele>1986</ele>
        <time>2022-06-08T22:25:21Z</time>
      </trkpt>
      <trkpt lat="44.40619" lon="6.41783">
        <ele>1985</ele>
        <time>2022-06-08T22:25:22Z</time>
      </trkpt>
      <trkpt lat="44.40618" lon="6.41789">
        <ele>1984</ele>
        <time>2022-06-08T22:25:23Z</time>
      </trkpt>
      <trkpt lat="44.40623" lon="6.41782">
        <ele>1984</ele>
        <time>2022-06-08T22:25:24Z</time>
      </trkpt>
      <trkpt lat="44.40636" lon="6.41774">
        <ele>1982</ele>
        <time>2022-06-08T22:25:28Z</time>
      </trkpt>
      <trkpt lat="44.40654" lon="6.41771">
        <ele>1978</ele>
        <time>2022-06-08T22:25:32Z</time>
      </trkpt>
      <trkpt lat="44.40665" lon="6.41766">
        <ele>1977</ele>
        <time>2022-06-08T22:25:35Z</time>
      </trkpt>
      <trkpt lat="44.40673" lon="6.41759">
        <ele>1977</ele>
        <time>2022-06-08T22:25:37Z</time>
      </trkpt>
      <trkpt lat="44.40685" lon="6.41763">
        <ele>1973</ele>
        <time>2022-06-08T22:25:40Z</time>
      </trkpt>
      <trkpt lat="44.40716" lon="6.41763">
        <ele>1964</ele>
        <time>2022-06-08T22:25:47Z</time>
      </trkpt>
      <trkpt lat="44.40738" lon="6.41753">
        <ele>1963</ele>
        <time>2022-06-08T22:25:52Z</time>
      </trkpt>
      <trkpt lat="44.40757" lon="6.41755">
        <ele>1956</ele>
        <time>2022-06-08T22:25:57Z</time>
      </trkpt>
      <trkpt lat="44.4077" lon="6.4176">
        <ele>1948</ele>
        <time>2022-06-08T22:26:00Z</time>
      </trkpt>
      <trkpt lat="44.40788" lon="6.41759">
        <ele>1942</ele>
        <time>2022-06-08T22:26:04Z</time>
      </trkpt>
      <trkpt lat="44.408" lon="6.41761">
        <ele>1937</ele>
        <time>2022-06-08T22:26:07Z</time>
      </trkpt>
      <trkpt lat="44.40814" lon="6.41755">
        <ele>1934</ele>
        <time>2022-06-08T22:26:10Z</time>
      </trkpt>
      <trkpt lat="44.40823" lon="6.41758">
        <ele>1930</ele>
        <time>2022-06-08T22:26:13Z</time>
      </trkpt>
      <trkpt lat="44.40824" lon="6.41768">
        <ele>1925</ele>
        <time>2022-06-08T22:26:14Z</time>
      </trkpt>
      <trkpt lat="44.4084" lon="6.41767">
        <ele>1920</ele>
        <time>2022-06-08T22:26:18Z</time>
      </trkpt>
      <trkpt lat="44.40868" lon="6.41734">
        <ele>1928</ele>
        <time>2022-06-08T22:26:27Z</time>
      </trkpt>
      <trkpt lat="44.40872" lon="6.41731">
        <ele>1929</ele>
        <time>2022-06-08T22:26:28Z</time>
      </trkpt>
      <trkpt lat="44.409" lon="6.41724">
        <ele>1925</ele>
        <time>2022-06-08T22:26:34Z</time>
      </trkpt>
      <trkpt lat="44.40905" lon="6.41721">
        <ele>1925</ele>
        <time>2022-06-08T22:26:36Z</time>
      </trkpt>
      <trkpt lat="44.40919" lon="6.417">
        <ele>1931</ele>
        <time>2022-06-08T22:26:40Z</time>
      </trkpt>
      <trkpt lat="44.40929" lon="6.41699">
        <ele>1931</ele>
        <time>2022-06-08T22:26:43Z</time>
      </trkpt>
      <trkpt lat="44.40932" lon="6.41707">
        <ele>1927</ele>
        <time>2022-06-08T22:26:44Z</time>
      </trkpt>
      <trkpt lat="44.40951" lon="6.41712">
        <ele>1924</ele>
        <time>2022-06-08T22:26:49Z</time>
      </trkpt>
      <trkpt lat="44.40956" lon="6.41725">
        <ele>1919</ele>
        <time>2022-06-08T22:26:51Z</time>
      </trkpt>
      <trkpt lat="44.40974" lon="6.41742">
        <ele>1912</ele>
        <time>2022-06-08T22:26:56Z</time>
      </trkpt>
      <trkpt lat="44.40982" lon="6.41756">
        <ele>1905</ele>
        <time>2022-06-08T22:26:59Z</time>
      </trkpt>
      <trkpt lat="44.40998" lon="6.41773">
        <ele>1896</ele>
        <time>2022-06-08T22:27:04Z</time>
      </trkpt>
      <trkpt lat="44.41001" lon="6.41791">
        <ele>1887</ele>
        <time>2022-06-08T22:27:07Z</time>
      </trkpt>
      <trkpt lat="44.41006" lon="6.41804">
        <ele>1880</ele>
        <time>2022-06-08T22:27:09Z</time>
      </trkpt>
      <trkpt lat="44.41025" lon="6.41821">
        <ele>1872</ele>
        <time>2022-06-08T22:27:15Z</time>
      </trkpt>
      <trkpt lat="44.41035" lon="6.4182">
        <ele>1873</ele>
        <time>2022-06-08T22:27:17Z</time>
      </trkpt>
      <trkpt lat="44.41054" lon="6.41812">
        <ele>1878</ele>
        <time>2022-06-08T22:27:22Z</time>
      </trkpt>
      <trkpt lat="44.41066" lon="6.41813">
        <ele>1878</ele>
        <time>2022-06-08T22:27:24Z</time>
      </trkpt>
      <trkpt lat="44.4109" lon="6.4184">
        <ele>1868</ele>
        <time>2022-06-08T22:27:32Z</time>
      </trkpt>
      <trkpt lat="44.411" lon="6.41835">
        <ele>1871</ele>
        <time>2022-06-08T22:27:34Z</time>
      </trkpt>
      <trkpt lat="44.41109" lon="6.41836">
        <ele>1872</ele>
        <time>2022-06-08T22:27:36Z</time>
      </trkpt>
      <trkpt lat="44.4112" lon="6.41831">
        <ele>1875</ele>
        <time>2022-06-08T22:27:39Z</time>
      </trkpt>
      <trkpt lat="44.41139" lon="6.41811">
        <ele>1885</ele>
        <time>2022-06-08T22:27:45Z</time>
      </trkpt>
      <trkpt lat="44.41145" lon="6.41811">
        <ele>1885</ele>
        <time>2022-06-08T22:27:46Z</time>
      </trkpt>
      <trkpt lat="44.41164" lon="6.41845">
        <ele>1876</ele>
        <time>2022-06-08T22:27:53Z</time>
      </trkpt>
      <trkpt lat="44.41168" lon="6.41865">
        <ele>1870</ele>
        <time>2022-06-08T22:27:57Z</time>
      </trkpt>
      <trkpt lat="44.41168" lon="6.41883">
        <ele>1863</ele>
        <time>2022-06-08T22:28:00Z</time>
      </trkpt>
      <trkpt lat="44.41179" lon="6.41911">
        <ele>1859</ele>
        <time>2022-06-08T22:28:05Z</time>
      </trkpt>
      <trkpt lat="44.41193" lon="6.41969">
        <ele>1847</ele>
        <time>2022-06-08T22:28:15Z</time>
      </trkpt>
      <trkpt lat="44.41182" lon="6.42051">
        <ele>1819</ele>
        <time>2022-06-08T22:28:29Z</time>
      </trkpt>
      <trkpt lat="44.4118" lon="6.42084">
        <ele>1809</ele>
        <time>2022-06-08T22:28:35Z</time>
      </trkpt>
      <trkpt lat="44.41186" lon="6.42112">
        <ele>1806</ele>
        <time>2022-06-08T22:28:39Z</time>
      </trkpt>
      <trkpt lat="44.41197" lon="6.42147">
        <ele>1803</ele>
        <time>2022-06-08T22:28:46Z</time>
      </trkpt>
      <trkpt lat="44.41205" lon="6.42164">
        <ele>1801</ele>
        <time>2022-06-08T22:28:49Z</time>
      </trkpt>
      <trkpt lat="44.41223" lon="6.42185">
        <ele>1801</ele>
        <time>2022-06-08T22:28:55Z</time>
      </trkpt>
      <trkpt lat="44.41254" lon="6.42211">
        <ele>1800</ele>
        <time>2022-06-08T22:29:03Z</time>
      </trkpt>
      <trkpt lat="44.41268" lon="6.42216">
        <ele>1797</ele>
        <time>2022-06-08T22:29:07Z</time>
      </trkpt>
      <trkpt lat="44.41296" lon="6.42231">
        <ele>1788</ele>
        <time>2022-06-08T22:29:14Z</time>
      </trkpt>
      <trkpt lat="44.41308" lon="6.42233">
        <ele>1786</ele>
        <time>2022-06-08T22:29:16Z</time>
      </trkpt>
      <trkpt lat="44.41314" lon="6.42231">
        <ele>1787</ele>
        <time>2022-06-08T22:29:18Z</time>
      </trkpt>
      <trkpt lat="44.41332" lon="6.42216">
        <ele>1791</ele>
        <time>2022-06-08T22:29:23Z</time>
      </trkpt>
      <trkpt lat="44.41339" lon="6.42221">
        <ele>1786</ele>
        <time>2022-06-08T22:29:25Z</time>
      </trkpt>
      <trkpt lat="44.4134" lon="6.4221">
        <ele>1791</ele>
        <time>2022-06-08T22:29:26Z</time>
      </trkpt>
      <trkpt lat="44.41335" lon="6.42209">
        <ele>1793</ele>
        <time>2022-06-08T22:29:28Z</time>
      </trkpt>
      <trkpt lat="44.41341" lon="6.42211">
        <ele>1790</ele>
        <time>2022-06-08T22:29:29Z</time>
      </trkpt>
      <trkpt lat="44.41337" lon="6.42208">
        <ele>1793</ele>
        <time>2022-06-08T22:29:30Z</time>
      </trkpt>
      <trkpt lat="44.41316" lon="6.42229">
        <ele>1787</ele>
        <time>2022-06-08T22:29:36Z</time>
      </trkpt>
      <trkpt lat="44.41297" lon="6.42243">
        <ele>1784</ele>
        <time>2022-06-08T22:29:41Z</time>
      </trkpt>
      <trkpt lat="44.41286" lon="6.42265">
        <ele>1775</ele>
        <time>2022-06-08T22:29:46Z</time>
      </trkpt>
      <trkpt lat="44.41275" lon="6.42273">
        <ele>1773</ele>
        <time>2022-06-08T22:29:48Z</time>
      </trkpt>
      <trkpt lat="44.41266" lon="6.42271">
        <ele>1775</ele>
        <time>2022-06-08T22:29:51Z</time>
      </trkpt>
      <trkpt lat="44.41237" lon="6.42272">
        <ele>1774</ele>
        <time>2022-06-08T22:29:57Z</time>
      </trkpt>
      <trkpt lat="44.41221" lon="6.42278">
        <ele>1768</ele>
        <time>2022-06-08T22:30:01Z</time>
      </trkpt>
      <trkpt lat="44.41188" lon="6.42278">
        <ele>1761</ele>
        <time>2022-06-08T22:30:09Z</time>
      </trkpt>
      <trkpt lat="44.41198" lon="6.4231">
        <ele>1750</ele>
        <time>2022-06-08T22:30:15Z</time>
      </trkpt>
      <trkpt lat="44.41198" lon="6.42312">
        <ele>1749</ele>
        <time>2022-06-08T22:30:15Z</time>
      </trkpt>
      <trkpt lat="44.41194" lon="6.42312">
        <ele>1748</ele>
        <time>2022-06-08T22:30:16Z</time>
      </trkpt>
      <trkpt lat="44.41208" lon="6.42339">
        <ele>1740</ele>
        <time>2022-06-08T22:30:22Z</time>
      </trkpt>
      <trkpt lat="44.41209" lon="6.42345">
        <ele>1738</ele>
        <time>2022-06-08T22:30:23Z</time>
      </trkpt>
      <trkpt lat="44.41202" lon="6.42341">
        <ele>1738</ele>
        <time>2022-06-08T22:30:24Z</time>
      </trkpt>
      <trkpt lat="44.41195" lon="6.42348">
        <ele>1734</ele>
        <time>2022-06-08T22:30:26Z</time>
      </trkpt>
      <trkpt lat="44.41188" lon="6.42351">
        <ele>1732</ele>
        <time>2022-06-08T22:30:28Z</time>
      </trkpt>
      <trkpt lat="44.41192" lon="6.42362">
        <ele>1728</ele>
        <time>2022-06-08T22:30:30Z</time>
      </trkpt>
      <trkpt lat="44.4121" lon="6.42387">
        <ele>1722</ele>
        <time>2022-06-08T22:30:36Z</time>
      </trkpt>
      <trkpt lat="44.4122" lon="6.42397">
        <ele>1719</ele>
        <time>2022-06-08T22:30:39Z</time>
      </trkpt>
      <trkpt lat="44.41238" lon="6.42409">
        <ele>1717</ele>
        <time>2022-06-08T22:30:44Z</time>
      </trkpt>
      <trkpt lat="44.41263" lon="6.4242">
        <ele>1712</ele>
        <time>2022-06-08T22:30:50Z</time>
      </trkpt>
      <trkpt lat="44.41287" lon="6.4242">
        <ele>1708</ele>
        <time>2022-06-08T22:30:55Z</time>
      </trkpt>
      <trkpt lat="44.41281" lon="6.42428">
        <ele>1706</ele>
        <time>2022-06-08T22:30:57Z</time>
      </trkpt>
      <trkpt lat="44.41289" lon="6.42432">
        <ele>1703</ele>
        <time>2022-06-08T22:30:59Z</time>
      </trkpt>
      <trkpt lat="44.41307" lon="6.42429">
        <ele>1701</ele>
        <time>2022-06-08T22:31:03Z</time>
      </trkpt>
      <trkpt lat="44.41311" lon="6.4243">
        <ele>1700</ele>
        <time>2022-06-08T22:31:04Z</time>
      </trkpt>
      <trkpt lat="44.41315" lon="6.42438">
        <ele>1696</ele>
        <time>2022-06-08T22:31:06Z</time>
      </trkpt>
      <trkpt lat="44.4134" lon="6.42443">
        <ele>1689</ele>
        <time>2022-06-08T22:31:12Z</time>
      </trkpt>
      <trkpt lat="44.4135" lon="6.42434">
        <ele>1688</ele>
        <time>2022-06-08T22:31:15Z</time>
      </trkpt>
      <trkpt lat="44.41366" lon="6.42429">
        <ele>1683</ele>
        <time>2022-06-08T22:31:19Z</time>
      </trkpt>
      <trkpt lat="44.4141" lon="6.42434">
        <ele>1664</ele>
        <time>2022-06-08T22:31:29Z</time>
      </trkpt>
      <trkpt lat="44.41431" lon="6.42432">
        <ele>1658</ele>
        <time>2022-06-08T22:31:34Z</time>
      </trkpt>
      <trkpt lat="44.41479" lon="6.42437">
        <ele>1644</ele>
        <time>2022-06-08T22:31:45Z</time>
      </trkpt>
      <trkpt lat="44.41498" lon="6.42435">
        <ele>1639</ele>
        <time>2022-06-08T22:31:49Z</time>
      </trkpt>
      <trkpt lat="44.41514" lon="6.42441">
        <ele>1634</ele>
        <time>2022-06-08T22:31:53Z</time>
      </trkpt>
      <trkpt lat="44.41531" lon="6.42467">
        <ele>1622</ele>
        <time>2022-06-08T22:31:59Z</time>
      </trkpt>
      <trkpt lat="44.41538" lon="6.42473">
        <ele>1619</ele>
        <time>2022-06-08T22:32:01Z</time>
      </trkpt>
      <trkpt lat="44.41541" lon="6.42484">
        <ele>1615</ele>
        <time>2022-06-08T22:32:03Z</time>
      </trkpt>
      <trkpt lat="44.41525" lon="6.4249">
        <ele>1616</ele>
        <time>2022-06-08T22:32:07Z</time>
      </trkpt>
      <trkpt lat="44.41517" lon="6.42502">
        <ele>1613</ele>
        <time>2022-06-08T22:32:10Z</time>
      </trkpt>
      <trkpt lat="44.41508" lon="6.42507">
        <ele>1611</ele>
        <time>2022-06-08T22:32:12Z</time>
      </trkpt>
      <trkpt lat="44.41496" lon="6.42509">
        <ele>1613</ele>
        <time>2022-06-08T22:32:15Z</time>
      </trkpt>
      <trkpt lat="44.41497" lon="6.42513">
        <ele>1610</ele>
        <time>2022-06-08T22:32:16Z</time>
      </trkpt>
      <trkpt lat="44.41507" lon="6.4252">
        <ele>1605</ele>
        <time>2022-06-08T22:32:18Z</time>
      </trkpt>
      <trkpt lat="44.4151" lon="6.42521">
        <ele>1604</ele>
        <time>2022-06-08T22:32:19Z</time>
      </trkpt>
      <trkpt lat="44.41512" lon="6.42519">
        <ele>1605</ele>
        <time>2022-06-08T22:32:19Z</time>
      </trkpt>
      <trkpt lat="44.41508" lon="6.42518">
        <ele>1606</ele>
        <time>2022-06-08T22:32:20Z</time>
      </trkpt>
      <trkpt lat="44.41506" lon="6.42524">
        <ele>1603</ele>
        <time>2022-06-08T22:32:21Z</time>
      </trkpt>
      <trkpt lat="44.41501" lon="6.42517">
        <ele>1608</ele>
        <time>2022-06-08T22:32:23Z</time>
      </trkpt>
      <trkpt lat="44.41502" lon="6.42521">
        <ele>1605</ele>
        <time>2022-06-08T22:32:24Z</time>
      </trkpt>
      <trkpt lat="44.41481" lon="6.42532">
        <ele>1606</ele>
        <time>2022-06-08T22:32:29Z</time>
      </trkpt>
      <trkpt lat="44.41454" lon="6.42558">
        <ele>1602</ele>
        <time>2022-06-08T22:32:37Z</time>
      </trkpt>
      <trkpt lat="44.41455" lon="6.42567">
        <ele>1597</ele>
        <time>2022-06-08T22:32:38Z</time>
      </trkpt>
      <trkpt lat="44.41452" lon="6.42571">
        <ele>1597</ele>
        <time>2022-06-08T22:32:39Z</time>
      </trkpt>
      <trkpt lat="44.41436" lon="6.42581">
        <ele>1598</ele>
        <time>2022-06-08T22:32:43Z</time>
      </trkpt>
      <trkpt lat="44.41465" lon="6.42556">
        <ele>1599</ele>
        <time>2022-06-08T22:32:51Z</time>
      </trkpt>
      <trkpt lat="44.41483" lon="6.42546">
        <ele>1598</ele>
        <time>2022-06-08T22:32:56Z</time>
      </trkpt>
      <trkpt lat="44.41497" lon="6.42544">
        <ele>1595</ele>
        <time>2022-06-08T22:32:59Z</time>
      </trkpt>
      <trkpt lat="44.41525" lon="6.4255">
        <ele>1589</ele>
        <time>2022-06-08T22:33:06Z</time>
      </trkpt>
      <trkpt lat="44.41553" lon="6.42563">
        <ele>1580</ele>
        <time>2022-06-08T22:33:13Z</time>
      </trkpt>
      <trkpt lat="44.41571" lon="6.42567">
        <ele>1577</ele>
        <time>2022-06-08T22:33:17Z</time>
      </trkpt>
      <trkpt lat="44.41615" lon="6.42585">
        <ele>1563</ele>
        <time>2022-06-08T22:33:28Z</time>
      </trkpt>
      <trkpt lat="44.41635" lon="6.42585">
        <ele>1559</ele>
        <time>2022-06-08T22:33:32Z</time>
      </trkpt>
      <trkpt lat="44.41645" lon="6.42583">
        <ele>1558</ele>
        <time>2022-06-08T22:33:35Z</time>
      </trkpt>
      <trkpt lat="44.41657" lon="6.42577">
        <ele>1558</ele>
        <time>2022-06-08T22:33:38Z</time>
      </trkpt>
      <trkpt lat="44.4167" lon="6.42566">
        <ele>1559</ele>
        <time>2022-06-08T22:33:41Z</time>
      </trkpt>
      <trkpt lat="44.41683" lon="6.42542">
        <ele>1564</ele>
        <time>2022-06-08T22:33:46Z</time>
      </trkpt>
      <trkpt lat="44.41686" lon="6.42541">
        <ele>1563</ele>
        <time>2022-06-08T22:33:47Z</time>
      </trkpt>
      <trkpt lat="44.41689" lon="6.42544">
        <ele>1561</ele>
        <time>2022-06-08T22:33:48Z</time>
      </trkpt>
      <trkpt lat="44.41689" lon="6.42548">
        <ele>1559</ele>
        <time>2022-06-08T22:33:48Z</time>
      </trkpt>
      <trkpt lat="44.41686" lon="6.42557">
        <ele>1557</ele>
        <time>2022-06-08T22:33:50Z</time>
      </trkpt>
      <trkpt lat="44.41623" lon="6.42638">
        <ele>1542</ele>
        <time>2022-06-08T22:34:10Z</time>
      </trkpt>
      <trkpt lat="44.41612" lon="6.4265">
        <ele>1540</ele>
        <time>2022-06-08T22:34:13Z</time>
      </trkpt>
      <trkpt lat="44.41593" lon="6.42665">
        <ele>1538</ele>
        <time>2022-06-08T22:34:18Z</time>
      </trkpt>
      <trkpt lat="44.41566" lon="6.42693">
        <ele>1535</ele>
        <time>2022-06-08T22:34:26Z</time>
      </trkpt>
      <trkpt lat="44.41556" lon="6.42707">
        <ele>1533</ele>
        <time>2022-06-08T22:34:29Z</time>
      </trkpt>
      <trkpt lat="44.41531" lon="6.42729">
        <ele>1529</ele>
        <time>2022-06-08T22:34:36Z</time>
      </trkpt>
      <trkpt lat="44.41527" lon="6.42744">
        <ele>1527</ele>
        <time>2022-06-08T22:34:39Z</time>
      </trkpt>
      <trkpt lat="44.41532" lon="6.42754">
        <ele>1525</ele>
        <time>2022-06-08T22:34:41Z</time>
      </trkpt>
      <trkpt lat="44.41546" lon="6.42756">
        <ele>1525</ele>
        <time>2022-06-08T22:34:44Z</time>
      </trkpt>
      <trkpt lat="44.4157" lon="6.42742">
        <ele>1527</ele>
        <time>2022-06-08T22:34:50Z</time>
      </trkpt>
      <trkpt lat="44.41571" lon="6.42744">
        <ele>1527</ele>
        <time>2022-06-08T22:34:51Z</time>
      </trkpt>
      <trkpt lat="44.41554" lon="6.42795">
        <ele>1522</ele>
        <time>2022-06-08T22:35:00Z</time>
      </trkpt>
      <trkpt lat="44.41523" lon="6.42809">
        <ele>1521</ele>
        <time>2022-06-08T22:35:08Z</time>
      </trkpt>
      <trkpt lat="44.41507" lon="6.42812">
        <ele>1521</ele>
        <time>2022-06-08T22:35:12Z</time>
      </trkpt>
      <trkpt lat="44.41487" lon="6.42822">
        <ele>1521</ele>
        <time>2022-06-08T22:35:17Z</time>
      </trkpt>
      <trkpt lat="44.41468" lon="6.42838">
        <ele>1518</ele>
        <time>2022-06-08T22:35:22Z</time>
      </trkpt>
      <trkpt lat="44.41425" lon="6.42888">
        <ele>1511</ele>
        <time>2022-06-08T22:35:35Z</time>
      </trkpt>
      <trkpt lat="44.41387" lon="6.42937">
        <ele>1510</ele>
        <time>2022-06-08T22:35:47Z</time>
      </trkpt>
      <trkpt lat="44.41371" lon="6.4297">
        <ele>1504</ele>
        <time>2022-06-08T22:35:54Z</time>
      </trkpt>
      <trkpt lat="44.41343" lon="6.4301">
        <ele>1497</ele>
        <time>2022-06-08T22:36:03Z</time>
      </trkpt>
      <trkpt lat="44.41343" lon="6.43016">
        <ele>1496</ele>
        <time>2022-06-08T22:36:04Z</time>
      </trkpt>
      <trkpt lat="44.4135" lon="6.43025">
        <ele>1494</ele>
        <time>2022-06-08T22:36:06Z</time>
      </trkpt>
      <trkpt lat="44.41348" lon="6.43035">
        <ele>1493</ele>
        <time>2022-06-08T22:36:08Z</time>
      </trkpt>
      <trkpt lat="44.41335" lon="6.43049">
        <ele>1492</ele>
        <time>2022-06-08T22:36:12Z</time>
      </trkpt>
      <trkpt lat="44.41322" lon="6.43058">
        <ele>1492</ele>
        <time>2022-06-08T22:36:15Z</time>
      </trkpt>
      <trkpt lat="44.41319" lon="6.43059">
        <ele>1492</ele>
        <time>2022-06-08T22:36:16Z</time>
      </trkpt>
      <trkpt lat="44.41311" lon="6.43056">
        <ele>1494</ele>
        <time>2022-06-08T22:36:18Z</time>
      </trkpt>
      <trkpt lat="44.41306" lon="6.4306">
        <ele>1494</ele>
        <time>2022-06-08T22:36:19Z</time>
      </trkpt>
      <trkpt lat="44.41309" lon="6.431">
        <ele>1482</ele>
        <time>2022-06-08T22:36:26Z</time>
      </trkpt>
      <trkpt lat="44.41308" lon="6.43107">
        <ele>1480</ele>
        <time>2022-06-08T22:36:27Z</time>
      </trkpt>
      <trkpt lat="44.41302" lon="6.4311">
        <ele>1478</ele>
        <time>2022-06-08T22:36:28Z</time>
      </trkpt>
      <trkpt lat="44.41302" lon="6.43119">
        <ele>1475</ele>
        <time>2022-06-08T22:36:30Z</time>
      </trkpt>
      <trkpt lat="44.41309" lon="6.43149">
        <ele>1463</ele>
        <time>2022-06-08T22:36:35Z</time>
      </trkpt>
      <trkpt lat="44.41314" lon="6.43162">
        <ele>1459</ele>
        <time>2022-06-08T22:36:38Z</time>
      </trkpt>
      <trkpt lat="44.41325" lon="6.43177">
        <ele>1455</ele>
        <time>2022-06-08T22:36:41Z</time>
      </trkpt>
      <trkpt lat="44.41327" lon="6.43187">
        <ele>1451</ele>
        <time>2022-06-08T22:36:43Z</time>
      </trkpt>
      <trkpt lat="44.41338" lon="6.432">
        <ele>1447</ele>
        <time>2022-06-08T22:36:46Z</time>
      </trkpt>
      <trkpt lat="44.41371" lon="6.43226">
        <ele>1435</ele>
        <time>2022-06-08T22:36:55Z</time>
      </trkpt>
      <trkpt lat="44.4137" lon="6.43234">
        <ele>1432</ele>
        <time>2022-06-08T22:36:57Z</time>
      </trkpt>
      <trkpt lat="44.41363" lon="6.43248">
        <ele>1427</ele>
        <time>2022-06-08T22:36:59Z</time>
      </trkpt>
      <trkpt lat="44.4135" lon="6.43254">
        <ele>1424</ele>
        <time>2022-06-08T22:37:03Z</time>
      </trkpt>
      <trkpt lat="44.41342" lon="6.43261">
        <ele>1420</ele>
        <time>2022-06-08T22:37:05Z</time>
      </trkpt>
      <trkpt lat="44.41326" lon="6.43253">
        <ele>1423</ele>
        <time>2022-06-08T22:37:09Z</time>
      </trkpt>
      <trkpt lat="44.41324" lon="6.4325">
        <ele>1424</ele>
        <time>2022-06-08T22:37:09Z</time>
      </trkpt>
      <trkpt lat="44.41304" lon="6.43254">
        <ele>1414</ele>
        <time>2022-06-08T22:37:14Z</time>
      </trkpt>
      <trkpt lat="44.41299" lon="6.43257">
        <ele>1410</ele>
        <time>2022-06-08T22:37:15Z</time>
      </trkpt>
      <trkpt lat="44.41287" lon="6.43256">
        <ele>1406</ele>
        <time>2022-06-08T22:37:18Z</time>
      </trkpt>
      <trkpt lat="44.4127" lon="6.4325">
        <ele>1403</ele>
        <time>2022-06-08T22:37:22Z</time>
      </trkpt>
      <trkpt lat="44.41253" lon="6.43233">
        <ele>1407</ele>
        <time>2022-06-08T22:37:27Z</time>
      </trkpt>
      <trkpt lat="44.41217" lon="6.43226">
        <ele>1400</ele>
        <time>2022-06-08T22:37:36Z</time>
      </trkpt>
      <trkpt lat="44.41187" lon="6.4323">
        <ele>1388</ele>
        <time>2022-06-08T22:37:43Z</time>
      </trkpt>
      <trkpt lat="44.41182" lon="6.43228">
        <ele>1388</ele>
        <time>2022-06-08T22:37:44Z</time>
      </trkpt>
      <trkpt lat="44.41173" lon="6.43232">
        <ele>1382</ele>
        <time>2022-06-08T22:37:46Z</time>
      </trkpt>
      <trkpt lat="44.41153" lon="6.43234">
        <ele>1376</ele>
        <time>2022-06-08T22:37:51Z</time>
      </trkpt>
      <trkpt lat="44.41137" lon="6.43229">
        <ele>1376</ele>
        <time>2022-06-08T22:37:55Z</time>
      </trkpt>
      <trkpt lat="44.41118" lon="6.43228">
        <ele>1372</ele>
        <time>2022-06-08T22:37:59Z</time>
      </trkpt>
      <trkpt lat="44.41086" lon="6.43231">
        <ele>1363</ele>
        <time>2022-06-08T22:38:07Z</time>
      </trkpt>
      <trkpt lat="44.4107" lon="6.43238">
        <ele>1358</ele>
        <time>2022-06-08T22:38:10Z</time>
      </trkpt>
      <trkpt lat="44.41064" lon="6.43248">
        <ele>1353</ele>
        <time>2022-06-08T22:38:13Z</time>
      </trkpt>
      <trkpt lat="44.41055" lon="6.43247">
        <ele>1352</ele>
        <time>2022-06-08T22:38:15Z</time>
      </trkpt>
      <trkpt lat="44.41051" lon="6.43221">
        <ele>1361</ele>
        <time>2022-06-08T22:38:19Z</time>
      </trkpt>
      <trkpt lat="44.41052" lon="6.43215">
        <ele>1363</ele>
        <time>2022-06-08T22:38:20Z</time>
      </trkpt>
      <trkpt lat="44.41049" lon="6.43206">
        <ele>1366</ele>
        <time>2022-06-08T22:38:22Z</time>
      </trkpt>
      <trkpt lat="44.41043" lon="6.432">
        <ele>1367</ele>
        <time>2022-06-08T22:38:24Z</time>
      </trkpt>
      <trkpt lat="44.41034" lon="6.43219">
        <ele>1358</ele>
        <time>2022-06-08T22:38:27Z</time>
      </trkpt>
      <trkpt lat="44.41022" lon="6.43237">
        <ele>1350</ele>
        <time>2022-06-08T22:38:32Z</time>
      </trkpt>
      <trkpt lat="44.41023" lon="6.43241">
        <ele>1349</ele>
        <time>2022-06-08T22:38:32Z</time>
      </trkpt>
      <trkpt lat="44.41026" lon="6.43238">
        <ele>1350</ele>
        <time>2022-06-08T22:38:33Z</time>
      </trkpt>
      <trkpt lat="44.41023" lon="6.43241">
        <ele>1349</ele>
        <time>2022-06-08T22:38:34Z</time>
      </trkpt>
      <trkpt lat="44.41013" lon="6.43232">
        <ele>1350</ele>
        <time>2022-06-08T22:38:37Z</time>
      </trkpt>
      <trkpt lat="44.4102" lon="6.43232">
        <ele>1352</ele>
        <time>2022-06-08T22:38:38Z</time>
      </trkpt>
      <trkpt lat="44.4102" lon="6.43235">
        <ele>1350</ele>
        <time>2022-06-08T22:38:39Z</time>
      </trkpt>
      <trkpt lat="44.41025" lon="6.43235">
        <ele>1351</ele>
        <time>2022-06-08T22:38:40Z</time>
      </trkpt>
      <trkpt lat="44.41024" lon="6.43239">
        <ele>1350</ele>
        <time>2022-06-08T22:38:41Z</time>
      </trkpt>
      <trkpt lat="44.41028" lon="6.43241">
        <ele>1350</ele>
        <time>2022-06-08T22:38:42Z</time>
      </trkpt>
      <trkpt lat="44.41018" lon="6.43257">
        <ele>1343</ele>
        <time>2022-06-08T22:38:45Z</time>
      </trkpt>
      <trkpt lat="44.41003" lon="6.4331">
        <ele>1331</ele>
        <time>2022-06-08T22:38:55Z</time>
      </trkpt>
      <trkpt lat="44.41002" lon="6.43329">
        <ele>1327</ele>
        <time>2022-06-08T22:38:58Z</time>
      </trkpt>
      <trkpt lat="44.41008" lon="6.43352">
        <ele>1321</ele>
        <time>2022-06-08T22:39:02Z</time>
      </trkpt>
      <trkpt lat="44.41009" lon="6.43373">
        <ele>1315</ele>
        <time>2022-06-08T22:39:06Z</time>
      </trkpt>
      <trkpt lat="44.40999" lon="6.43425">
        <ele>1301</ele>
        <time>2022-06-08T22:39:15Z</time>
      </trkpt>
      <trkpt lat="44.40989" lon="6.43451">
        <ele>1294</ele>
        <time>2022-06-08T22:39:19Z</time>
      </trkpt>
      <trkpt lat="44.40987" lon="6.4348">
        <ele>1286</ele>
        <time>2022-06-08T22:39:24Z</time>
      </trkpt>
      <trkpt lat="44.40975" lon="6.43554">
        <ele>1271</ele>
        <time>2022-06-08T22:39:37Z</time>
      </trkpt>
      <trkpt lat="44.40977" lon="6.43569">
        <ele>1268</ele>
        <time>2022-06-08T22:39:40Z</time>
      </trkpt>
      <trkpt lat="44.40986" lon="6.43585">
        <ele>1264</ele>
        <time>2022-06-08T22:39:43Z</time>
      </trkpt>
      <trkpt lat="44.40985" lon="6.43589">
        <ele>1264</ele>
        <time>2022-06-08T22:39:44Z</time>
      </trkpt>
      <trkpt lat="44.41027" lon="6.43612">
        <ele>1257</ele>
        <time>2022-06-08T22:39:54Z</time>
      </trkpt>
      <trkpt lat="44.41031" lon="6.43609">
        <ele>1257</ele>
        <time>2022-06-08T22:39:55Z</time>
      </trkpt>
      <trkpt lat="44.41031" lon="6.43596">
        <ele>1258</ele>
        <time>2022-06-08T22:39:57Z</time>
      </trkpt>
      <trkpt lat="44.41032" lon="6.43622">
        <ele>1256</ele>
        <time>2022-06-08T22:40:02Z</time>
      </trkpt>
      <trkpt lat="44.4107" lon="6.4365">
        <ele>1252</ele>
        <time>2022-06-08T22:40:12Z</time>
      </trkpt>
      <trkpt lat="44.41079" lon="6.4365">
        <ele>1251</ele>
        <time>2022-06-08T22:40:14Z</time>
      </trkpt>
      <trkpt lat="44.41111" lon="6.43637">
        <ele>1246</ele>
        <time>2022-06-08T22:40:22Z</time>
      </trkpt>
      <trkpt lat="44.41137" lon="6.43667">
        <ele>1243</ele>
        <time>2022-06-08T22:40:30Z</time>
      </trkpt>
      <trkpt lat="44.4114" lon="6.43663">
        <ele>1242</ele>
        <time>2022-06-08T22:40:31Z</time>
      </trkpt>
      <trkpt lat="44.41173" lon="6.43655">
        <ele>1235</ele>
        <time>2022-06-08T22:40:38Z</time>
      </trkpt>
      <trkpt lat="44.41182" lon="6.43627">
        <ele>1232</ele>
        <time>2022-06-08T22:40:43Z</time>
      </trkpt>
      <trkpt lat="44.41181" lon="6.43622">
        <ele>1233</ele>
        <time>2022-06-08T22:40:44Z</time>
      </trkpt>
      <trkpt lat="44.41184" lon="6.4362">
        <ele>1232</ele>
        <time>2022-06-08T22:40:45Z</time>
      </trkpt>
      <trkpt lat="44.41185" lon="6.4364">
        <ele>1232</ele>
        <time>2022-06-08T22:40:48Z</time>
      </trkpt>
      <trkpt lat="44.41191" lon="6.4366">
        <ele>1230</ele>
        <time>2022-06-08T22:40:52Z</time>
      </trkpt>
      <trkpt lat="44.4121" lon="6.43702">
        <ele>1227</ele>
        <time>2022-06-08T22:41:00Z</time>
      </trkpt>
      <trkpt lat="44.41221" lon="6.43734">
        <ele>1228</ele>
        <time>2022-06-08T22:41:06Z</time>
      </trkpt>
      <trkpt lat="44.41246" lon="6.43758">
        <ele>1229</ele>
        <time>2022-06-08T22:41:13Z</time>
      </trkpt>
      <trkpt lat="44.41256" lon="6.43779">
        <ele>1234</ele>
        <time>2022-06-08T22:41:18Z</time>
      </trkpt>
      <trkpt lat="44.41288" lon="6.43787">
        <ele>1229</ele>
        <time>2022-06-08T22:41:25Z</time>
      </trkpt>
      <trkpt lat="44.41327" lon="6.43818">
        <ele>1229</ele>
        <time>2022-06-08T22:41:36Z</time>
      </trkpt>
      <trkpt lat="44.41359" lon="6.43816">
        <ele>1209</ele>
        <time>2022-06-08T22:41:43Z</time>
      </trkpt>
      <trkpt lat="44.4139" lon="6.43854">
        <ele>1191</ele>
        <time>2022-06-08T22:41:53Z</time>
      </trkpt>
      <trkpt lat="44.41392" lon="6.43881">
        <ele>1193</ele>
        <time>2022-06-08T22:41:57Z</time>
      </trkpt>
      <trkpt lat="44.41378" lon="6.43934">
        <ele>1205</ele>
        <time>2022-06-08T22:42:07Z</time>
      </trkpt>
      <trkpt lat="44.41362" lon="6.4403">
        <ele>1201</ele>
        <time>2022-06-08T22:42:23Z</time>
      </trkpt>
      <trkpt lat="44.41357" lon="6.44068">
        <ele>1197</ele>
        <time>2022-06-08T22:42:30Z</time>
      </trkpt>
      <trkpt lat="44.41356" lon="6.44098">
        <ele>1192</ele>
        <time>2022-06-08T22:42:35Z</time>
      </trkpt>
      <trkpt lat="44.41371" lon="6.44095">
        <ele>1185</ele>
        <time>2022-06-08T22:42:38Z</time>
      </trkpt>
      <trkpt lat="44.41377" lon="6.44085">
        <ele>1183</ele>
        <time>2022-06-08T22:42:40Z</time>
      </trkpt>
      <trkpt lat="44.41388" lon="6.44096">
        <ele>1176</ele>
        <time>2022-06-08T22:42:43Z</time>
      </trkpt>
      <trkpt lat="44.4139" lon="6.44116">
        <ele>1171</ele>
        <time>2022-06-08T22:42:47Z</time>
      </trkpt>
      <trkpt lat="44.41386" lon="6.44138">
        <ele>1170</ele>
        <time>2022-06-08T22:42:51Z</time>
      </trkpt>
      <trkpt lat="44.41391" lon="6.44141">
        <ele>1167</ele>
        <time>2022-06-08T22:42:52Z</time>
      </trkpt>
      <trkpt lat="44.41401" lon="6.44134">
        <ele>1163</ele>
        <time>2022-06-08T22:42:54Z</time>
      </trkpt>
      <trkpt lat="44.41416" lon="6.4411">
        <ele>1158</ele>
        <time>2022-06-08T22:43:00Z</time>
      </trkpt>
      <trkpt lat="44.41415" lon="6.44122">
        <ele>1157</ele>
        <time>2022-06-08T22:43:02Z</time>
      </trkpt>
      <trkpt lat="44.41407" lon="6.44142">
        <ele>1158</ele>
        <time>2022-06-08T22:43:06Z</time>
      </trkpt>
      <trkpt lat="44.41413" lon="6.44148">
        <ele>1154</ele>
        <time>2022-06-08T22:43:07Z</time>
      </trkpt>
      <trkpt lat="44.4141" lon="6.44156">
        <ele>1154</ele>
        <time>2022-06-08T22:43:09Z</time>
      </trkpt>
      <trkpt lat="44.41403" lon="6.44164">
        <ele>1157</ele>
        <time>2022-06-08T22:43:11Z</time>
      </trkpt>
      <trkpt lat="44.41407" lon="6.44174">
        <ele>1153</ele>
        <time>2022-06-08T22:43:13Z</time>
      </trkpt>
      <trkpt lat="44.4142" lon="6.44168">
        <ele>1147</ele>
        <time>2022-06-08T22:43:16Z</time>
      </trkpt>
      <trkpt lat="44.41431" lon="6.44172">
        <ele>1141</ele>
        <time>2022-06-08T22:43:19Z</time>
      </trkpt>
      <trkpt lat="44.41434" lon="6.44205">
        <ele>1134</ele>
        <time>2022-06-08T22:43:24Z</time>
      </trkpt>
      <trkpt lat="44.41432" lon="6.4422">
        <ele>1132</ele>
        <time>2022-06-08T22:43:27Z</time>
      </trkpt>
      <trkpt lat="44.41436" lon="6.44231">
        <ele>1127</ele>
        <time>2022-06-08T22:43:29Z</time>
      </trkpt>
      <trkpt lat="44.4145" lon="6.44253">
        <ele>1115</ele>
        <time>2022-06-08T22:43:34Z</time>
      </trkpt>
      <trkpt lat="44.41451" lon="6.44273">
        <ele>1111</ele>
        <time>2022-06-08T22:43:37Z</time>
      </trkpt>
      <trkpt lat="44.41461" lon="6.44276">
        <ele>1106</ele>
        <time>2022-06-08T22:43:40Z</time>
      </trkpt>
      <trkpt lat="44.41465" lon="6.44289">
        <ele>1101</ele>
        <time>2022-06-08T22:43:42Z</time>
      </trkpt>
      <trkpt lat="44.4146" lon="6.44318">
        <ele>1099</ele>
        <time>2022-06-08T22:43:47Z</time>
      </trkpt>
      <trkpt lat="44.41462" lon="6.44344">
        <ele>1093</ele>
        <time>2022-06-08T22:43:51Z</time>
      </trkpt>
      <trkpt lat="44.41471" lon="6.44367">
        <ele>1083</ele>
        <time>2022-06-08T22:43:56Z</time>
      </trkpt>
      <trkpt lat="44.41478" lon="6.44408">
        <ele>1072</ele>
        <time>2022-06-08T22:44:03Z</time>
      </trkpt>
      <trkpt lat="44.41478" lon="6.44443">
        <ele>1061</ele>
        <time>2022-06-08T22:44:09Z</time>
      </trkpt>
      <trkpt lat="44.41469" lon="6.4448">
        <ele>1051</ele>
        <time>2022-06-08T22:44:15Z</time>
      </trkpt>
      <trkpt lat="44.41456" lon="6.44498">
        <ele>1049</ele>
        <time>2022-06-08T22:44:19Z</time>
      </trkpt>
      <trkpt lat="44.41432" lon="6.44521">
        <ele>1047</ele>
        <time>2022-06-08T22:44:26Z</time>
      </trkpt>
      <trkpt lat="44.41406" lon="6.44553">
        <ele>1044</ele>
        <time>2022-06-08T22:44:34Z</time>
      </trkpt>
      <trkpt lat="44.41383" lon="6.44603">
        <ele>1032</ele>
        <time>2022-06-08T22:44:44Z</time>
      </trkpt>
      <trkpt lat="44.41339" lon="6.44672">
        <ele>1017</ele>
        <time>2022-06-08T22:45:00Z</time>
      </trkpt>
      <trkpt lat="44.41329" lon="6.44701">
        <ele>1005</ele>
        <time>2022-06-08T22:45:05Z</time>
      </trkpt>
      <trkpt lat="44.41305" lon="6.44719">
        <ele>1001</ele>
        <time>2022-06-08T22:45:11Z</time>
      </trkpt>
      <trkpt lat="44.41292" lon="6.44725">
        <ele>1000</ele>
        <time>2022-06-08T22:45:14Z</time>
      </trkpt>
      <trkpt lat="44.41257" lon="6.44726">
        <ele>1007</ele>
        <time>2022-06-08T22:45:23Z</time>
      </trkpt>
      <trkpt lat="44.41236" lon="6.44732">
        <ele>1009</ele>
        <time>2022-06-08T22:45:28Z</time>
      </trkpt>
      <trkpt lat="44.41208" lon="6.4476">
        <ele>1001</ele>
        <time>2022-06-08T22:45:36Z</time>
      </trkpt>
      <trkpt lat="44.41177" lon="6.44776">
        <ele>1000</ele>
        <time>2022-06-08T22:45:43Z</time>
      </trkpt>
      <trkpt lat="44.41124" lon="6.44813">
        <ele>1001</ele>
        <time>2022-06-08T22:45:57Z</time>
      </trkpt>
      <trkpt lat="44.411" lon="6.44824">
        <ele>1005</ele>
        <time>2022-06-08T22:46:03Z</time>
      </trkpt>
      <trkpt lat="44.41074" lon="6.44855">
        <ele>1002</ele>
        <time>2022-06-08T22:46:11Z</time>
      </trkpt>
      <trkpt lat="44.41054" lon="6.44889">
        <ele>997</ele>
        <time>2022-06-08T22:46:18Z</time>
      </trkpt>
      <trkpt lat="44.4104" lon="6.44916">
        <ele>991</ele>
        <time>2022-06-08T22:46:24Z</time>
      </trkpt>
      <trkpt lat="44.41017" lon="6.44977">
        <ele>984</ele>
        <time>2022-06-08T22:46:36Z</time>
      </trkpt>
      <trkpt lat="44.41015" lon="6.44992">
        <ele>981</ele>
        <time>2022-06-08T22:46:38Z</time>
      </trkpt>
      <trkpt lat="44.41017" lon="6.45">
        <ele>978</ele>
        <time>2022-06-08T22:46:39Z</time>
      </trkpt>
      <trkpt lat="44.4104" lon="6.45011">
        <ele>972</ele>
        <time>2022-06-08T22:46:45Z</time>
      </trkpt>
      <trkpt lat="44.4104" lon="6.45021">
        <ele>970</ele>
        <time>2022-06-08T22:46:47Z</time>
      </trkpt>
      <trkpt lat="44.41029" lon="6.45049">
        <ele>969</ele>
        <time>2022-06-08T22:46:52Z</time>
      </trkpt>
      <trkpt lat="44.41061" lon="6.44982">
        <ele>972</ele>
        <time>2022-06-08T22:47:06Z</time>
      </trkpt>
      <trkpt lat="44.41078" lon="6.44955">
        <ele>972</ele>
        <time>2022-06-08T22:47:12Z</time>
      </trkpt>
      <trkpt lat="44.4109" lon="6.4495">
        <ele>970</ele>
        <time>2022-06-08T22:47:15Z</time>
      </trkpt>
      <trkpt lat="44.41096" lon="6.44953">
        <ele>968</ele>
        <time>2022-06-08T22:47:16Z</time>
      </trkpt>
      <trkpt lat="44.41104" lon="6.44967">
        <ele>964</ele>
        <time>2022-06-08T22:47:19Z</time>
      </trkpt>
      <trkpt lat="44.411" lon="6.45006">
        <ele>960</ele>
        <time>2022-06-08T22:47:26Z</time>
      </trkpt>
      <trkpt lat="44.41103" lon="6.4504">
        <ele>957</ele>
        <time>2022-06-08T22:47:31Z</time>
      </trkpt>
      <trkpt lat="44.41113" lon="6.45075">
        <ele>952</ele>
        <time>2022-06-08T22:47:38Z</time>
      </trkpt>
      <trkpt lat="44.4113" lon="6.45104">
        <ele>947</ele>
        <time>2022-06-08T22:47:44Z</time>
      </trkpt>
      <trkpt lat="44.41131" lon="6.45112">
        <ele>946</ele>
        <time>2022-06-08T22:47:45Z</time>
      </trkpt>
      <trkpt lat="44.4113" lon="6.45127">
        <ele>946</ele>
        <time>2022-06-08T22:47:48Z</time>
      </trkpt>
      <trkpt lat="44.41113" lon="6.45187">
        <ele>945</ele>
        <time>2022-06-08T22:47:58Z</time>
      </trkpt>
      <trkpt lat="44.4109" lon="6.45237">
        <ele>944</ele>
        <time>2022-06-08T22:48:08Z</time>
      </trkpt>
      <trkpt lat="44.41041" lon="6.45302">
        <ele>940</ele>
        <time>2022-06-08T22:48:24Z</time>
      </trkpt>
      <trkpt lat="44.41016" lon="6.4533">
        <ele>938</ele>
        <time>2022-06-08T22:48:32Z</time>
      </trkpt>
      <trkpt lat="44.40883" lon="6.45391">
        <ele>946</ele>
        <time>2022-06-08T22:49:04Z</time>
      </trkpt>
      <trkpt lat="44.40823" lon="6.45438">
        <ele>945</ele>
        <time>2022-06-08T22:49:20Z</time>
      </trkpt>
      <trkpt lat="44.4076" lon="6.45513">
        <ele>943</ele>
        <time>2022-06-08T22:49:40Z</time>
      </trkpt>
      <trkpt lat="44.40707" lon="6.45584">
        <ele>942</ele>
        <time>2022-06-08T22:49:57Z</time>
      </trkpt>
      <trkpt lat="44.4068" lon="6.45627">
        <ele>941</ele>
        <time>2022-06-08T22:50:06Z</time>
      </trkpt>
      <trkpt lat="44.40657" lon="6.4567">
        <ele>941</ele>
        <time>2022-06-08T22:50:15Z</time>
      </trkpt>
      <trkpt lat="44.40616" lon="6.45767">
        <ele>942</ele>
        <time>2022-06-08T22:50:34Z</time>
      </trkpt>
      <trkpt lat="44.40585" lon="6.45831">
        <ele>939</ele>
        <time>2022-06-08T22:50:47Z</time>
      </trkpt>
      <trkpt lat="44.40544" lon="6.45898">
        <ele>942</ele>
        <time>2022-06-08T22:51:02Z</time>
      </trkpt>
      <trkpt lat="44.40523" lon="6.45939">
        <ele>943</ele>
        <time>2022-06-08T22:51:10Z</time>
      </trkpt>
      <trkpt lat="44.40493" lon="6.46031">
        <ele>943</ele>
        <time>2022-06-08T22:51:27Z</time>
      </trkpt>
      <trkpt lat="44.40428" lon="6.46161">
        <ele>949</ele>
        <time>2022-06-08T22:51:54Z</time>
      </trkpt>
      <trkpt lat="44.40415" lon="6.46192">
        <ele>949</ele>
        <time>2022-06-08T22:52:00Z</time>
      </trkpt>
      <trkpt lat="44.40413" lon="6.46202">
        <ele>949</ele>
        <time>2022-06-08T22:52:01Z</time>
      </trkpt>
      <trkpt lat="44.40332" lon="6.4629">
        <ele>958</ele>
        <time>2022-06-08T22:52:25Z</time>
      </trkpt>
      <trkpt lat="44.40269" lon="6.46376">
        <ele>965</ele>
        <time>2022-06-08T22:52:46Z</time>
      </trkpt>
      <trkpt lat="44.4025" lon="6.46391">
        <ele>967</ele>
        <time>2022-06-08T22:52:51Z</time>
      </trkpt>
      <trkpt lat="44.40223" lon="6.4642">
        <ele>973</ele>
        <time>2022-06-08T22:52:59Z</time>
      </trkpt>
      <trkpt lat="44.40214" lon="6.46441">
        <ele>975</ele>
        <time>2022-06-08T22:53:03Z</time>
      </trkpt>
      <trkpt lat="44.40199" lon="6.46459">
        <ele>981</ele>
        <time>2022-06-08T22:53:07Z</time>
      </trkpt>
      <trkpt lat="44.40193" lon="6.46482">
        <ele>982</ele>
        <time>2022-06-08T22:53:12Z</time>
      </trkpt>
      <trkpt lat="44.40188" lon="6.46523">
        <ele>984</ele>
        <time>2022-06-08T22:53:18Z</time>
      </trkpt>
      <trkpt lat="44.40182" lon="6.46547">
        <ele>988</ele>
        <time>2022-06-08T22:53:23Z</time>
      </trkpt>
      <trkpt lat="44.40187" lon="6.46618">
        <ele>985</ele>
        <time>2022-06-08T22:53:35Z</time>
      </trkpt>
      <trkpt lat="44.40185" lon="6.46657">
        <ele>986</ele>
        <time>2022-06-08T22:53:41Z</time>
      </trkpt>
      <trkpt lat="44.40156" lon="6.46745">
        <ele>988</ele>
        <time>2022-06-08T22:53:57Z</time>
      </trkpt>
      <trkpt lat="44.40143" lon="6.46768">
        <ele>990</ele>
        <time>2022-06-08T22:54:02Z</time>
      </trkpt>
      <trkpt lat="44.40133" lon="6.46794">
        <ele>990</ele>
        <time>2022-06-08T22:54:07Z</time>
      </trkpt>
      <trkpt lat="44.40124" lon="6.46808">
        <ele>992</ele>
        <time>2022-06-08T22:54:10Z</time>
      </trkpt>
      <trkpt lat="44.40117" lon="6.46833">
        <ele>991</ele>
        <time>2022-06-08T22:54:15Z</time>
      </trkpt>
      <trkpt lat="44.4011" lon="6.46842">
        <ele>993</ele>
        <time>2022-06-08T22:54:17Z</time>
      </trkpt>
      <trkpt lat="44.40099" lon="6.46867">
        <ele>994</ele>
        <time>2022-06-08T22:54:22Z</time>
      </trkpt>
      <trkpt lat="44.40103" lon="6.46853">
        <ele>995</ele>
        <time>2022-06-08T22:54:24Z</time>
      </trkpt>
      <trkpt lat="44.40097" lon="6.46849">
        <ele>1000</ele>
        <time>2022-06-08T22:54:26Z</time>
      </trkpt>
      <trkpt lat="44.40086" lon="6.46875">
        <ele>1000</ele>
        <time>2022-06-08T22:54:31Z</time>
      </trkpt>
      <trkpt lat="44.40055" lon="6.46926">
        <ele>997</ele>
        <time>2022-06-08T22:54:42Z</time>
      </trkpt>
      <trkpt lat="44.40009" lon="6.46978">
        <ele>994</ele>
        <time>2022-06-08T22:54:56Z</time>
      </trkpt>
      <trkpt lat="44.39944" lon="6.47034">
        <ele>995</ele>
        <time>2022-06-08T22:55:14Z</time>
      </trkpt>
      <trkpt lat="44.39898" lon="6.47081">
        <ele>992</ele>
        <time>2022-06-08T22:55:27Z</time>
      </trkpt>
      <trkpt lat="44.39876" lon="6.47095">
        <ele>996</ele>
        <time>2022-06-08T22:55:33Z</time>
      </trkpt>
      <trkpt lat="44.39848" lon="6.47118">
        <ele>999</ele>
        <time>2022-06-08T22:55:40Z</time>
      </trkpt>
      <trkpt lat="44.39855" lon="6.47109">
        <ele>999</ele>
        <time>2022-06-08T22:55:43Z</time>
      </trkpt>
      <trkpt lat="44.39865" lon="6.47112">
        <ele>994</ele>
        <time>2022-06-08T22:55:45Z</time>
      </trkpt>
      <trkpt lat="44.39852" lon="6.47149">
        <ele>986</ele>
        <time>2022-06-08T22:55:52Z</time>
      </trkpt>
      <trkpt lat="44.39845" lon="6.47186">
        <ele>980</ele>
        <time>2022-06-08T22:55:58Z</time>
      </trkpt>
      <trkpt lat="44.39839" lon="6.47198">
        <ele>980</ele>
        <time>2022-06-08T22:56:01Z</time>
      </trkpt>
      <trkpt lat="44.39823" lon="6.47217">
        <ele>984</ele>
        <time>2022-06-08T22:56:06Z</time>
      </trkpt>
      <trkpt lat="44.39817" lon="6.47249">
        <ele>981</ele>
        <time>2022-06-08T22:56:11Z</time>
      </trkpt>
      <trkpt lat="44.39815" lon="6.47254">
        <ele>981</ele>
        <time>2022-06-08T22:56:12Z</time>
      </trkpt>
      <trkpt lat="44.3981" lon="6.47256">
        <ele>984</ele>
        <time>2022-06-08T22:56:13Z</time>
      </trkpt>
      <trkpt lat="44.3981" lon="6.47263">
        <ele>983</ele>
        <time>2022-06-08T22:56:14Z</time>
      </trkpt>
      <trkpt lat="44.39799" lon="6.47301">
        <ele>985</ele>
        <time>2022-06-08T22:56:21Z</time>
      </trkpt>
      <trkpt lat="44.39782" lon="6.47345">
        <ele>987</ele>
        <time>2022-06-08T22:56:30Z</time>
      </trkpt>
      <trkpt lat="44.39748" lon="6.47407">
        <ele>983</ele>
        <time>2022-06-08T22:56:43Z</time>
      </trkpt>
      <trkpt lat="44.397" lon="6.47486">
        <ele>979</ele>
        <time>2022-06-08T22:57:00Z</time>
      </trkpt>
      <trkpt lat="44.39673" lon="6.47559">
        <ele>978</ele>
        <time>2022-06-08T22:57:14Z</time>
      </trkpt>
      <trkpt lat="44.39639" lon="6.47721">
        <ele>985</ele>
        <time>2022-06-08T22:57:42Z</time>
      </trkpt>
      <trkpt lat="44.39612" lon="6.47798">
        <ele>987</ele>
        <time>2022-06-08T22:57:56Z</time>
      </trkpt>
      <trkpt lat="44.39586" lon="6.47859">
        <ele>984</ele>
        <time>2022-06-08T22:58:08Z</time>
      </trkpt>
      <trkpt lat="44.39569" lon="6.47916">
        <ele>980</ele>
        <time>2022-06-08T22:58:18Z</time>
      </trkpt>
      <trkpt lat="44.39563" lon="6.47925">
        <ele>980</ele>
        <time>2022-06-08T22:58:20Z</time>
      </trkpt>
      <trkpt lat="44.39552" lon="6.47935">
        <ele>981</ele>
        <time>2022-06-08T22:58:23Z</time>
      </trkpt>
      <trkpt lat="44.39542" lon="6.47951">
        <ele>981</ele>
        <time>2022-06-08T22:58:27Z</time>
      </trkpt>
      <trkpt lat="44.39514" lon="6.48028">
        <ele>977</ele>
        <time>2022-06-08T22:58:41Z</time>
      </trkpt>
      <trkpt lat="44.39499" lon="6.48059">
        <ele>976</ele>
        <time>2022-06-08T22:58:48Z</time>
      </trkpt>
      <trkpt lat="44.39497" lon="6.48071">
        <ele>975</ele>
        <time>2022-06-08T22:58:50Z</time>
      </trkpt>
      <trkpt lat="44.39496" lon="6.48172">
        <ele>977</ele>
        <time>2022-06-08T22:59:07Z</time>
      </trkpt>
      <trkpt lat="44.39557" lon="6.48321">
        <ele>981</ele>
        <time>2022-06-08T22:59:35Z</time>
      </trkpt>
      <trkpt lat="44.39561" lon="6.48348">
        <ele>981</ele>
        <time>2022-06-08T22:59:40Z</time>
      </trkpt>
      <trkpt lat="44.39559" lon="6.48406">
        <ele>986</ele>
        <time>2022-06-08T22:59:49Z</time>
      </trkpt>
      <trkpt lat="44.3956" lon="6.48475">
        <ele>985</ele>
        <time>2022-06-08T23:00:01Z</time>
      </trkpt>
      <trkpt lat="44.39548" lon="6.48524">
        <ele>996</ele>
        <time>2022-06-08T23:00:10Z</time>
      </trkpt>
      <trkpt lat="44.39548" lon="6.48537">
        <ele>997</ele>
        <time>2022-06-08T23:00:12Z</time>
      </trkpt>
      <trkpt lat="44.3956" lon="6.48579">
        <ele>992</ele>
        <time>2022-06-08T23:00:19Z</time>
      </trkpt>
      <trkpt lat="44.39571" lon="6.48606">
        <ele>988</ele>
        <time>2022-06-08T23:00:25Z</time>
      </trkpt>
      <trkpt lat="44.39571" lon="6.48612">
        <ele>988</ele>
        <time>2022-06-08T23:00:26Z</time>
      </trkpt>
      <trkpt lat="44.39594" lon="6.48689">
        <ele>988</ele>
        <time>2022-06-08T23:00:39Z</time>
      </trkpt>
      <trkpt lat="44.39606" lon="6.48721">
        <ele>986</ele>
        <time>2022-06-08T23:00:46Z</time>
      </trkpt>
      <trkpt lat="44.39601" lon="6.48845">
        <ele>1003</ele>
        <time>2022-06-08T23:01:06Z</time>
      </trkpt>
      <trkpt lat="44.39626" lon="6.48966">
        <ele>1004</ele>
        <time>2022-06-08T23:01:27Z</time>
      </trkpt>
      <trkpt lat="44.39648" lon="6.49016">
        <ele>997</ele>
        <time>2022-06-08T23:01:37Z</time>
      </trkpt>
      <trkpt lat="44.39668" lon="6.49047">
        <ele>988</ele>
        <time>2022-06-08T23:01:44Z</time>
      </trkpt>
      <trkpt lat="44.39681" lon="6.49095">
        <ele>993</ele>
        <time>2022-06-08T23:01:53Z</time>
      </trkpt>
      <trkpt lat="44.39678" lon="6.49144">
        <ele>1006</ele>
        <time>2022-06-08T23:02:01Z</time>
      </trkpt>
      <trkpt lat="44.3969" lon="6.49199">
        <ele>1008</ele>
        <time>2022-06-08T23:02:10Z</time>
      </trkpt>
      <trkpt lat="44.39689" lon="6.49247">
        <ele>1014</ele>
        <time>2022-06-08T23:02:18Z</time>
      </trkpt>
      <trkpt lat="44.39695" lon="6.49304">
        <ele>1012</ele>
        <time>2022-06-08T23:02:28Z</time>
      </trkpt>
      <trkpt lat="44.39708" lon="6.49336">
        <ele>1006</ele>
        <time>2022-06-08T23:02:34Z</time>
      </trkpt>
      <trkpt lat="44.3972" lon="6.49388">
        <ele>1004</ele>
        <time>2022-06-08T23:02:43Z</time>
      </trkpt>
      <trkpt lat="44.39727" lon="6.49406">
        <ele>1002</ele>
        <time>2022-06-08T23:02:47Z</time>
      </trkpt>
      <trkpt lat="44.39748" lon="6.49439">
        <ele>996</ele>
        <time>2022-06-08T23:02:54Z</time>
      </trkpt>
      <trkpt lat="44.39777" lon="6.49503">
        <ele>1001</ele>
        <time>2022-06-08T23:03:07Z</time>
      </trkpt>
      <trkpt lat="44.39777" lon="6.49513">
        <ele>1002</ele>
        <time>2022-06-08T23:03:08Z</time>
      </trkpt>
      <trkpt lat="44.3977" lon="6.49539">
        <ele>1004</ele>
        <time>2022-06-08T23:03:13Z</time>
      </trkpt>
      <trkpt lat="44.39778" lon="6.49562">
        <ele>1004</ele>
        <time>2022-06-08T23:03:17Z</time>
      </trkpt>
      <trkpt lat="44.39794" lon="6.4959">
        <ele>1004</ele>
        <time>2022-06-08T23:03:23Z</time>
      </trkpt>
      <trkpt lat="44.39801" lon="6.49621">
        <ele>1005</ele>
        <time>2022-06-08T23:03:29Z</time>
      </trkpt>
      <trkpt lat="44.398" lon="6.49662">
        <ele>1008</ele>
        <time>2022-06-08T23:03:36Z</time>
      </trkpt>
      <trkpt lat="44.39792" lon="6.49701">
        <ele>1008</ele>
        <time>2022-06-08T23:03:42Z</time>
      </trkpt>
      <trkpt lat="44.39781" lon="6.49738">
        <ele>1007</ele>
        <time>2022-06-08T23:03:49Z</time>
      </trkpt>
      <trkpt lat="44.39777" lon="6.49789">
        <ele>1008</ele>
        <time>2022-06-08T23:03:58Z</time>
      </trkpt>
      <trkpt lat="44.39771" lon="6.49813">
        <ele>1008</ele>
        <time>2022-06-08T23:04:02Z</time>
      </trkpt>
      <trkpt lat="44.39758" lon="6.49841">
        <ele>1010</ele>
        <time>2022-06-08T23:04:07Z</time>
      </trkpt>
      <trkpt lat="44.39755" lon="6.49853">
        <ele>1012</ele>
        <time>2022-06-08T23:04:09Z</time>
      </trkpt>
      <trkpt lat="44.39749" lon="6.49941">
        <ele>1020</ele>
        <time>2022-06-08T23:04:24Z</time>
      </trkpt>
      <trkpt lat="44.39764" lon="6.49993">
        <ele>1023</ele>
        <time>2022-06-08T23:04:34Z</time>
      </trkpt>
      <trkpt lat="44.39796" lon="6.50088">
        <ele>1029</ele>
        <time>2022-06-08T23:04:51Z</time>
      </trkpt>
      <trkpt lat="44.39815" lon="6.50159">
        <ele>1030</ele>
        <time>2022-06-08T23:05:04Z</time>
      </trkpt>
      <trkpt lat="44.3982" lon="6.50288">
        <ele>1041</ele>
        <time>2022-06-08T23:05:25Z</time>
      </trkpt>
      <trkpt lat="44.39815" lon="6.50317">
        <ele>1046</ele>
        <time>2022-06-08T23:05:30Z</time>
      </trkpt>
      <trkpt lat="44.39807" lon="6.50425">
        <ele>1053</ele>
        <time>2022-06-08T23:05:48Z</time>
      </trkpt>
      <trkpt lat="44.398" lon="6.50458">
        <ele>1058</ele>
        <time>2022-06-08T23:05:54Z</time>
      </trkpt>
      <trkpt lat="44.39795" lon="6.50471">
        <ele>1060</ele>
        <time>2022-06-08T23:05:57Z</time>
      </trkpt>
      <trkpt lat="44.39768" lon="6.5052">
        <ele>1070</ele>
        <time>2022-06-08T23:06:07Z</time>
      </trkpt>
      <trkpt lat="44.39764" lon="6.50549">
        <ele>1072</ele>
        <time>2022-06-08T23:06:12Z</time>
      </trkpt>
      <trkpt lat="44.39766" lon="6.50576">
        <ele>1072</ele>
        <time>2022-06-08T23:06:16Z</time>
      </trkpt>
      <trkpt lat="44.39762" lon="6.50612">
        <ele>1076</ele>
        <time>2022-06-08T23:06:22Z</time>
      </trkpt>
      <trkpt lat="44.39763" lon="6.5063">
        <ele>1078</ele>
        <time>2022-06-08T23:06:26Z</time>
      </trkpt>
      <trkpt lat="44.39774" lon="6.50661">
        <ele>1082</ele>
        <time>2022-06-08T23:06:31Z</time>
      </trkpt>
      <trkpt lat="44.39812" lon="6.50696">
        <ele>1081</ele>
        <time>2022-06-08T23:06:42Z</time>
      </trkpt>
      <trkpt lat="44.39825" lon="6.50773">
        <ele>1079</ele>
        <time>2022-06-08T23:06:55Z</time>
      </trkpt>
    </trkseg>
  </trk>
</gpx>